<?xml version="1.0" encoding="UTF-8" standalone="no" ?>
<gpx xmlns="http://www.topografix.com/GPX/1/1" xmlns:xsi="http://www.w3.org/2001/XMLSchema-instance" xsi:schemaLocation="http://www.topografix.com/GPX/1/1 http://www.topografix.com/GPX/1/1/gpx.xsd" version="1.1" creator="VisuGPX - https://www.visugpx.com">
  <metadata>
    <name>2026-08-30 Grand Colon + Chamrousse</name>
    <desc><![CDATA[Montée au GC depuis Domène avec Will, puis remontée à l'aiguille.]]></desc>
  </metadata>
  <wpt lat="45.20136" lon="5.84038">
    <ele>247.45</ele>
    <name><![CDATA[]]></name>
    <type><![CDATA[Point de départ]]></type>
  </wpt>
  <wpt lat="45.18635" lon="5.7847">
    <ele>221.81</ele>
    <name><![CDATA[]]></name>
    <desc><![CDATA[<p><br /><h3>Nom: Segment: 1</h3><br />Type: Indéfini<br/>Heure de départ: 07:58 30 août 2026<br/>Heure d'arrivée: 15:02 30 août 2026<br/>Distance: 40,2km (07:04)<br/>Temps déplacement: 06:07<br/>Vitesse moyenne: 5,69 km/h<br/>Vitesse en mouvement: 6,57 km/h<br/>Vitesse Max.: 57,32 km/h<br/>Altitude minimale: 222 m<br/>Altitude maximale: 2388 m<br/>Vitesse de montée: 652,7 m/h<br/>Vitesse de descente: 2687,9 m/h<br/>Dénivelé positif: 3163 m<br/>Dénivelé négatif: 3187 m<br/>Temps de montée: 04:50<br/>Temps de descente: 01:11<br/></p>]]></desc>
    <type><![CDATA[Point d'arrivée]]></type>
  </wpt>
  <trk>
    <name><![CDATA[2026-08-30 Grand Colon Chamrousse ]]></name>
    <desc><![CDATA[<p>Type: Indéfini<br/>Heure de départ: 07:58 30 août 2026<br/>Heure d'arrivée: 15:02 30 août 2026<br/>Distance: 40,2 km (07:04)<br/>Temps déplacement: 06:07<br/>Vitesse moyenne: 5,69 km/h<br/>Vitesse en mouvement: 6,57 km/h<br/>Vitesse Max.: 57,32 km/h<br/>Altitude minimale: 222 m<br/>Altitude maximale: 2388 m<br/>Vitesse de montée: 652,7 m/h<br/>Vitesse de descente: 2687,9 m/h<br/>Dénivelé positif: 3163 m<br/>Dénivelé négatif: 3187 m<br/>Temps de montée: 04:50<br/>Temps de descente: 01:11<br/></p><hr align="center" width="480" style="height: 2px; width: 517px"/>]]></desc>
    <trkseg>
      <trkpt lat="45.20136" lon="5.84038">
        <ele>247.45</ele>
        <time>2026-08-30T05:58:13.975Z</time>
      </trkpt>
      <trkpt lat="45.20126" lon="5.8406">
        <ele>248.55</ele>
        <time>2026-08-30T05:58:24.166Z</time>
      </trkpt>
      <trkpt lat="45.20131" lon="5.84087">
        <ele>249.01</ele>
        <time>2026-08-30T05:58:39.825Z</time>
      </trkpt>
      <trkpt lat="45.20137" lon="5.84112">
        <ele>251.15</ele>
        <time>2026-08-30T05:58:53.647Z</time>
      </trkpt>
      <trkpt lat="45.20143" lon="5.84138">
        <ele>253.84</ele>
        <time>2026-08-30T05:59:07.587Z</time>
      </trkpt>
      <trkpt lat="45.20151" lon="5.84162">
        <ele>257.07</ele>
        <time>2026-08-30T05:59:22.489Z</time>
      </trkpt>
      <trkpt lat="45.20167" lon="5.84174">
        <ele>260.8</ele>
        <time>2026-08-30T05:59:38.028Z</time>
      </trkpt>
      <trkpt lat="45.2016" lon="5.84199">
        <ele>265.83</ele>
        <time>2026-08-30T05:59:59.968Z</time>
      </trkpt>
      <trkpt lat="45.20144" lon="5.84213">
        <ele>270.89</ele>
        <time>2026-08-30T06:00:18.854Z</time>
      </trkpt>
      <trkpt lat="45.20158" lon="5.84229">
        <ele>272.91</ele>
        <time>2026-08-30T06:00:36.047Z</time>
      </trkpt>
      <trkpt lat="45.2014" lon="5.84233">
        <ele>276.62</ele>
        <time>2026-08-30T06:00:59.685Z</time>
      </trkpt>
      <trkpt lat="45.20125" lon="5.84247">
        <ele>277.81</ele>
        <time>2026-08-30T06:01:13.344Z</time>
      </trkpt>
      <trkpt lat="45.20111" lon="5.84264">
        <ele>279.9</ele>
        <time>2026-08-30T06:01:26.946Z</time>
      </trkpt>
      <trkpt lat="45.2013" lon="5.84264">
        <ele>287.79</ele>
        <time>2026-08-30T06:02:06.187Z</time>
      </trkpt>
      <trkpt lat="45.20148" lon="5.8427">
        <ele>291.78</ele>
        <time>2026-08-30T06:02:24.339Z</time>
      </trkpt>
      <trkpt lat="45.20157" lon="5.84293">
        <ele>294.97</ele>
        <time>2026-08-30T06:02:40.675Z</time>
      </trkpt>
      <trkpt lat="45.20165" lon="5.84315">
        <ele>298</ele>
        <time>2026-08-30T06:02:56.827Z</time>
      </trkpt>
      <trkpt lat="45.2017" lon="5.84341">
        <ele>300.29</ele>
        <time>2026-08-30T06:03:12.989Z</time>
      </trkpt>
      <trkpt lat="45.20181" lon="5.84363">
        <ele>303.67</ele>
        <time>2026-08-30T06:03:27.971Z</time>
      </trkpt>
      <trkpt lat="45.2019" lon="5.84385">
        <ele>306.16</ele>
        <time>2026-08-30T06:03:42.493Z</time>
      </trkpt>
      <trkpt lat="45.20198" lon="5.84409">
        <ele>308.58</ele>
        <time>2026-08-30T06:03:58.325Z</time>
      </trkpt>
      <trkpt lat="45.20199" lon="5.84435">
        <ele>313.52</ele>
        <time>2026-08-30T06:04:16.089Z</time>
      </trkpt>
      <trkpt lat="45.20204" lon="5.8446">
        <ele>316.68</ele>
        <time>2026-08-30T06:04:32.550Z</time>
      </trkpt>
      <trkpt lat="45.20205" lon="5.84486">
        <ele>318.38</ele>
        <time>2026-08-30T06:04:46.833Z</time>
      </trkpt>
      <trkpt lat="45.20206" lon="5.84512">
        <ele>323.26</ele>
        <time>2026-08-30T06:05:09.164Z</time>
      </trkpt>
      <trkpt lat="45.20212" lon="5.84536">
        <ele>322.43</ele>
        <time>2026-08-30T06:05:21.049Z</time>
      </trkpt>
      <trkpt lat="45.20219" lon="5.8456">
        <ele>324.58</ele>
        <time>2026-08-30T06:05:35.421Z</time>
      </trkpt>
      <trkpt lat="45.20221" lon="5.84586">
        <ele>327.3</ele>
        <time>2026-08-30T06:05:51.432Z</time>
      </trkpt>
      <trkpt lat="45.20226" lon="5.84611">
        <ele>330.92</ele>
        <time>2026-08-30T06:06:08.687Z</time>
      </trkpt>
      <trkpt lat="45.20235" lon="5.84635">
        <ele>333.5</ele>
        <time>2026-08-30T06:06:24.379Z</time>
      </trkpt>
      <trkpt lat="45.20242" lon="5.84659">
        <ele>336.8</ele>
        <time>2026-08-30T06:06:39.690Z</time>
      </trkpt>
      <trkpt lat="45.20255" lon="5.84676">
        <ele>337.85</ele>
        <time>2026-08-30T06:06:55.013Z</time>
      </trkpt>
      <trkpt lat="45.20266" lon="5.84697">
        <ele>340.33</ele>
        <time>2026-08-30T06:07:10.745Z</time>
      </trkpt>
      <trkpt lat="45.20271" lon="5.84722">
        <ele>347.01</ele>
        <time>2026-08-30T06:07:34.132Z</time>
      </trkpt>
      <trkpt lat="45.20273" lon="5.84748">
        <ele>351.38</ele>
        <time>2026-08-30T06:07:53.708Z</time>
      </trkpt>
      <trkpt lat="45.20273" lon="5.84773">
        <ele>354.1</ele>
        <time>2026-08-30T06:08:10.832Z</time>
      </trkpt>
      <trkpt lat="45.20275" lon="5.848">
        <ele>357.34</ele>
        <time>2026-08-30T06:08:28.426Z</time>
      </trkpt>
      <trkpt lat="45.20282" lon="5.84823">
        <ele>360.53</ele>
        <time>2026-08-30T06:08:43.443Z</time>
      </trkpt>
      <trkpt lat="45.20278" lon="5.84849">
        <ele>366.58</ele>
        <time>2026-08-30T06:09:03.252Z</time>
      </trkpt>
      <trkpt lat="45.20279" lon="5.84875">
        <ele>365.56</ele>
        <time>2026-08-30T06:09:16.172Z</time>
      </trkpt>
      <trkpt lat="45.20285" lon="5.849">
        <ele>368.02</ele>
        <time>2026-08-30T06:09:32.925Z</time>
      </trkpt>
      <trkpt lat="45.20291" lon="5.84924">
        <ele>371.29</ele>
        <time>2026-08-30T06:09:50.500Z</time>
      </trkpt>
      <trkpt lat="45.20299" lon="5.84947">
        <ele>374.62</ele>
        <time>2026-08-30T06:10:21.083Z</time>
      </trkpt>
      <trkpt lat="45.20306" lon="5.84971">
        <ele>377.58</ele>
        <time>2026-08-30T06:10:41.012Z</time>
      </trkpt>
      <trkpt lat="45.20305" lon="5.84997">
        <ele>380.4</ele>
        <time>2026-08-30T06:10:55.143Z</time>
      </trkpt>
      <trkpt lat="45.20313" lon="5.85021">
        <ele>382.76</ele>
        <time>2026-08-30T06:11:10.275Z</time>
      </trkpt>
      <trkpt lat="45.2032" lon="5.85044">
        <ele>385.84</ele>
        <time>2026-08-30T06:11:27.960Z</time>
      </trkpt>
      <trkpt lat="45.20323" lon="5.8507">
        <ele>389.42</ele>
        <time>2026-08-30T06:11:44.145Z</time>
      </trkpt>
      <trkpt lat="45.20327" lon="5.85096">
        <ele>393.19</ele>
        <time>2026-08-30T06:12:01.136Z</time>
      </trkpt>
      <trkpt lat="45.20338" lon="5.85118">
        <ele>394.92</ele>
        <time>2026-08-30T06:12:17.228Z</time>
      </trkpt>
      <trkpt lat="45.20336" lon="5.85145">
        <ele>399.29</ele>
        <time>2026-08-30T06:12:31.840Z</time>
      </trkpt>
      <trkpt lat="45.20336" lon="5.8517">
        <ele>403.04</ele>
        <time>2026-08-30T06:12:51.115Z</time>
      </trkpt>
      <trkpt lat="45.20335" lon="5.85196">
        <ele>407.94</ele>
        <time>2026-08-30T06:13:09.419Z</time>
      </trkpt>
      <trkpt lat="45.20332" lon="5.85222">
        <ele>410.09</ele>
        <time>2026-08-30T06:13:21.699Z</time>
      </trkpt>
      <trkpt lat="45.20335" lon="5.85248">
        <ele>412.06</ele>
        <time>2026-08-30T06:13:37.482Z</time>
      </trkpt>
      <trkpt lat="45.20332" lon="5.85273">
        <ele>411.73</ele>
        <time>2026-08-30T06:13:50.702Z</time>
      </trkpt>
      <trkpt lat="45.20329" lon="5.85299">
        <ele>415.82</ele>
        <time>2026-08-30T06:14:08.535Z</time>
      </trkpt>
      <trkpt lat="45.20332" lon="5.85325">
        <ele>421.54</ele>
        <time>2026-08-30T06:14:25.457Z</time>
      </trkpt>
      <trkpt lat="45.20328" lon="5.85351">
        <ele>423.29</ele>
        <time>2026-08-30T06:14:40.720Z</time>
      </trkpt>
      <trkpt lat="45.20312" lon="5.85362">
        <ele>426.73</ele>
        <time>2026-08-30T06:15:00.355Z</time>
      </trkpt>
      <trkpt lat="45.20308" lon="5.85336">
        <ele>426.94</ele>
        <time>2026-08-30T06:15:16.138Z</time>
      </trkpt>
      <trkpt lat="45.20304" lon="5.85311">
        <ele>431.19</ele>
        <time>2026-08-30T06:15:31.839Z</time>
      </trkpt>
      <trkpt lat="45.20298" lon="5.85286">
        <ele>433.66</ele>
        <time>2026-08-30T06:15:47.062Z</time>
      </trkpt>
      <trkpt lat="45.20282" lon="5.85271">
        <ele>438.36</ele>
        <time>2026-08-30T06:16:06.256Z</time>
      </trkpt>
      <trkpt lat="45.20266" lon="5.85257">
        <ele>442.45</ele>
        <time>2026-08-30T06:16:27.283Z</time>
      </trkpt>
      <trkpt lat="45.20247" lon="5.85258">
        <ele>444.66</ele>
        <time>2026-08-30T06:16:44.196Z</time>
      </trkpt>
      <trkpt lat="45.20231" lon="5.8527">
        <ele>451.04</ele>
        <time>2026-08-30T06:17:06.884Z</time>
      </trkpt>
      <trkpt lat="45.20215" lon="5.85283">
        <ele>457.35</ele>
        <time>2026-08-30T06:17:29.941Z</time>
      </trkpt>
      <trkpt lat="45.202" lon="5.85297">
        <ele>463.38</ele>
        <time>2026-08-30T06:17:50.718Z</time>
      </trkpt>
      <trkpt lat="45.20186" lon="5.85313">
        <ele>470.67</ele>
        <time>2026-08-30T06:18:21.242Z</time>
      </trkpt>
      <trkpt lat="45.20171" lon="5.85328">
        <ele>477.73</ele>
        <time>2026-08-30T06:18:49.314Z</time>
      </trkpt>
      <trkpt lat="45.20158" lon="5.85347">
        <ele>487.26</ele>
        <time>2026-08-30T06:19:27.204Z</time>
      </trkpt>
      <trkpt lat="45.20142" lon="5.8536">
        <ele>496.99</ele>
        <time>2026-08-30T06:20:11.157Z</time>
      </trkpt>
      <trkpt lat="45.20127" lon="5.85375">
        <ele>510.69</ele>
        <time>2026-08-30T06:21:00.280Z</time>
      </trkpt>
      <trkpt lat="45.20112" lon="5.85389">
        <ele>520.88</ele>
        <time>2026-08-30T06:21:43.660Z</time>
      </trkpt>
      <trkpt lat="45.20104" lon="5.85413">
        <ele>530.88</ele>
        <time>2026-08-30T06:22:30.207Z</time>
      </trkpt>
      <trkpt lat="45.20086" lon="5.85415">
        <ele>539.59</ele>
        <time>2026-08-30T06:23:18.003Z</time>
      </trkpt>
      <trkpt lat="45.20072" lon="5.85432">
        <ele>557.05</ele>
        <time>2026-08-30T06:24:41.160Z</time>
      </trkpt>
      <trkpt lat="45.20073" lon="5.85457">
        <ele>566.35</ele>
        <time>2026-08-30T06:25:11.376Z</time>
      </trkpt>
      <trkpt lat="45.20057" lon="5.85445">
        <ele>573.11</ele>
        <time>2026-08-30T06:25:34.122Z</time>
      </trkpt>
      <trkpt lat="45.20039" lon="5.85439">
        <ele>580.56</ele>
        <time>2026-08-30T06:26:00.302Z</time>
      </trkpt>
      <trkpt lat="45.20032" lon="5.85463">
        <ele>590.48</ele>
        <time>2026-08-30T06:26:41.134Z</time>
      </trkpt>
      <trkpt lat="45.20015" lon="5.85452">
        <ele>597.37</ele>
        <time>2026-08-30T06:27:01.320Z</time>
      </trkpt>
      <trkpt lat="45.20008" lon="5.85476">
        <ele>601.39</ele>
        <time>2026-08-30T06:27:21.796Z</time>
      </trkpt>
      <trkpt lat="45.20008" lon="5.85502">
        <ele>602.25</ele>
        <time>2026-08-30T06:27:39.021Z</time>
      </trkpt>
      <trkpt lat="45.2001" lon="5.85528">
        <ele>606.22</ele>
        <time>2026-08-30T06:27:56.204Z</time>
      </trkpt>
      <trkpt lat="45.20017" lon="5.85552">
        <ele>610.53</ele>
        <time>2026-08-30T06:28:15.320Z</time>
      </trkpt>
      <trkpt lat="45.20023" lon="5.85576">
        <ele>613.63</ele>
        <time>2026-08-30T06:28:34.794Z</time>
      </trkpt>
      <trkpt lat="45.20031" lon="5.85599">
        <ele>618.14</ele>
        <time>2026-08-30T06:28:54.199Z</time>
      </trkpt>
      <trkpt lat="45.20038" lon="5.85624">
        <ele>623.11</ele>
        <time>2026-08-30T06:29:15.445Z</time>
      </trkpt>
      <trkpt lat="45.20042" lon="5.85649">
        <ele>627.37</ele>
        <time>2026-08-30T06:29:35.443Z</time>
      </trkpt>
      <trkpt lat="45.2005" lon="5.85673">
        <ele>632.27</ele>
        <time>2026-08-30T06:29:54.328Z</time>
      </trkpt>
      <trkpt lat="45.20055" lon="5.85697">
        <ele>635.41</ele>
        <time>2026-08-30T06:30:11.701Z</time>
      </trkpt>
      <trkpt lat="45.20057" lon="5.85723">
        <ele>639.03</ele>
        <time>2026-08-30T06:30:30.255Z</time>
      </trkpt>
      <trkpt lat="45.20059" lon="5.85748">
        <ele>643.82</ele>
        <time>2026-08-30T06:30:49.762Z</time>
      </trkpt>
      <trkpt lat="45.20056" lon="5.85773">
        <ele>647.56</ele>
        <time>2026-08-30T06:31:14.120Z</time>
      </trkpt>
      <trkpt lat="45.20045" lon="5.85794">
        <ele>651.72</ele>
        <time>2026-08-30T06:31:31.815Z</time>
      </trkpt>
      <trkpt lat="45.20032" lon="5.85813">
        <ele>656.13</ele>
        <time>2026-08-30T06:31:55.281Z</time>
      </trkpt>
      <trkpt lat="45.2002" lon="5.85833">
        <ele>662.33</ele>
        <time>2026-08-30T06:32:16.100Z</time>
      </trkpt>
      <trkpt lat="45.20003" lon="5.85841">
        <ele>667.5</ele>
        <time>2026-08-30T06:32:38.777Z</time>
      </trkpt>
      <trkpt lat="45.19985" lon="5.85848">
        <ele>672.96</ele>
        <time>2026-08-30T06:33:00.023Z</time>
      </trkpt>
      <trkpt lat="45.19967" lon="5.85844">
        <ele>677.24</ele>
        <time>2026-08-30T06:33:16.467Z</time>
      </trkpt>
      <trkpt lat="45.19949" lon="5.85846">
        <ele>678.77</ele>
        <time>2026-08-30T06:33:31.799Z</time>
      </trkpt>
      <trkpt lat="45.19931" lon="5.85854">
        <ele>682.34</ele>
        <time>2026-08-30T06:33:47.101Z</time>
      </trkpt>
      <trkpt lat="45.19936" lon="5.85879">
        <ele>686.6</ele>
        <time>2026-08-30T06:34:06.359Z</time>
      </trkpt>
      <trkpt lat="45.1994" lon="5.85904">
        <ele>691.78</ele>
        <time>2026-08-30T06:34:29.226Z</time>
      </trkpt>
      <trkpt lat="45.19947" lon="5.85928">
        <ele>695.99</ele>
        <time>2026-08-30T06:34:46.959Z</time>
      </trkpt>
      <trkpt lat="45.19957" lon="5.8595">
        <ele>699.82</ele>
        <time>2026-08-30T06:35:05.084Z</time>
      </trkpt>
      <trkpt lat="45.19963" lon="5.85975">
        <ele>702.63</ele>
        <time>2026-08-30T06:35:20.837Z</time>
      </trkpt>
      <trkpt lat="45.19967" lon="5.86">
        <ele>704.23</ele>
        <time>2026-08-30T06:35:35.178Z</time>
      </trkpt>
      <trkpt lat="45.19969" lon="5.86026">
        <ele>706.83</ele>
        <time>2026-08-30T06:35:48.916Z</time>
      </trkpt>
      <trkpt lat="45.19972" lon="5.86052">
        <ele>709.94</ele>
        <time>2026-08-30T06:36:03.980Z</time>
      </trkpt>
      <trkpt lat="45.19975" lon="5.86077">
        <ele>713.66</ele>
        <time>2026-08-30T06:36:21.081Z</time>
      </trkpt>
      <trkpt lat="45.1998" lon="5.86103">
        <ele>717.47</ele>
        <time>2026-08-30T06:36:37.837Z</time>
      </trkpt>
      <trkpt lat="45.19982" lon="5.86128">
        <ele>721.67</ele>
        <time>2026-08-30T06:36:58.349Z</time>
      </trkpt>
      <trkpt lat="45.19981" lon="5.86154">
        <ele>726.76</ele>
        <time>2026-08-30T06:37:18.419Z</time>
      </trkpt>
      <trkpt lat="45.19981" lon="5.8618">
        <ele>732.48</ele>
        <time>2026-08-30T06:37:40.777Z</time>
      </trkpt>
      <trkpt lat="45.19984" lon="5.86205">
        <ele>737.96</ele>
        <time>2026-08-30T06:38:04.197Z</time>
      </trkpt>
      <trkpt lat="45.1999" lon="5.86229">
        <ele>744.57</ele>
        <time>2026-08-30T06:38:33.761Z</time>
      </trkpt>
      <trkpt lat="45.19989" lon="5.86255">
        <ele>749.91</ele>
        <time>2026-08-30T06:38:56.418Z</time>
      </trkpt>
      <trkpt lat="45.19996" lon="5.86279">
        <ele>754.73</ele>
        <time>2026-08-30T06:39:18.076Z</time>
      </trkpt>
      <trkpt lat="45.20005" lon="5.86301">
        <ele>759.92</ele>
        <time>2026-08-30T06:39:42.364Z</time>
      </trkpt>
      <trkpt lat="45.20011" lon="5.86325">
        <ele>767.01</ele>
        <time>2026-08-30T06:40:02.801Z</time>
      </trkpt>
      <trkpt lat="45.2002" lon="5.86349">
        <ele>768.43</ele>
        <time>2026-08-30T06:40:20.154Z</time>
      </trkpt>
      <trkpt lat="45.20027" lon="5.86372">
        <ele>771.37</ele>
        <time>2026-08-30T06:40:36.418Z</time>
      </trkpt>
      <trkpt lat="45.20035" lon="5.86396">
        <ele>774.6</ele>
        <time>2026-08-30T06:40:54.202Z</time>
      </trkpt>
      <trkpt lat="45.20041" lon="5.86421">
        <ele>778.99</ele>
        <time>2026-08-30T06:41:14.018Z</time>
      </trkpt>
      <trkpt lat="45.20042" lon="5.86446">
        <ele>785.8</ele>
        <time>2026-08-30T06:41:39.437Z</time>
      </trkpt>
      <trkpt lat="45.20048" lon="5.86471">
        <ele>793.59</ele>
        <time>2026-08-30T06:42:06.295Z</time>
      </trkpt>
      <trkpt lat="45.20053" lon="5.86495">
        <ele>798</ele>
        <time>2026-08-30T06:42:25.388Z</time>
      </trkpt>
      <trkpt lat="45.20043" lon="5.86516">
        <ele>801.57</ele>
        <time>2026-08-30T06:42:45.079Z</time>
      </trkpt>
      <trkpt lat="45.20036" lon="5.86541">
        <ele>803.14</ele>
        <time>2026-08-30T06:43:01.562Z</time>
      </trkpt>
      <trkpt lat="45.20034" lon="5.86567">
        <ele>802.69</ele>
        <time>2026-08-30T06:43:14.882Z</time>
      </trkpt>
      <trkpt lat="45.20027" lon="5.8659">
        <ele>803.95</ele>
        <time>2026-08-30T06:43:28.304Z</time>
      </trkpt>
      <trkpt lat="45.20017" lon="5.86613">
        <ele>806.55</ele>
        <time>2026-08-30T06:43:44.276Z</time>
      </trkpt>
      <trkpt lat="45.20009" lon="5.86637">
        <ele>809.56</ele>
        <time>2026-08-30T06:44:01.701Z</time>
      </trkpt>
      <trkpt lat="45.20003" lon="5.86661">
        <ele>811.77</ele>
        <time>2026-08-30T06:44:15.581Z</time>
      </trkpt>
      <trkpt lat="45.20002" lon="5.86687">
        <ele>814.55</ele>
        <time>2026-08-30T06:44:34.976Z</time>
      </trkpt>
      <trkpt lat="45.19993" lon="5.8671">
        <ele>820.53</ele>
        <time>2026-08-30T06:44:56.163Z</time>
      </trkpt>
      <trkpt lat="45.19975" lon="5.86711">
        <ele>824.53</ele>
        <time>2026-08-30T06:45:14.218Z</time>
      </trkpt>
      <trkpt lat="45.19969" lon="5.86735">
        <ele>829.43</ele>
        <time>2026-08-30T06:45:43.348Z</time>
      </trkpt>
      <trkpt lat="45.19961" lon="5.86758">
        <ele>836.65</ele>
        <time>2026-08-30T06:46:11.388Z</time>
      </trkpt>
      <trkpt lat="45.19951" lon="5.8678">
        <ele>844.05</ele>
        <time>2026-08-30T06:46:38.775Z</time>
      </trkpt>
      <trkpt lat="45.19942" lon="5.86802">
        <ele>851.65</ele>
        <time>2026-08-30T06:47:06.055Z</time>
      </trkpt>
      <trkpt lat="45.19934" lon="5.86826">
        <ele>858.54</ele>
        <time>2026-08-30T06:47:35.839Z</time>
      </trkpt>
      <trkpt lat="45.19926" lon="5.86849">
        <ele>863.44</ele>
        <time>2026-08-30T06:47:58.257Z</time>
      </trkpt>
      <trkpt lat="45.19924" lon="5.86875">
        <ele>867.42</ele>
        <time>2026-08-30T06:48:15.409Z</time>
      </trkpt>
      <trkpt lat="45.19914" lon="5.86897">
        <ele>868.53</ele>
        <time>2026-08-30T06:48:29.180Z</time>
      </trkpt>
      <trkpt lat="45.19903" lon="5.86918">
        <ele>867.67</ele>
        <time>2026-08-30T06:48:40.979Z</time>
      </trkpt>
      <trkpt lat="45.19898" lon="5.86943">
        <ele>867.5</ele>
        <time>2026-08-30T06:48:54.180Z</time>
      </trkpt>
      <trkpt lat="45.19891" lon="5.86967">
        <ele>869.12</ele>
        <time>2026-08-30T06:49:07.280Z</time>
      </trkpt>
      <trkpt lat="45.19883" lon="5.8699">
        <ele>870.99</ele>
        <time>2026-08-30T06:49:22.121Z</time>
      </trkpt>
      <trkpt lat="45.19875" lon="5.87013">
        <ele>875.19</ele>
        <time>2026-08-30T06:49:40.416Z</time>
      </trkpt>
      <trkpt lat="45.19868" lon="5.87038">
        <ele>878.78</ele>
        <time>2026-08-30T06:50:00.242Z</time>
      </trkpt>
      <trkpt lat="45.19859" lon="5.87061">
        <ele>884.94</ele>
        <time>2026-08-30T06:50:22.362Z</time>
      </trkpt>
      <trkpt lat="45.19841" lon="5.87059">
        <ele>889.5</ele>
        <time>2026-08-30T06:50:39.883Z</time>
      </trkpt>
      <trkpt lat="45.19849" lon="5.87082">
        <ele>892.44</ele>
        <time>2026-08-30T06:50:55.555Z</time>
      </trkpt>
      <trkpt lat="45.19855" lon="5.87106">
        <ele>893.6</ele>
        <time>2026-08-30T06:51:09.856Z</time>
      </trkpt>
      <trkpt lat="45.19852" lon="5.87132">
        <ele>895.39</ele>
        <time>2026-08-30T06:51:24.376Z</time>
      </trkpt>
      <trkpt lat="45.19844" lon="5.87155">
        <ele>894.76</ele>
        <time>2026-08-30T06:51:39.349Z</time>
      </trkpt>
      <trkpt lat="45.19838" lon="5.87179">
        <ele>893.25</ele>
        <time>2026-08-30T06:51:52.517Z</time>
      </trkpt>
      <trkpt lat="45.19838" lon="5.87205">
        <ele>895.63</ele>
        <time>2026-08-30T06:52:07.020Z</time>
      </trkpt>
      <trkpt lat="45.19839" lon="5.87231">
        <ele>899.91</ele>
        <time>2026-08-30T06:52:28.756Z</time>
      </trkpt>
      <trkpt lat="45.19841" lon="5.87257">
        <ele>906.05</ele>
        <time>2026-08-30T06:52:54.307Z</time>
      </trkpt>
      <trkpt lat="45.19845" lon="5.87283">
        <ele>911.04</ele>
        <time>2026-08-30T06:53:13.542Z</time>
      </trkpt>
      <trkpt lat="45.19839" lon="5.87308">
        <ele>911.72</ele>
        <time>2026-08-30T06:53:24.841Z</time>
      </trkpt>
      <trkpt lat="45.19834" lon="5.87333">
        <ele>912.67</ele>
        <time>2026-08-30T06:53:32.736Z</time>
      </trkpt>
      <trkpt lat="45.19827" lon="5.87358">
        <ele>911.28</ele>
        <time>2026-08-30T06:53:41.464Z</time>
      </trkpt>
      <trkpt lat="45.19821" lon="5.87383">
        <ele>910.93</ele>
        <time>2026-08-30T06:53:49.470Z</time>
      </trkpt>
      <trkpt lat="45.19816" lon="5.87408">
        <ele>910.95</ele>
        <time>2026-08-30T06:53:58.998Z</time>
      </trkpt>
      <trkpt lat="45.19808" lon="5.87431">
        <ele>908.89</ele>
        <time>2026-08-30T06:54:08.135Z</time>
      </trkpt>
      <trkpt lat="45.198" lon="5.87456">
        <ele>906.33</ele>
        <time>2026-08-30T06:54:15.821Z</time>
      </trkpt>
      <trkpt lat="45.19791" lon="5.87479">
        <ele>905.05</ele>
        <time>2026-08-30T06:54:27.060Z</time>
      </trkpt>
      <trkpt lat="45.19791" lon="5.87504">
        <ele>908.45</ele>
        <time>2026-08-30T06:54:42.201Z</time>
      </trkpt>
      <trkpt lat="45.19793" lon="5.8753">
        <ele>912.57</ele>
        <time>2026-08-30T06:55:02.418Z</time>
      </trkpt>
      <trkpt lat="45.19792" lon="5.87556">
        <ele>916.29</ele>
        <time>2026-08-30T06:55:20.000Z</time>
      </trkpt>
      <trkpt lat="45.19792" lon="5.87582">
        <ele>920.96</ele>
        <time>2026-08-30T06:55:35.664Z</time>
      </trkpt>
      <trkpt lat="45.19789" lon="5.87608">
        <ele>924.33</ele>
        <time>2026-08-30T06:56:05.876Z</time>
      </trkpt>
      <trkpt lat="45.19787" lon="5.87634">
        <ele>928.22</ele>
        <time>2026-08-30T06:56:23.620Z</time>
      </trkpt>
      <trkpt lat="45.19781" lon="5.87658">
        <ele>929.23</ele>
        <time>2026-08-30T06:56:41.258Z</time>
      </trkpt>
      <trkpt lat="45.19778" lon="5.87685">
        <ele>931.5</ele>
        <time>2026-08-30T06:56:57.058Z</time>
      </trkpt>
      <trkpt lat="45.19774" lon="5.87711">
        <ele>933.52</ele>
        <time>2026-08-30T06:57:11.799Z</time>
      </trkpt>
      <trkpt lat="45.19765" lon="5.87733">
        <ele>936.04</ele>
        <time>2026-08-30T06:57:26.681Z</time>
      </trkpt>
      <trkpt lat="45.19753" lon="5.87752">
        <ele>939.04</ele>
        <time>2026-08-30T06:57:42.983Z</time>
      </trkpt>
      <trkpt lat="45.19743" lon="5.87774">
        <ele>943.07</ele>
        <time>2026-08-30T06:58:00.199Z</time>
      </trkpt>
      <trkpt lat="45.1974" lon="5.878">
        <ele>946.8</ele>
        <time>2026-08-30T06:58:16.368Z</time>
      </trkpt>
      <trkpt lat="45.19744" lon="5.87826">
        <ele>947.03</ele>
        <time>2026-08-30T06:58:31.622Z</time>
      </trkpt>
      <trkpt lat="45.19747" lon="5.87852">
        <ele>950.69</ele>
        <time>2026-08-30T06:58:47.332Z</time>
      </trkpt>
      <trkpt lat="45.19752" lon="5.87877">
        <ele>953.36</ele>
        <time>2026-08-30T06:59:01.252Z</time>
      </trkpt>
      <trkpt lat="45.1975" lon="5.87903">
        <ele>955.61</ele>
        <time>2026-08-30T06:59:16.355Z</time>
      </trkpt>
      <trkpt lat="45.19749" lon="5.87929">
        <ele>959.27</ele>
        <time>2026-08-30T06:59:31.217Z</time>
      </trkpt>
      <trkpt lat="45.19752" lon="5.87956">
        <ele>960.81</ele>
        <time>2026-08-30T06:59:45.218Z</time>
      </trkpt>
      <trkpt lat="45.19754" lon="5.87982">
        <ele>961.57</ele>
        <time>2026-08-30T06:59:59.579Z</time>
      </trkpt>
      <trkpt lat="45.19752" lon="5.88007">
        <ele>960.11</ele>
        <time>2026-08-30T07:00:10.999Z</time>
      </trkpt>
      <trkpt lat="45.1975" lon="5.88034">
        <ele>958.76</ele>
        <time>2026-08-30T07:00:25.359Z</time>
      </trkpt>
      <trkpt lat="45.19749" lon="5.8806">
        <ele>958.34</ele>
        <time>2026-08-30T07:00:38.921Z</time>
      </trkpt>
      <trkpt lat="45.19751" lon="5.88087">
        <ele>959.8</ele>
        <time>2026-08-30T07:01:01.518Z</time>
      </trkpt>
      <trkpt lat="45.19753" lon="5.88112">
        <ele>957.7</ele>
        <time>2026-08-30T07:01:14.918Z</time>
      </trkpt>
      <trkpt lat="45.19756" lon="5.88137">
        <ele>954.45</ele>
        <time>2026-08-30T07:01:26.578Z</time>
      </trkpt>
      <trkpt lat="45.19752" lon="5.88163">
        <ele>952.22</ele>
        <time>2026-08-30T07:01:38.777Z</time>
      </trkpt>
      <trkpt lat="45.19745" lon="5.88188">
        <ele>948.84</ele>
        <time>2026-08-30T07:01:50.878Z</time>
      </trkpt>
      <trkpt lat="45.19739" lon="5.88213">
        <ele>945.11</ele>
        <time>2026-08-30T07:02:02.437Z</time>
      </trkpt>
      <trkpt lat="45.19733" lon="5.88237">
        <ele>941.55</ele>
        <time>2026-08-30T07:02:14.816Z</time>
      </trkpt>
      <trkpt lat="45.1973" lon="5.88263">
        <ele>938.29</ele>
        <time>2026-08-30T07:02:26.995Z</time>
      </trkpt>
      <trkpt lat="45.19723" lon="5.88286">
        <ele>935.86</ele>
        <time>2026-08-30T07:02:38.634Z</time>
      </trkpt>
      <trkpt lat="45.19716" lon="5.88312">
        <ele>933.27</ele>
        <time>2026-08-30T07:02:51.255Z</time>
      </trkpt>
      <trkpt lat="45.19712" lon="5.88338">
        <ele>931.81</ele>
        <time>2026-08-30T07:03:04.014Z</time>
      </trkpt>
      <trkpt lat="45.19703" lon="5.8836">
        <ele>931</ele>
        <time>2026-08-30T07:03:15.144Z</time>
      </trkpt>
      <trkpt lat="45.19693" lon="5.88383">
        <ele>929.91</ele>
        <time>2026-08-30T07:03:27.163Z</time>
      </trkpt>
      <trkpt lat="45.19679" lon="5.88401">
        <ele>927.92</ele>
        <time>2026-08-30T07:03:38.842Z</time>
      </trkpt>
      <trkpt lat="45.19682" lon="5.88426">
        <ele>924.93</ele>
        <time>2026-08-30T07:03:52.500Z</time>
      </trkpt>
      <trkpt lat="45.19692" lon="5.88448">
        <ele>922.61</ele>
        <time>2026-08-30T07:04:03.001Z</time>
      </trkpt>
      <trkpt lat="45.1969" lon="5.88474">
        <ele>921.34</ele>
        <time>2026-08-30T07:04:15.320Z</time>
      </trkpt>
      <trkpt lat="45.19689" lon="5.885">
        <ele>919.28</ele>
        <time>2026-08-30T07:04:28.922Z</time>
      </trkpt>
      <trkpt lat="45.19687" lon="5.88527">
        <ele>918.73</ele>
        <time>2026-08-30T07:04:41.922Z</time>
      </trkpt>
      <trkpt lat="45.19683" lon="5.88552">
        <ele>919.28</ele>
        <time>2026-08-30T07:04:53.356Z</time>
      </trkpt>
      <trkpt lat="45.19675" lon="5.88575">
        <ele>919.28</ele>
        <time>2026-08-30T07:05:05.720Z</time>
      </trkpt>
      <trkpt lat="45.19671" lon="5.88602">
        <ele>920.55</ele>
        <time>2026-08-30T07:05:18.140Z</time>
      </trkpt>
      <trkpt lat="45.19667" lon="5.88627">
        <ele>920.63</ele>
        <time>2026-08-30T07:05:30.961Z</time>
      </trkpt>
      <trkpt lat="45.19664" lon="5.88653">
        <ele>923.3</ele>
        <time>2026-08-30T07:05:43.641Z</time>
      </trkpt>
      <trkpt lat="45.19661" lon="5.88679">
        <ele>923.68</ele>
        <time>2026-08-30T07:05:57.240Z</time>
      </trkpt>
      <trkpt lat="45.19659" lon="5.88706">
        <ele>925.68</ele>
        <time>2026-08-30T07:06:10.021Z</time>
      </trkpt>
      <trkpt lat="45.19654" lon="5.8873">
        <ele>926.63</ele>
        <time>2026-08-30T07:06:22.841Z</time>
      </trkpt>
      <trkpt lat="45.19654" lon="5.88757">
        <ele>928.51</ele>
        <time>2026-08-30T07:06:37.183Z</time>
      </trkpt>
      <trkpt lat="45.19651" lon="5.88782">
        <ele>931.83</ele>
        <time>2026-08-30T07:06:52.955Z</time>
      </trkpt>
      <trkpt lat="45.19645" lon="5.88807">
        <ele>936.08</ele>
        <time>2026-08-30T07:07:06.796Z</time>
      </trkpt>
      <trkpt lat="45.19631" lon="5.88822">
        <ele>938.11</ele>
        <time>2026-08-30T07:07:21.537Z</time>
      </trkpt>
      <trkpt lat="45.19613" lon="5.88832">
        <ele>941.98</ele>
        <time>2026-08-30T07:07:39.681Z</time>
      </trkpt>
      <trkpt lat="45.19598" lon="5.88845">
        <ele>944.9</ele>
        <time>2026-08-30T07:07:55.143Z</time>
      </trkpt>
      <trkpt lat="45.19582" lon="5.88859">
        <ele>948.84</ele>
        <time>2026-08-30T07:08:12.057Z</time>
      </trkpt>
      <trkpt lat="45.19567" lon="5.88876">
        <ele>953.99</ele>
        <time>2026-08-30T07:08:30.121Z</time>
      </trkpt>
      <trkpt lat="45.19553" lon="5.88892">
        <ele>957.2</ele>
        <time>2026-08-30T07:08:46.984Z</time>
      </trkpt>
      <trkpt lat="45.19539" lon="5.88909">
        <ele>961.2</ele>
        <time>2026-08-30T07:09:07.222Z</time>
      </trkpt>
      <trkpt lat="45.19525" lon="5.88927">
        <ele>966.25</ele>
        <time>2026-08-30T07:09:23.262Z</time>
      </trkpt>
      <trkpt lat="45.19511" lon="5.88944">
        <ele>969.61</ele>
        <time>2026-08-30T07:09:40.335Z</time>
      </trkpt>
      <trkpt lat="45.19501" lon="5.88966">
        <ele>974.68</ele>
        <time>2026-08-30T07:09:58.700Z</time>
      </trkpt>
      <trkpt lat="45.19487" lon="5.88982">
        <ele>978.23</ele>
        <time>2026-08-30T07:10:15.883Z</time>
      </trkpt>
      <trkpt lat="45.19472" lon="5.88997">
        <ele>981.68</ele>
        <time>2026-08-30T07:10:32.556Z</time>
      </trkpt>
      <trkpt lat="45.19458" lon="5.89015">
        <ele>985.08</ele>
        <time>2026-08-30T07:10:49.118Z</time>
      </trkpt>
      <trkpt lat="45.19443" lon="5.8903">
        <ele>987.82</ele>
        <time>2026-08-30T07:11:06.021Z</time>
      </trkpt>
      <trkpt lat="45.19429" lon="5.89046">
        <ele>992.69</ele>
        <time>2026-08-30T07:11:25.834Z</time>
      </trkpt>
      <trkpt lat="45.19418" lon="5.89067">
        <ele>996.28</ele>
        <time>2026-08-30T07:11:43.200Z</time>
      </trkpt>
      <trkpt lat="45.19404" lon="5.89084">
        <ele>1000.97</ele>
        <time>2026-08-30T07:12:03.683Z</time>
      </trkpt>
      <trkpt lat="45.19388" lon="5.89099">
        <ele>1005.97</ele>
        <time>2026-08-30T07:12:22.081Z</time>
      </trkpt>
      <trkpt lat="45.19373" lon="5.89113">
        <ele>1009.85</ele>
        <time>2026-08-30T07:12:38.944Z</time>
      </trkpt>
      <trkpt lat="45.1937" lon="5.89142">
        <ele>1013.38</ele>
        <time>2026-08-30T07:12:55.975Z</time>
      </trkpt>
      <trkpt lat="45.19356" lon="5.8916">
        <ele>1018.56</ele>
        <time>2026-08-30T07:13:16.326Z</time>
      </trkpt>
      <trkpt lat="45.19341" lon="5.89175">
        <ele>1022.06</ele>
        <time>2026-08-30T07:13:32.628Z</time>
      </trkpt>
      <trkpt lat="45.19325" lon="5.89188">
        <ele>1026.24</ele>
        <time>2026-08-30T07:13:51.232Z</time>
      </trkpt>
      <trkpt lat="45.19314" lon="5.89208">
        <ele>1029.2</ele>
        <time>2026-08-30T07:14:07.807Z</time>
      </trkpt>
      <trkpt lat="45.19298" lon="5.89219">
        <ele>1034.32</ele>
        <time>2026-08-30T07:14:27.231Z</time>
      </trkpt>
      <trkpt lat="45.19281" lon="5.89229">
        <ele>1036.67</ele>
        <time>2026-08-30T07:14:43.208Z</time>
      </trkpt>
      <trkpt lat="45.19265" lon="5.89242">
        <ele>1040.54</ele>
        <time>2026-08-30T07:15:01.206Z</time>
      </trkpt>
      <trkpt lat="45.19248" lon="5.89251">
        <ele>1043.61</ele>
        <time>2026-08-30T07:15:15.909Z</time>
      </trkpt>
      <trkpt lat="45.1923" lon="5.89258">
        <ele>1046.84</ele>
        <time>2026-08-30T07:15:33.433Z</time>
      </trkpt>
      <trkpt lat="45.19213" lon="5.89269">
        <ele>1052.83</ele>
        <time>2026-08-30T07:15:50.494Z</time>
      </trkpt>
      <trkpt lat="45.19195" lon="5.89276">
        <ele>1054.27</ele>
        <time>2026-08-30T07:16:06.168Z</time>
      </trkpt>
      <trkpt lat="45.19177" lon="5.89283">
        <ele>1055.46</ele>
        <time>2026-08-30T07:16:20.610Z</time>
      </trkpt>
      <trkpt lat="45.1916" lon="5.8929">
        <ele>1059.18</ele>
        <time>2026-08-30T07:16:37.714Z</time>
      </trkpt>
      <trkpt lat="45.19143" lon="5.89298">
        <ele>1063.09</ele>
        <time>2026-08-30T07:16:54.506Z</time>
      </trkpt>
      <trkpt lat="45.19125" lon="5.89307">
        <ele>1067.96</ele>
        <time>2026-08-30T07:17:10.290Z</time>
      </trkpt>
      <trkpt lat="45.19108" lon="5.89316">
        <ele>1068.61</ele>
        <time>2026-08-30T07:17:24.189Z</time>
      </trkpt>
      <trkpt lat="45.1909" lon="5.89322">
        <ele>1071.78</ele>
        <time>2026-08-30T07:17:37.410Z</time>
      </trkpt>
      <trkpt lat="45.19074" lon="5.89334">
        <ele>1073.33</ele>
        <time>2026-08-30T07:17:52.152Z</time>
      </trkpt>
      <trkpt lat="45.19058" lon="5.8935">
        <ele>1077.04</ele>
        <time>2026-08-30T07:18:07.533Z</time>
      </trkpt>
      <trkpt lat="45.19041" lon="5.89359">
        <ele>1079.09</ele>
        <time>2026-08-30T07:18:21.946Z</time>
      </trkpt>
      <trkpt lat="45.19023" lon="5.89365">
        <ele>1080.02</ele>
        <time>2026-08-30T07:18:35.246Z</time>
      </trkpt>
      <trkpt lat="45.19005" lon="5.89371">
        <ele>1081.65</ele>
        <time>2026-08-30T07:18:49.007Z</time>
      </trkpt>
      <trkpt lat="45.18987" lon="5.89376">
        <ele>1084.1</ele>
        <time>2026-08-30T07:19:03.107Z</time>
      </trkpt>
      <trkpt lat="45.18969" lon="5.89379">
        <ele>1086.25</ele>
        <time>2026-08-30T07:19:18.128Z</time>
      </trkpt>
      <trkpt lat="45.1895" lon="5.89381">
        <ele>1091.97</ele>
        <time>2026-08-30T07:19:34.325Z</time>
      </trkpt>
      <trkpt lat="45.18932" lon="5.89382">
        <ele>1094.9</ele>
        <time>2026-08-30T07:19:50.933Z</time>
      </trkpt>
      <trkpt lat="45.18913" lon="5.8938">
        <ele>1099.13</ele>
        <time>2026-08-30T07:20:07.646Z</time>
      </trkpt>
      <trkpt lat="45.18896" lon="5.89373">
        <ele>1100.31</ele>
        <time>2026-08-30T07:20:21.467Z</time>
      </trkpt>
      <trkpt lat="45.18877" lon="5.89377">
        <ele>1105.16</ele>
        <time>2026-08-30T07:20:38.241Z</time>
      </trkpt>
      <trkpt lat="45.18859" lon="5.89381">
        <ele>1106.69</ele>
        <time>2026-08-30T07:20:54.394Z</time>
      </trkpt>
      <trkpt lat="45.18841" lon="5.89385">
        <ele>1110.6</ele>
        <time>2026-08-30T07:21:12.827Z</time>
      </trkpt>
      <trkpt lat="45.18825" lon="5.894">
        <ele>1117.64</ele>
        <time>2026-08-30T07:21:33.198Z</time>
      </trkpt>
      <trkpt lat="45.18809" lon="5.89411">
        <ele>1117</ele>
        <time>2026-08-30T07:21:47.775Z</time>
      </trkpt>
      <trkpt lat="45.18798" lon="5.89433">
        <ele>1118.76</ele>
        <time>2026-08-30T07:22:03.567Z</time>
      </trkpt>
      <trkpt lat="45.18788" lon="5.89454">
        <ele>1119.58</ele>
        <time>2026-08-30T07:22:18.048Z</time>
      </trkpt>
      <trkpt lat="45.18778" lon="5.89477">
        <ele>1120.81</ele>
        <time>2026-08-30T07:22:31.708Z</time>
      </trkpt>
      <trkpt lat="45.18777" lon="5.89503">
        <ele>1122.6</ele>
        <time>2026-08-30T07:22:45.910Z</time>
      </trkpt>
      <trkpt lat="45.18787" lon="5.89523">
        <ele>1123.57</ele>
        <time>2026-08-30T07:22:58.289Z</time>
      </trkpt>
      <trkpt lat="45.18789" lon="5.89549">
        <ele>1122.91</ele>
        <time>2026-08-30T07:23:11.408Z</time>
      </trkpt>
      <trkpt lat="45.18783" lon="5.89573">
        <ele>1123.31</ele>
        <time>2026-08-30T07:23:24.708Z</time>
      </trkpt>
      <trkpt lat="45.18772" lon="5.89594">
        <ele>1124.52</ele>
        <time>2026-08-30T07:23:38.909Z</time>
      </trkpt>
      <trkpt lat="45.18761" lon="5.89615">
        <ele>1125.94</ele>
        <time>2026-08-30T07:23:53.131Z</time>
      </trkpt>
      <trkpt lat="45.18753" lon="5.89637">
        <ele>1125.89</ele>
        <time>2026-08-30T07:24:05.870Z</time>
      </trkpt>
      <trkpt lat="45.1874" lon="5.89657">
        <ele>1127.89</ele>
        <time>2026-08-30T07:24:19.150Z</time>
      </trkpt>
      <trkpt lat="45.1874" lon="5.89683">
        <ele>1130.48</ele>
        <time>2026-08-30T07:24:32.170Z</time>
      </trkpt>
      <trkpt lat="45.18745" lon="5.89708">
        <ele>1131.67</ele>
        <time>2026-08-30T07:24:44.090Z</time>
      </trkpt>
      <trkpt lat="45.18741" lon="5.89734">
        <ele>1134.13</ele>
        <time>2026-08-30T07:24:57.030Z</time>
      </trkpt>
      <trkpt lat="45.18735" lon="5.8976">
        <ele>1132.12</ele>
        <time>2026-08-30T07:25:10.029Z</time>
      </trkpt>
      <trkpt lat="45.18733" lon="5.89787">
        <ele>1131.79</ele>
        <time>2026-08-30T07:25:22.309Z</time>
      </trkpt>
      <trkpt lat="45.18729" lon="5.89813">
        <ele>1131.56</ele>
        <time>2026-08-30T07:25:35.402Z</time>
      </trkpt>
      <trkpt lat="45.18722" lon="5.89837">
        <ele>1133.26</ele>
        <time>2026-08-30T07:25:47.988Z</time>
      </trkpt>
      <trkpt lat="45.18714" lon="5.89861">
        <ele>1131.76</ele>
        <time>2026-08-30T07:25:59.328Z</time>
      </trkpt>
      <trkpt lat="45.18706" lon="5.89886">
        <ele>1131.87</ele>
        <time>2026-08-30T07:26:12.107Z</time>
      </trkpt>
      <trkpt lat="45.18699" lon="5.8991">
        <ele>1131.37</ele>
        <time>2026-08-30T07:26:28.550Z</time>
      </trkpt>
      <trkpt lat="45.18681" lon="5.89911">
        <ele>1133.69</ele>
        <time>2026-08-30T07:26:41.090Z</time>
      </trkpt>
      <trkpt lat="45.18692" lon="5.89932">
        <ele>1136.8</ele>
        <time>2026-08-30T07:30:00.606Z</time>
      </trkpt>
      <trkpt lat="45.18706" lon="5.89948">
        <ele>1136.8</ele>
        <time>2026-08-30T07:30:19.271Z</time>
      </trkpt>
      <trkpt lat="45.18693" lon="5.89966">
        <ele>1136.8</ele>
        <time>2026-08-30T07:30:30.509Z</time>
      </trkpt>
      <trkpt lat="45.18692" lon="5.89992">
        <ele>1140.71</ele>
        <time>2026-08-30T07:30:45.410Z</time>
      </trkpt>
      <trkpt lat="45.18688" lon="5.90017">
        <ele>1142.41</ele>
        <time>2026-08-30T07:31:00.252Z</time>
      </trkpt>
      <trkpt lat="45.18684" lon="5.90043">
        <ele>1144.09</ele>
        <time>2026-08-30T07:31:13.349Z</time>
      </trkpt>
      <trkpt lat="45.18678" lon="5.90067">
        <ele>1145.94</ele>
        <time>2026-08-30T07:31:29.005Z</time>
      </trkpt>
      <trkpt lat="45.1866" lon="5.90075">
        <ele>1148.58</ele>
        <time>2026-08-30T07:31:44.126Z</time>
      </trkpt>
      <trkpt lat="45.18646" lon="5.90091">
        <ele>1149.67</ele>
        <time>2026-08-30T07:31:55.986Z</time>
      </trkpt>
      <trkpt lat="45.18637" lon="5.90113">
        <ele>1151.15</ele>
        <time>2026-08-30T07:32:09.626Z</time>
      </trkpt>
      <trkpt lat="45.18637" lon="5.90139">
        <ele>1153.48</ele>
        <time>2026-08-30T07:32:24.066Z</time>
      </trkpt>
      <trkpt lat="45.18637" lon="5.90165">
        <ele>1156</ele>
        <time>2026-08-30T07:32:38.328Z</time>
      </trkpt>
      <trkpt lat="45.18645" lon="5.90188">
        <ele>1157.78</ele>
        <time>2026-08-30T07:32:51.267Z</time>
      </trkpt>
      <trkpt lat="45.18649" lon="5.90214">
        <ele>1159.26</ele>
        <time>2026-08-30T07:33:04.137Z</time>
      </trkpt>
      <trkpt lat="45.18653" lon="5.90238">
        <ele>1161.29</ele>
        <time>2026-08-30T07:33:17.869Z</time>
      </trkpt>
      <trkpt lat="45.18657" lon="5.90263">
        <ele>1163.86</ele>
        <time>2026-08-30T07:33:31.649Z</time>
      </trkpt>
      <trkpt lat="45.18655" lon="5.9029">
        <ele>1166.87</ele>
        <time>2026-08-30T07:33:49.092Z</time>
      </trkpt>
      <trkpt lat="45.18651" lon="5.90315">
        <ele>1169.1</ele>
        <time>2026-08-30T07:34:02.473Z</time>
      </trkpt>
      <trkpt lat="45.18646" lon="5.9034">
        <ele>1171.73</ele>
        <time>2026-08-30T07:34:18.965Z</time>
      </trkpt>
      <trkpt lat="45.1864" lon="5.90365">
        <ele>1176.25</ele>
        <time>2026-08-30T07:34:39.131Z</time>
      </trkpt>
      <trkpt lat="45.18634" lon="5.90389">
        <ele>1180.12</ele>
        <time>2026-08-30T07:34:56.933Z</time>
      </trkpt>
      <trkpt lat="45.1863" lon="5.90414">
        <ele>1183.71</ele>
        <time>2026-08-30T07:35:16.468Z</time>
      </trkpt>
      <trkpt lat="45.18621" lon="5.90436">
        <ele>1188.12</ele>
        <time>2026-08-30T07:35:36.093Z</time>
      </trkpt>
      <trkpt lat="45.18604" lon="5.90448">
        <ele>1195.47</ele>
        <time>2026-08-30T07:35:58.451Z</time>
      </trkpt>
      <trkpt lat="45.18594" lon="5.90469">
        <ele>1198.06</ele>
        <time>2026-08-30T07:36:14.151Z</time>
      </trkpt>
      <trkpt lat="45.18599" lon="5.90494">
        <ele>1199.34</ele>
        <time>2026-08-30T07:36:27.813Z</time>
      </trkpt>
      <trkpt lat="45.1859" lon="5.90517">
        <ele>1202.79</ele>
        <time>2026-08-30T07:36:42.665Z</time>
      </trkpt>
      <trkpt lat="45.18579" lon="5.90538">
        <ele>1204.67</ele>
        <time>2026-08-30T07:36:58.087Z</time>
      </trkpt>
      <trkpt lat="45.18563" lon="5.90551">
        <ele>1207.64</ele>
        <time>2026-08-30T07:37:14.929Z</time>
      </trkpt>
      <trkpt lat="45.18548" lon="5.90566">
        <ele>1210.52</ele>
        <time>2026-08-30T07:37:31.012Z</time>
      </trkpt>
      <trkpt lat="45.18532" lon="5.90579">
        <ele>1214.64</ele>
        <time>2026-08-30T07:37:47.824Z</time>
      </trkpt>
      <trkpt lat="45.18516" lon="5.9059">
        <ele>1218.32</ele>
        <time>2026-08-30T07:38:07.211Z</time>
      </trkpt>
      <trkpt lat="45.18499" lon="5.90602">
        <ele>1222.63</ele>
        <time>2026-08-30T07:38:25.614Z</time>
      </trkpt>
      <trkpt lat="45.18484" lon="5.90616">
        <ele>1227.97</ele>
        <time>2026-08-30T07:38:43.627Z</time>
      </trkpt>
      <trkpt lat="45.18468" lon="5.90629">
        <ele>1232.18</ele>
        <time>2026-08-30T07:39:01.470Z</time>
      </trkpt>
      <trkpt lat="45.18452" lon="5.90641">
        <ele>1236.52</ele>
        <time>2026-08-30T07:39:17.533Z</time>
      </trkpt>
      <trkpt lat="45.18443" lon="5.90663">
        <ele>1238.16</ele>
        <time>2026-08-30T07:39:30.753Z</time>
      </trkpt>
      <trkpt lat="45.18434" lon="5.90685">
        <ele>1238.9</ele>
        <time>2026-08-30T07:39:43.692Z</time>
      </trkpt>
      <trkpt lat="45.18423" lon="5.90705">
        <ele>1240.59</ele>
        <time>2026-08-30T07:39:58.614Z</time>
      </trkpt>
      <trkpt lat="45.1843" lon="5.90729">
        <ele>1243.32</ele>
        <time>2026-08-30T07:40:14.685Z</time>
      </trkpt>
      <trkpt lat="45.18443" lon="5.90747">
        <ele>1248.91</ele>
        <time>2026-08-30T07:40:31.242Z</time>
      </trkpt>
      <trkpt lat="45.18458" lon="5.90763">
        <ele>1250.67</ele>
        <time>2026-08-30T07:40:46.951Z</time>
      </trkpt>
      <trkpt lat="45.18472" lon="5.90778">
        <ele>1254.1</ele>
        <time>2026-08-30T07:41:02.033Z</time>
      </trkpt>
      <trkpt lat="45.18486" lon="5.90795">
        <ele>1259.29</ele>
        <time>2026-08-30T07:41:20.087Z</time>
      </trkpt>
      <trkpt lat="45.18503" lon="5.90808">
        <ele>1263.61</ele>
        <time>2026-08-30T07:41:39.297Z</time>
      </trkpt>
      <trkpt lat="45.18517" lon="5.90823">
        <ele>1267.01</ele>
        <time>2026-08-30T07:41:56.915Z</time>
      </trkpt>
      <trkpt lat="45.18528" lon="5.90844">
        <ele>1270.98</ele>
        <time>2026-08-30T07:42:16.669Z</time>
      </trkpt>
      <trkpt lat="45.18543" lon="5.90861">
        <ele>1274.85</ele>
        <time>2026-08-30T07:42:32.791Z</time>
      </trkpt>
      <trkpt lat="45.18557" lon="5.90879">
        <ele>1278.75</ele>
        <time>2026-08-30T07:42:50.024Z</time>
      </trkpt>
      <trkpt lat="45.18572" lon="5.90894">
        <ele>1284.43</ele>
        <time>2026-08-30T07:43:11.151Z</time>
      </trkpt>
      <trkpt lat="45.18586" lon="5.9091">
        <ele>1288.51</ele>
        <time>2026-08-30T07:43:28.433Z</time>
      </trkpt>
      <trkpt lat="45.18595" lon="5.90933">
        <ele>1291.13</ele>
        <time>2026-08-30T07:43:45.626Z</time>
      </trkpt>
      <trkpt lat="45.18609" lon="5.90949">
        <ele>1295.07</ele>
        <time>2026-08-30T07:44:04.126Z</time>
      </trkpt>
      <trkpt lat="45.18622" lon="5.90968">
        <ele>1298.92</ele>
        <time>2026-08-30T07:44:21.975Z</time>
      </trkpt>
      <trkpt lat="45.18632" lon="5.9099">
        <ele>1303.57</ele>
        <time>2026-08-30T07:44:39.187Z</time>
      </trkpt>
      <trkpt lat="45.18642" lon="5.91011">
        <ele>1308.3</ele>
        <time>2026-08-30T07:44:59.773Z</time>
      </trkpt>
      <trkpt lat="45.18657" lon="5.91027">
        <ele>1312.16</ele>
        <time>2026-08-30T07:45:18.067Z</time>
      </trkpt>
      <trkpt lat="45.18668" lon="5.91048">
        <ele>1317.13</ele>
        <time>2026-08-30T07:45:36.650Z</time>
      </trkpt>
      <trkpt lat="45.18679" lon="5.91069">
        <ele>1321.12</ele>
        <time>2026-08-30T07:45:54.944Z</time>
      </trkpt>
      <trkpt lat="45.18694" lon="5.91085">
        <ele>1325.09</ele>
        <time>2026-08-30T07:46:12.388Z</time>
      </trkpt>
      <trkpt lat="45.18708" lon="5.91104">
        <ele>1330.24</ele>
        <time>2026-08-30T07:46:31.972Z</time>
      </trkpt>
      <trkpt lat="45.18725" lon="5.91112">
        <ele>1333.87</ele>
        <time>2026-08-30T07:46:50.526Z</time>
      </trkpt>
      <trkpt lat="45.18744" lon="5.91112">
        <ele>1338.15</ele>
        <time>2026-08-30T07:47:08.951Z</time>
      </trkpt>
      <trkpt lat="45.18762" lon="5.91112">
        <ele>1342.76</ele>
        <time>2026-08-30T07:47:27.825Z</time>
      </trkpt>
      <trkpt lat="45.1878" lon="5.91116">
        <ele>1346.39</ele>
        <time>2026-08-30T07:47:45.273Z</time>
      </trkpt>
      <trkpt lat="45.18789" lon="5.91138">
        <ele>1350.48</ele>
        <time>2026-08-30T07:48:04.372Z</time>
      </trkpt>
      <trkpt lat="45.18788" lon="5.91164">
        <ele>1355.46</ele>
        <time>2026-08-30T07:48:24.127Z</time>
      </trkpt>
      <trkpt lat="45.18771" lon="5.91167">
        <ele>1359.9</ele>
        <time>2026-08-30T07:48:40.209Z</time>
      </trkpt>
      <trkpt lat="45.18758" lon="5.91186">
        <ele>1363.69</ele>
        <time>2026-08-30T07:48:56.772Z</time>
      </trkpt>
      <trkpt lat="45.18744" lon="5.91203">
        <ele>1367.66</ele>
        <time>2026-08-30T07:49:14.686Z</time>
      </trkpt>
      <trkpt lat="45.18733" lon="5.91225">
        <ele>1370.99</ele>
        <time>2026-08-30T07:49:31.368Z</time>
      </trkpt>
      <trkpt lat="45.1872" lon="5.91243">
        <ele>1373.2</ele>
        <time>2026-08-30T07:49:45.490Z</time>
      </trkpt>
      <trkpt lat="45.18707" lon="5.91261">
        <ele>1375.06</ele>
        <time>2026-08-30T07:49:58.609Z</time>
      </trkpt>
      <trkpt lat="45.18697" lon="5.91284">
        <ele>1374.01</ele>
        <time>2026-08-30T07:50:11.870Z</time>
      </trkpt>
      <trkpt lat="45.18682" lon="5.913">
        <ele>1376.08</ele>
        <time>2026-08-30T07:50:26.315Z</time>
      </trkpt>
      <trkpt lat="45.18664" lon="5.91299">
        <ele>1375.07</ele>
        <time>2026-08-30T07:50:39.831Z</time>
      </trkpt>
      <trkpt lat="45.18645" lon="5.91298">
        <ele>1381.08</ele>
        <time>2026-08-30T07:50:55.231Z</time>
      </trkpt>
      <trkpt lat="45.18627" lon="5.91303">
        <ele>1383.51</ele>
        <time>2026-08-30T07:51:10.825Z</time>
      </trkpt>
      <trkpt lat="45.18608" lon="5.91299">
        <ele>1386.39</ele>
        <time>2026-08-30T07:51:25.626Z</time>
      </trkpt>
      <trkpt lat="45.1859" lon="5.91304">
        <ele>1387.54</ele>
        <time>2026-08-30T07:51:39.926Z</time>
      </trkpt>
      <trkpt lat="45.18575" lon="5.91318">
        <ele>1389.6</ele>
        <time>2026-08-30T07:51:53.928Z</time>
      </trkpt>
      <trkpt lat="45.18561" lon="5.91335">
        <ele>1393.09</ele>
        <time>2026-08-30T07:52:09.090Z</time>
      </trkpt>
      <trkpt lat="45.18547" lon="5.91352">
        <ele>1396.24</ele>
        <time>2026-08-30T07:52:27.252Z</time>
      </trkpt>
      <trkpt lat="45.18528" lon="5.9136">
        <ele>1401.35</ele>
        <time>2026-08-30T07:52:45.646Z</time>
      </trkpt>
      <trkpt lat="45.18514" lon="5.91375">
        <ele>1403.74</ele>
        <time>2026-08-30T07:53:07.168Z</time>
      </trkpt>
      <trkpt lat="45.18497" lon="5.91385">
        <ele>1410.56</ele>
        <time>2026-08-30T07:53:28.049Z</time>
      </trkpt>
      <trkpt lat="45.1848" lon="5.91374">
        <ele>1414.32</ele>
        <time>2026-08-30T07:53:46.507Z</time>
      </trkpt>
      <trkpt lat="45.18462" lon="5.91367">
        <ele>1418.07</ele>
        <time>2026-08-30T07:54:02.124Z</time>
      </trkpt>
      <trkpt lat="45.18444" lon="5.91371">
        <ele>1421.62</ele>
        <time>2026-08-30T07:54:17.307Z</time>
      </trkpt>
      <trkpt lat="45.18426" lon="5.91372">
        <ele>1424.68</ele>
        <time>2026-08-30T07:54:35.009Z</time>
      </trkpt>
      <trkpt lat="45.18408" lon="5.91377">
        <ele>1429.96</ele>
        <time>2026-08-30T07:54:54.966Z</time>
      </trkpt>
      <trkpt lat="45.1839" lon="5.91382">
        <ele>1433.47</ele>
        <time>2026-08-30T07:55:13.305Z</time>
      </trkpt>
      <trkpt lat="45.18371" lon="5.91387">
        <ele>1438.2</ele>
        <time>2026-08-30T07:55:33.705Z</time>
      </trkpt>
      <trkpt lat="45.18354" lon="5.91394">
        <ele>1443.38</ele>
        <time>2026-08-30T07:55:51.627Z</time>
      </trkpt>
      <trkpt lat="45.18337" lon="5.91402">
        <ele>1447.7</ele>
        <time>2026-08-30T07:56:12.210Z</time>
      </trkpt>
      <trkpt lat="45.1832" lon="5.91412">
        <ele>1450.11</ele>
        <time>2026-08-30T07:56:30.467Z</time>
      </trkpt>
      <trkpt lat="45.18302" lon="5.91417">
        <ele>1454.7</ele>
        <time>2026-08-30T07:56:49.111Z</time>
      </trkpt>
      <trkpt lat="45.18283" lon="5.91415">
        <ele>1458.51</ele>
        <time>2026-08-30T07:57:07.785Z</time>
      </trkpt>
      <trkpt lat="45.18265" lon="5.91419">
        <ele>1462.91</ele>
        <time>2026-08-30T07:57:25.630Z</time>
      </trkpt>
      <trkpt lat="45.18247" lon="5.91426">
        <ele>1466.96</ele>
        <time>2026-08-30T07:57:42.311Z</time>
      </trkpt>
      <trkpt lat="45.18229" lon="5.9143">
        <ele>1471</ele>
        <time>2026-08-30T07:58:01.307Z</time>
      </trkpt>
      <trkpt lat="45.18211" lon="5.91436">
        <ele>1474.55</ele>
        <time>2026-08-30T07:58:18.770Z</time>
      </trkpt>
      <trkpt lat="45.18195" lon="5.91448">
        <ele>1478.64</ele>
        <time>2026-08-30T07:58:36.383Z</time>
      </trkpt>
      <trkpt lat="45.18178" lon="5.91458">
        <ele>1483.31</ele>
        <time>2026-08-30T07:58:52.906Z</time>
      </trkpt>
      <trkpt lat="45.1816" lon="5.9146">
        <ele>1485.56</ele>
        <time>2026-08-30T07:59:09.047Z</time>
      </trkpt>
      <trkpt lat="45.18142" lon="5.91466">
        <ele>1489.9</ele>
        <time>2026-08-30T07:59:32.264Z</time>
      </trkpt>
      <trkpt lat="45.18125" lon="5.91474">
        <ele>1494.64</ele>
        <time>2026-08-30T07:59:50.909Z</time>
      </trkpt>
      <trkpt lat="45.18118" lon="5.91498">
        <ele>1497.53</ele>
        <time>2026-08-30T08:00:06.730Z</time>
      </trkpt>
      <trkpt lat="45.18125" lon="5.91522">
        <ele>1499.93</ele>
        <time>2026-08-30T08:00:21.653Z</time>
      </trkpt>
      <trkpt lat="45.18124" lon="5.91549">
        <ele>1501.14</ele>
        <time>2026-08-30T08:00:35.833Z</time>
      </trkpt>
      <trkpt lat="45.18113" lon="5.91568">
        <ele>1502.75</ele>
        <time>2026-08-30T08:00:50.055Z</time>
      </trkpt>
      <trkpt lat="45.18095" lon="5.91573">
        <ele>1505.48</ele>
        <time>2026-08-30T08:01:03.094Z</time>
      </trkpt>
      <trkpt lat="45.18076" lon="5.91575">
        <ele>1506.77</ele>
        <time>2026-08-30T08:01:15.774Z</time>
      </trkpt>
      <trkpt lat="45.18059" lon="5.91582">
        <ele>1507.87</ele>
        <time>2026-08-30T08:01:27.672Z</time>
      </trkpt>
      <trkpt lat="45.18041" lon="5.91587">
        <ele>1509.67</ele>
        <time>2026-08-30T08:01:39.551Z</time>
      </trkpt>
      <trkpt lat="45.18023" lon="5.91585">
        <ele>1510.26</ele>
        <time>2026-08-30T08:01:51.991Z</time>
      </trkpt>
      <trkpt lat="45.18004" lon="5.91582">
        <ele>1511.5</ele>
        <time>2026-08-30T08:02:06.269Z</time>
      </trkpt>
      <trkpt lat="45.17986" lon="5.91586">
        <ele>1514.81</ele>
        <time>2026-08-30T08:02:21.333Z</time>
      </trkpt>
      <trkpt lat="45.17968" lon="5.91587">
        <ele>1518.65</ele>
        <time>2026-08-30T08:02:38.926Z</time>
      </trkpt>
      <trkpt lat="45.1795" lon="5.91592">
        <ele>1523.31</ele>
        <time>2026-08-30T08:02:59.833Z</time>
      </trkpt>
      <trkpt lat="45.17933" lon="5.91602">
        <ele>1527.51</ele>
        <time>2026-08-30T08:03:17.167Z</time>
      </trkpt>
      <trkpt lat="45.17914" lon="5.91603">
        <ele>1531.51</ele>
        <time>2026-08-30T08:03:35.190Z</time>
      </trkpt>
      <trkpt lat="45.17897" lon="5.9161">
        <ele>1534.82</ele>
        <time>2026-08-30T08:03:52.733Z</time>
      </trkpt>
      <trkpt lat="45.17879" lon="5.91618">
        <ele>1539.82</ele>
        <time>2026-08-30T08:04:11.908Z</time>
      </trkpt>
      <trkpt lat="45.17864" lon="5.91633">
        <ele>1543.83</ele>
        <time>2026-08-30T08:04:31.072Z</time>
      </trkpt>
      <trkpt lat="45.17848" lon="5.91646">
        <ele>1548.1</ele>
        <time>2026-08-30T08:04:50.547Z</time>
      </trkpt>
      <trkpt lat="45.1783" lon="5.91652">
        <ele>1553.56</ele>
        <time>2026-08-30T08:05:09.071Z</time>
      </trkpt>
      <trkpt lat="45.17814" lon="5.91663">
        <ele>1556.73</ele>
        <time>2026-08-30T08:05:27.164Z</time>
      </trkpt>
      <trkpt lat="45.1782" lon="5.91687">
        <ele>1567.66</ele>
        <time>2026-08-30T08:06:10.026Z</time>
      </trkpt>
      <trkpt lat="45.17837" lon="5.91696">
        <ele>1571.38</ele>
        <time>2026-08-30T08:06:30.752Z</time>
      </trkpt>
      <trkpt lat="45.17821" lon="5.91706">
        <ele>1578.87</ele>
        <time>2026-08-30T08:07:04.728Z</time>
      </trkpt>
      <trkpt lat="45.17804" lon="5.91716">
        <ele>1581.95</ele>
        <time>2026-08-30T08:07:22.612Z</time>
      </trkpt>
      <trkpt lat="45.17786" lon="5.91724">
        <ele>1586.29</ele>
        <time>2026-08-30T08:07:43.947Z</time>
      </trkpt>
      <trkpt lat="45.1777" lon="5.91735">
        <ele>1591.02</ele>
        <time>2026-08-30T08:08:02.592Z</time>
      </trkpt>
      <trkpt lat="45.17752" lon="5.91743">
        <ele>1596.69</ele>
        <time>2026-08-30T08:08:28.811Z</time>
      </trkpt>
      <trkpt lat="45.17766" lon="5.91758">
        <ele>1601.09</ele>
        <time>2026-08-30T08:08:52.970Z</time>
      </trkpt>
      <trkpt lat="45.17783" lon="5.91769">
        <ele>1606.41</ele>
        <time>2026-08-30T08:09:17.949Z</time>
      </trkpt>
      <trkpt lat="45.17801" lon="5.91776">
        <ele>1610.89</ele>
        <time>2026-08-30T08:09:38.994Z</time>
      </trkpt>
      <trkpt lat="45.17787" lon="5.91794">
        <ele>1619.36</ele>
        <time>2026-08-30T08:10:19.417Z</time>
      </trkpt>
      <trkpt lat="45.17769" lon="5.91794">
        <ele>1622.57</ele>
        <time>2026-08-30T08:10:38.109Z</time>
      </trkpt>
      <trkpt lat="45.17781" lon="5.91813">
        <ele>1629.07</ele>
        <time>2026-08-30T08:11:03.086Z</time>
      </trkpt>
      <trkpt lat="45.17764" lon="5.91823">
        <ele>1636.47</ele>
        <time>2026-08-30T08:11:39.054Z</time>
      </trkpt>
      <trkpt lat="45.1777" lon="5.91847">
        <ele>1643.35</ele>
        <time>2026-08-30T08:12:15.131Z</time>
      </trkpt>
      <trkpt lat="45.17752" lon="5.91845">
        <ele>1646</ele>
        <time>2026-08-30T08:12:29.811Z</time>
      </trkpt>
      <trkpt lat="45.17734" lon="5.9185">
        <ele>1648.74</ele>
        <time>2026-08-30T08:12:45.795Z</time>
      </trkpt>
      <trkpt lat="45.17717" lon="5.91861">
        <ele>1651.58</ele>
        <time>2026-08-30T08:13:02.807Z</time>
      </trkpt>
      <trkpt lat="45.17733" lon="5.91872">
        <ele>1656.91</ele>
        <time>2026-08-30T08:13:26.185Z</time>
      </trkpt>
      <trkpt lat="45.1772" lon="5.91892">
        <ele>1660.83</ele>
        <time>2026-08-30T08:13:46.910Z</time>
      </trkpt>
      <trkpt lat="45.17701" lon="5.91895">
        <ele>1664.7</ele>
        <time>2026-08-30T08:14:03.362Z</time>
      </trkpt>
      <trkpt lat="45.17712" lon="5.91916">
        <ele>1669.64</ele>
        <time>2026-08-30T08:14:29.792Z</time>
      </trkpt>
      <trkpt lat="45.17705" lon="5.9194">
        <ele>1672.11</ele>
        <time>2026-08-30T08:14:45.744Z</time>
      </trkpt>
      <trkpt lat="45.1769" lon="5.91956">
        <ele>1680.94</ele>
        <time>2026-08-30T08:15:27.165Z</time>
      </trkpt>
      <trkpt lat="45.17673" lon="5.91965">
        <ele>1689.54</ele>
        <time>2026-08-30T08:16:01.112Z</time>
      </trkpt>
      <trkpt lat="45.17657" lon="5.91977">
        <ele>1696.18</ele>
        <time>2026-08-30T08:16:30.654Z</time>
      </trkpt>
      <trkpt lat="45.1764" lon="5.91987">
        <ele>1705.88</ele>
        <time>2026-08-30T08:17:04.327Z</time>
      </trkpt>
      <trkpt lat="45.17622" lon="5.91988">
        <ele>1712.25</ele>
        <time>2026-08-30T08:17:30.306Z</time>
      </trkpt>
      <trkpt lat="45.17607" lon="5.92003">
        <ele>1721.01</ele>
        <time>2026-08-30T08:18:04.986Z</time>
      </trkpt>
      <trkpt lat="45.17589" lon="5.92011">
        <ele>1725.84</ele>
        <time>2026-08-30T08:18:33.226Z</time>
      </trkpt>
      <trkpt lat="45.17572" lon="5.92018">
        <ele>1733.89</ele>
        <time>2026-08-30T08:19:01.428Z</time>
      </trkpt>
      <trkpt lat="45.17555" lon="5.92026">
        <ele>1742.64</ele>
        <time>2026-08-30T08:19:35.154Z</time>
      </trkpt>
      <trkpt lat="45.17537" lon="5.92031">
        <ele>1749.49</ele>
        <time>2026-08-30T08:20:04.374Z</time>
      </trkpt>
      <trkpt lat="45.17524" lon="5.92049">
        <ele>1757.49</ele>
        <time>2026-08-30T08:20:34.988Z</time>
      </trkpt>
      <trkpt lat="45.17506" lon="5.92055">
        <ele>1763.29</ele>
        <time>2026-08-30T08:21:07.504Z</time>
      </trkpt>
      <trkpt lat="45.17495" lon="5.92076">
        <ele>1773.51</ele>
        <time>2026-08-30T08:21:44.178Z</time>
      </trkpt>
      <trkpt lat="45.17478" lon="5.92085">
        <ele>1784.12</ele>
        <time>2026-08-30T08:22:32.988Z</time>
      </trkpt>
      <trkpt lat="45.17461" lon="5.92094">
        <ele>1796.3</ele>
        <time>2026-08-30T08:23:15.329Z</time>
      </trkpt>
      <trkpt lat="45.17444" lon="5.92105">
        <ele>1808.16</ele>
        <time>2026-08-30T08:24:09.273Z</time>
      </trkpt>
      <trkpt lat="45.17426" lon="5.92107">
        <ele>1819.89</ele>
        <time>2026-08-30T08:25:06.647Z</time>
      </trkpt>
      <trkpt lat="45.17409" lon="5.92116">
        <ele>1833.34</ele>
        <time>2026-08-30T08:26:08.295Z</time>
      </trkpt>
      <trkpt lat="45.17394" lon="5.92132">
        <ele>1842.92</ele>
        <time>2026-08-30T08:26:50.726Z</time>
      </trkpt>
      <trkpt lat="45.17382" lon="5.92151">
        <ele>1850.61</ele>
        <time>2026-08-30T08:27:17.890Z</time>
      </trkpt>
      <trkpt lat="45.17367" lon="5.92168">
        <ele>1861.72</ele>
        <time>2026-08-30T08:28:04.461Z</time>
      </trkpt>
      <trkpt lat="45.17351" lon="5.9218">
        <ele>1867.86</ele>
        <time>2026-08-30T08:28:34.351Z</time>
      </trkpt>
      <trkpt lat="45.17333" lon="5.92189">
        <ele>1869.38</ele>
        <time>2026-08-30T08:30:32.888Z</time>
      </trkpt>
      <trkpt lat="45.17314" lon="5.92187">
        <ele>1875.2</ele>
        <time>2026-08-30T08:31:18.354Z</time>
      </trkpt>
      <trkpt lat="45.17297" lon="5.92182">
        <ele>1891.19</ele>
        <time>2026-08-30T08:32:34.287Z</time>
      </trkpt>
      <trkpt lat="45.17281" lon="5.92197">
        <ele>1901.16</ele>
        <time>2026-08-30T08:33:30.402Z</time>
      </trkpt>
      <trkpt lat="45.17268" lon="5.92214">
        <ele>1904.69</ele>
        <time>2026-08-30T08:33:51.213Z</time>
      </trkpt>
      <trkpt lat="45.17251" lon="5.92226">
        <ele>1914.94</ele>
        <time>2026-08-30T08:34:31.628Z</time>
      </trkpt>
      <trkpt lat="45.17236" lon="5.9224">
        <ele>1923.47</ele>
        <time>2026-08-30T08:36:22.071Z</time>
      </trkpt>
      <trkpt lat="45.17218" lon="5.92248">
        <ele>1927.11</ele>
        <time>2026-08-30T08:36:46.172Z</time>
      </trkpt>
      <trkpt lat="45.172" lon="5.92246">
        <ele>1934.61</ele>
        <time>2026-08-30T08:37:16.787Z</time>
      </trkpt>
      <trkpt lat="45.17182" lon="5.92249">
        <ele>1943.92</ele>
        <time>2026-08-30T08:38:02.415Z</time>
      </trkpt>
      <trkpt lat="45.17164" lon="5.92254">
        <ele>1949.57</ele>
        <time>2026-08-30T08:38:39.747Z</time>
      </trkpt>
      <trkpt lat="45.17147" lon="5.92258">
        <ele>1957.59</ele>
        <time>2026-08-30T08:39:29.369Z</time>
      </trkpt>
      <trkpt lat="45.17131" lon="5.92271">
        <ele>1970.82</ele>
        <time>2026-08-30T08:40:15.457Z</time>
      </trkpt>
      <trkpt lat="45.17114" lon="5.92279">
        <ele>1983.17</ele>
        <time>2026-08-30T08:41:07.355Z</time>
      </trkpt>
      <trkpt lat="45.17107" lon="5.92304">
        <ele>1987.96</ele>
        <time>2026-08-30T08:41:48.383Z</time>
      </trkpt>
      <trkpt lat="45.17091" lon="5.92317">
        <ele>1996.04</ele>
        <time>2026-08-30T08:42:23.926Z</time>
      </trkpt>
      <trkpt lat="45.17073" lon="5.92313">
        <ele>2006.86</ele>
        <time>2026-08-30T08:43:05.262Z</time>
      </trkpt>
      <trkpt lat="45.17056" lon="5.92322">
        <ele>2011.92</ele>
        <time>2026-08-30T08:43:33.644Z</time>
      </trkpt>
      <trkpt lat="45.17038" lon="5.92317">
        <ele>2017.82</ele>
        <time>2026-08-30T08:43:59.968Z</time>
      </trkpt>
      <trkpt lat="45.17031" lon="5.92342">
        <ele>2028.6</ele>
        <time>2026-08-30T08:44:41.431Z</time>
      </trkpt>
      <trkpt lat="45.17019" lon="5.9236">
        <ele>2031.1</ele>
        <time>2026-08-30T08:45:09.774Z</time>
      </trkpt>
      <trkpt lat="45.17009" lon="5.92382">
        <ele>2039.58</ele>
        <time>2026-08-30T08:46:00.610Z</time>
      </trkpt>
      <trkpt lat="45.16991" lon="5.92387">
        <ele>2045.49</ele>
        <time>2026-08-30T08:46:30.885Z</time>
      </trkpt>
      <trkpt lat="45.16973" lon="5.92382">
        <ele>2053.38</ele>
        <time>2026-08-30T08:47:19.646Z</time>
      </trkpt>
      <trkpt lat="45.16958" lon="5.92397">
        <ele>2064.95</ele>
        <time>2026-08-30T08:48:18.349Z</time>
      </trkpt>
      <trkpt lat="45.1694" lon="5.92399">
        <ele>2068.28</ele>
        <time>2026-08-30T08:48:43.689Z</time>
      </trkpt>
      <trkpt lat="45.16922" lon="5.92401">
        <ele>2074.76</ele>
        <time>2026-08-30T08:49:14.326Z</time>
      </trkpt>
      <trkpt lat="45.16906" lon="5.92413">
        <ele>2079.19</ele>
        <time>2026-08-30T08:49:38.317Z</time>
      </trkpt>
      <trkpt lat="45.16887" lon="5.92417">
        <ele>2081.07</ele>
        <time>2026-08-30T08:49:54.343Z</time>
      </trkpt>
      <trkpt lat="45.1687" lon="5.92427">
        <ele>2087.95</ele>
        <time>2026-08-30T08:50:20.793Z</time>
      </trkpt>
      <trkpt lat="45.16852" lon="5.92428">
        <ele>2093.69</ele>
        <time>2026-08-30T08:50:45.395Z</time>
      </trkpt>
      <trkpt lat="45.16834" lon="5.92422">
        <ele>2101.26</ele>
        <time>2026-08-30T08:51:17.111Z</time>
      </trkpt>
      <trkpt lat="45.16818" lon="5.92411">
        <ele>2113.5</ele>
        <time>2026-08-30T08:52:01.709Z</time>
      </trkpt>
      <trkpt lat="45.16799" lon="5.92414">
        <ele>2113.37</ele>
        <time>2026-08-30T08:53:15.176Z</time>
      </trkpt>
      <trkpt lat="45.16781" lon="5.92423">
        <ele>2122.05</ele>
        <time>2026-08-30T08:53:58.051Z</time>
      </trkpt>
      <trkpt lat="45.16763" lon="5.92425">
        <ele>2132.21</ele>
        <time>2026-08-30T08:54:38.912Z</time>
      </trkpt>
      <trkpt lat="45.16745" lon="5.92419">
        <ele>2138.31</ele>
        <time>2026-08-30T08:55:25.586Z</time>
      </trkpt>
      <trkpt lat="45.16731" lon="5.92435">
        <ele>2150.86</ele>
        <time>2026-08-30T08:56:12.091Z</time>
      </trkpt>
      <trkpt lat="45.16716" lon="5.92451">
        <ele>2159.06</ele>
        <time>2026-08-30T08:56:48.855Z</time>
      </trkpt>
      <trkpt lat="45.16699" lon="5.92458">
        <ele>2175.25</ele>
        <time>2026-08-30T08:58:00.270Z</time>
      </trkpt>
      <trkpt lat="45.16685" lon="5.92474">
        <ele>2192.3</ele>
        <time>2026-08-30T08:59:27.227Z</time>
      </trkpt>
      <trkpt lat="45.16682" lon="5.92499">
        <ele>2209.06</ele>
        <time>2026-08-30T09:00:29.973Z</time>
      </trkpt>
      <trkpt lat="45.16683" lon="5.92524">
        <ele>2224.75</ele>
        <time>2026-08-30T09:01:59.285Z</time>
      </trkpt>
      <trkpt lat="45.16665" lon="5.9252">
        <ele>2240.64</ele>
        <time>2026-08-30T09:03:03.354Z</time>
      </trkpt>
      <trkpt lat="45.16648" lon="5.92528">
        <ele>2249.69</ele>
        <time>2026-08-30T09:03:40.266Z</time>
      </trkpt>
      <trkpt lat="45.1663" lon="5.92527">
        <ele>2255.17</ele>
        <time>2026-08-30T09:04:07.950Z</time>
      </trkpt>
      <trkpt lat="45.16613" lon="5.92518">
        <ele>2264.62</ele>
        <time>2026-08-30T09:04:40.256Z</time>
      </trkpt>
      <trkpt lat="45.16597" lon="5.92505">
        <ele>2270.23</ele>
        <time>2026-08-30T09:05:05.530Z</time>
      </trkpt>
      <trkpt lat="45.16584" lon="5.92487">
        <ele>2276.88</ele>
        <time>2026-08-30T09:05:44.171Z</time>
      </trkpt>
      <trkpt lat="45.16566" lon="5.92479">
        <ele>2290.55</ele>
        <time>2026-08-30T09:06:49.397Z</time>
      </trkpt>
      <trkpt lat="45.16558" lon="5.92501">
        <ele>2302.74</ele>
        <time>2026-08-30T09:07:44.032Z</time>
      </trkpt>
      <trkpt lat="45.16563" lon="5.92525">
        <ele>2310.8</ele>
        <time>2026-08-30T09:08:20.514Z</time>
      </trkpt>
      <trkpt lat="45.16553" lon="5.92547">
        <ele>2320.49</ele>
        <time>2026-08-30T09:09:11.465Z</time>
      </trkpt>
      <trkpt lat="45.16535" lon="5.92552">
        <ele>2332.31</ele>
        <time>2026-08-30T09:10:04.153Z</time>
      </trkpt>
      <trkpt lat="45.16521" lon="5.92568">
        <ele>2343.27</ele>
        <time>2026-08-30T09:10:53.816Z</time>
      </trkpt>
      <trkpt lat="45.16503" lon="5.92575">
        <ele>2349.47</ele>
        <time>2026-08-30T09:11:34.358Z</time>
      </trkpt>
      <trkpt lat="45.16487" lon="5.92586">
        <ele>2355.56</ele>
        <time>2026-08-30T09:11:58.429Z</time>
      </trkpt>
      <trkpt lat="45.16472" lon="5.92602">
        <ele>2362.68</ele>
        <time>2026-08-30T09:12:27.027Z</time>
      </trkpt>
      <trkpt lat="45.16459" lon="5.92621">
        <ele>2366.83</ele>
        <time>2026-08-30T09:12:54.330Z</time>
      </trkpt>
      <trkpt lat="45.16445" lon="5.92636">
        <ele>2370.17</ele>
        <time>2026-08-30T09:13:12.306Z</time>
      </trkpt>
      <trkpt lat="45.16429" lon="5.92649">
        <ele>2374.14</ele>
        <time>2026-08-30T09:13:34.087Z</time>
      </trkpt>
      <trkpt lat="45.16411" lon="5.92655">
        <ele>2373.99</ele>
        <time>2026-08-30T09:15:13.414Z</time>
      </trkpt>
      <trkpt lat="45.16393" lon="5.92659">
        <ele>2377.03</ele>
        <time>2026-08-30T09:15:27.316Z</time>
      </trkpt>
      <trkpt lat="45.16375" lon="5.92664">
        <ele>2379.19</ele>
        <time>2026-08-30T09:15:44.262Z</time>
      </trkpt>
      <trkpt lat="45.16357" lon="5.92669">
        <ele>2383.65</ele>
        <time>2026-08-30T09:16:04.350Z</time>
      </trkpt>
      <trkpt lat="45.16339" lon="5.92669">
        <ele>2385.13</ele>
        <time>2026-08-30T09:16:37.068Z</time>
      </trkpt>
      <trkpt lat="45.16321" lon="5.92668">
        <ele>2386.32</ele>
        <time>2026-08-30T09:16:54.343Z</time>
      </trkpt>
      <trkpt lat="45.16302" lon="5.92669">
        <ele>2389.22</ele>
        <time>2026-08-30T09:17:11.649Z</time>
      </trkpt>
      <trkpt lat="45.16285" lon="5.9266">
        <ele>2389.71</ele>
        <time>2026-08-30T09:17:26.402Z</time>
      </trkpt>
      <trkpt lat="45.16268" lon="5.92651">
        <ele>2387.28</ele>
        <time>2026-08-30T09:17:46.219Z</time>
      </trkpt>
      <trkpt lat="45.16252" lon="5.92639">
        <ele>2385.26</ele>
        <time>2026-08-30T09:18:01.357Z</time>
      </trkpt>
      <trkpt lat="45.16243" lon="5.92671">
        <ele>2380.02</ele>
        <time>2026-08-30T09:35:10.232Z</time>
      </trkpt>
      <trkpt lat="45.16237" lon="5.92698">
        <ele>2377.8</ele>
        <time>2026-08-30T09:35:11.449Z</time>
      </trkpt>
      <trkpt lat="45.16227" lon="5.9273">
        <ele>2371.49</ele>
        <time>2026-08-30T09:35:13.417Z</time>
      </trkpt>
      <trkpt lat="45.16224" lon="5.92759">
        <ele>2370.57</ele>
        <time>2026-08-30T09:35:16.473Z</time>
      </trkpt>
      <trkpt lat="45.16207" lon="5.92785">
        <ele>2369.32</ele>
        <time>2026-08-30T09:35:19.458Z</time>
      </trkpt>
      <trkpt lat="45.16186" lon="5.92793">
        <ele>2369.85</ele>
        <time>2026-08-30T09:35:22.500Z</time>
      </trkpt>
      <trkpt lat="45.16165" lon="5.9278">
        <ele>2369.17</ele>
        <time>2026-08-30T09:35:24.466Z</time>
      </trkpt>
      <trkpt lat="45.16148" lon="5.92766">
        <ele>2367.82</ele>
        <time>2026-08-30T09:35:26.497Z</time>
      </trkpt>
      <trkpt lat="45.16126" lon="5.92748">
        <ele>2365.48</ele>
        <time>2026-08-30T09:35:29.436Z</time>
      </trkpt>
      <trkpt lat="45.16107" lon="5.92738">
        <ele>2364.67</ele>
        <time>2026-08-30T09:35:31.524Z</time>
      </trkpt>
      <trkpt lat="45.1609" lon="5.92727">
        <ele>2364.21</ele>
        <time>2026-08-30T09:35:33.593Z</time>
      </trkpt>
      <trkpt lat="45.16067" lon="5.92709">
        <ele>2361.84</ele>
        <time>2026-08-30T09:35:36.494Z</time>
      </trkpt>
      <trkpt lat="45.16044" lon="5.92691">
        <ele>2359.46</ele>
        <time>2026-08-30T09:35:39.435Z</time>
      </trkpt>
      <trkpt lat="45.16026" lon="5.92682">
        <ele>2357.3</ele>
        <time>2026-08-30T09:35:41.554Z</time>
      </trkpt>
      <trkpt lat="45.16007" lon="5.92672">
        <ele>2355.67</ele>
        <time>2026-08-30T09:35:43.542Z</time>
      </trkpt>
      <trkpt lat="45.1599" lon="5.92667">
        <ele>2355</ele>
        <time>2026-08-30T09:35:45.542Z</time>
      </trkpt>
      <trkpt lat="45.15969" lon="5.92663">
        <ele>2353.92</ele>
        <time>2026-08-30T09:35:47.565Z</time>
      </trkpt>
      <trkpt lat="45.15943" lon="5.92666">
        <ele>2349.26</ele>
        <time>2026-08-30T09:35:50.530Z</time>
      </trkpt>
      <trkpt lat="45.15925" lon="5.92658">
        <ele>2344.32</ele>
        <time>2026-08-30T09:35:52.540Z</time>
      </trkpt>
      <trkpt lat="45.1591" lon="5.92632">
        <ele>2341.68</ele>
        <time>2026-08-30T09:35:54.459Z</time>
      </trkpt>
      <trkpt lat="45.15907" lon="5.92595">
        <ele>2337.29</ele>
        <time>2026-08-30T09:35:56.570Z</time>
      </trkpt>
      <trkpt lat="45.1591" lon="5.92568">
        <ele>2330.86</ele>
        <time>2026-08-30T09:35:58.493Z</time>
      </trkpt>
      <trkpt lat="45.15913" lon="5.92539">
        <ele>2326.44</ele>
        <time>2026-08-30T09:36:00.476Z</time>
      </trkpt>
      <trkpt lat="45.15915" lon="5.92511">
        <ele>2323.88</ele>
        <time>2026-08-30T09:36:02.344Z</time>
      </trkpt>
      <trkpt lat="45.15917" lon="5.9248">
        <ele>2320.8</ele>
        <time>2026-08-30T09:36:04.496Z</time>
      </trkpt>
      <trkpt lat="45.15921" lon="5.92452">
        <ele>2317.2</ele>
        <time>2026-08-30T09:36:06.517Z</time>
      </trkpt>
      <trkpt lat="45.15928" lon="5.92421">
        <ele>2313.4</ele>
        <time>2026-08-30T09:36:08.528Z</time>
      </trkpt>
      <trkpt lat="45.15931" lon="5.92394">
        <ele>2309.04</ele>
        <time>2026-08-30T09:36:10.433Z</time>
      </trkpt>
      <trkpt lat="45.15932" lon="5.92357">
        <ele>2302.27</ele>
        <time>2026-08-30T09:36:13.463Z</time>
      </trkpt>
      <trkpt lat="45.15935" lon="5.92329">
        <ele>2299.15</ele>
        <time>2026-08-30T09:36:15.520Z</time>
      </trkpt>
      <trkpt lat="45.15937" lon="5.92303">
        <ele>2293.9</ele>
        <time>2026-08-30T09:36:17.519Z</time>
      </trkpt>
      <trkpt lat="45.15941" lon="5.92267">
        <ele>2287.07</ele>
        <time>2026-08-30T09:36:20.447Z</time>
      </trkpt>
      <trkpt lat="45.15945" lon="5.92241">
        <ele>2281.93</ele>
        <time>2026-08-30T09:36:22.474Z</time>
      </trkpt>
      <trkpt lat="45.15953" lon="5.92208">
        <ele>2274.03</ele>
        <time>2026-08-30T09:36:25.380Z</time>
      </trkpt>
      <trkpt lat="45.15956" lon="5.92181">
        <ele>2268.54</ele>
        <time>2026-08-30T09:36:27.536Z</time>
      </trkpt>
      <trkpt lat="45.1596" lon="5.92145">
        <ele>2263.55</ele>
        <time>2026-08-30T09:36:30.426Z</time>
      </trkpt>
      <trkpt lat="45.15961" lon="5.92119">
        <ele>2259.16</ele>
        <time>2026-08-30T09:36:32.492Z</time>
      </trkpt>
      <trkpt lat="45.15964" lon="5.9208">
        <ele>2253</ele>
        <time>2026-08-30T09:36:35.466Z</time>
      </trkpt>
      <trkpt lat="45.15966" lon="5.92051">
        <ele>2247.6</ele>
        <time>2026-08-30T09:36:37.635Z</time>
      </trkpt>
      <trkpt lat="45.15967" lon="5.92014">
        <ele>2242.4</ele>
        <time>2026-08-30T09:36:40.475Z</time>
      </trkpt>
      <trkpt lat="45.15967" lon="5.91987">
        <ele>2238.12</ele>
        <time>2026-08-30T09:36:42.488Z</time>
      </trkpt>
      <trkpt lat="45.15969" lon="5.91957">
        <ele>2234.28</ele>
        <time>2026-08-30T09:36:44.618Z</time>
      </trkpt>
      <trkpt lat="45.15969" lon="5.9193">
        <ele>2228.58</ele>
        <time>2026-08-30T09:36:46.614Z</time>
      </trkpt>
      <trkpt lat="45.15972" lon="5.9189">
        <ele>2221.44</ele>
        <time>2026-08-30T09:36:49.517Z</time>
      </trkpt>
      <trkpt lat="45.15972" lon="5.91863">
        <ele>2217.32</ele>
        <time>2026-08-30T09:36:51.485Z</time>
      </trkpt>
      <trkpt lat="45.15972" lon="5.91833">
        <ele>2212.4</ele>
        <time>2026-08-30T09:36:53.528Z</time>
      </trkpt>
      <trkpt lat="45.15973" lon="5.91806">
        <ele>2209.66</ele>
        <time>2026-08-30T09:36:55.460Z</time>
      </trkpt>
      <trkpt lat="45.15973" lon="5.91776">
        <ele>2205.41</ele>
        <time>2026-08-30T09:36:57.580Z</time>
      </trkpt>
      <trkpt lat="45.15974" lon="5.91748">
        <ele>2201.08</ele>
        <time>2026-08-30T09:36:59.447Z</time>
      </trkpt>
      <trkpt lat="45.15974" lon="5.91718">
        <ele>2196.42</ele>
        <time>2026-08-30T09:37:01.478Z</time>
      </trkpt>
      <trkpt lat="45.15974" lon="5.91688">
        <ele>2192</ele>
        <time>2026-08-30T09:37:03.504Z</time>
      </trkpt>
      <trkpt lat="45.15974" lon="5.91661">
        <ele>2185.69</ele>
        <time>2026-08-30T09:37:05.429Z</time>
      </trkpt>
      <trkpt lat="45.15974" lon="5.91634">
        <ele>2182.36</ele>
        <time>2026-08-30T09:37:07.348Z</time>
      </trkpt>
      <trkpt lat="45.1597" lon="5.91605">
        <ele>2178.85</ele>
        <time>2026-08-30T09:37:09.358Z</time>
      </trkpt>
      <trkpt lat="45.15965" lon="5.91574">
        <ele>2174.86</ele>
        <time>2026-08-30T09:37:11.433Z</time>
      </trkpt>
      <trkpt lat="45.15961" lon="5.91544">
        <ele>2170.86</ele>
        <time>2026-08-30T09:37:13.419Z</time>
      </trkpt>
      <trkpt lat="45.15957" lon="5.91515">
        <ele>2167.75</ele>
        <time>2026-08-30T09:37:15.458Z</time>
      </trkpt>
      <trkpt lat="45.15957" lon="5.91486">
        <ele>2163.33</ele>
        <time>2026-08-30T09:37:17.450Z</time>
      </trkpt>
      <trkpt lat="45.15957" lon="5.91457">
        <ele>2157.8</ele>
        <time>2026-08-30T09:37:19.366Z</time>
      </trkpt>
      <trkpt lat="45.15959" lon="5.91426">
        <ele>2153.61</ele>
        <time>2026-08-30T09:37:21.454Z</time>
      </trkpt>
      <trkpt lat="45.15961" lon="5.91396">
        <ele>2148.93</ele>
        <time>2026-08-30T09:37:23.461Z</time>
      </trkpt>
      <trkpt lat="45.15963" lon="5.91367">
        <ele>2144.8</ele>
        <time>2026-08-30T09:37:25.387Z</time>
      </trkpt>
      <trkpt lat="45.15964" lon="5.91333">
        <ele>2140.24</ele>
        <time>2026-08-30T09:37:27.594Z</time>
      </trkpt>
      <trkpt lat="45.15966" lon="5.91293">
        <ele>2134.72</ele>
        <time>2026-08-30T09:37:30.378Z</time>
      </trkpt>
      <trkpt lat="45.15969" lon="5.91263">
        <ele>2128.95</ele>
        <time>2026-08-30T09:37:32.427Z</time>
      </trkpt>
      <trkpt lat="45.1597" lon="5.91234">
        <ele>2125.27</ele>
        <time>2026-08-30T09:37:34.470Z</time>
      </trkpt>
      <trkpt lat="45.15971" lon="5.91204">
        <ele>2122.18</ele>
        <time>2026-08-30T09:37:36.495Z</time>
      </trkpt>
      <trkpt lat="45.15972" lon="5.91175">
        <ele>2118.29</ele>
        <time>2026-08-30T09:37:38.386Z</time>
      </trkpt>
      <trkpt lat="45.15972" lon="5.91143">
        <ele>2115.18</ele>
        <time>2026-08-30T09:37:40.478Z</time>
      </trkpt>
      <trkpt lat="45.15974" lon="5.91113">
        <ele>2110.81</ele>
        <time>2026-08-30T09:37:42.505Z</time>
      </trkpt>
      <trkpt lat="45.15976" lon="5.91083">
        <ele>2105.89</ele>
        <time>2026-08-30T09:37:44.465Z</time>
      </trkpt>
      <trkpt lat="45.15978" lon="5.91054">
        <ele>2100.46</ele>
        <time>2026-08-30T09:37:46.540Z</time>
      </trkpt>
      <trkpt lat="45.1598" lon="5.91026">
        <ele>2095.8</ele>
        <time>2026-08-30T09:37:48.488Z</time>
      </trkpt>
      <trkpt lat="45.15983" lon="5.90997">
        <ele>2092.3</ele>
        <time>2026-08-30T09:37:50.438Z</time>
      </trkpt>
      <trkpt lat="45.15987" lon="5.9097">
        <ele>2087.41</ele>
        <time>2026-08-30T09:37:52.408Z</time>
      </trkpt>
      <trkpt lat="45.15991" lon="5.90941">
        <ele>2083.32</ele>
        <time>2026-08-30T09:37:54.405Z</time>
      </trkpt>
      <trkpt lat="45.15995" lon="5.90912">
        <ele>2078.95</ele>
        <time>2026-08-30T09:37:56.439Z</time>
      </trkpt>
      <trkpt lat="45.15999" lon="5.90883">
        <ele>2074.85</ele>
        <time>2026-08-30T09:37:58.416Z</time>
      </trkpt>
      <trkpt lat="45.16004" lon="5.90854">
        <ele>2071.02</ele>
        <time>2026-08-30T09:38:00.467Z</time>
      </trkpt>
      <trkpt lat="45.16009" lon="5.90828">
        <ele>2066.86</ele>
        <time>2026-08-30T09:38:02.360Z</time>
      </trkpt>
      <trkpt lat="45.16015" lon="5.90799">
        <ele>2062.31</ele>
        <time>2026-08-30T09:38:04.506Z</time>
      </trkpt>
      <trkpt lat="45.1602" lon="5.9077">
        <ele>2057.84</ele>
        <time>2026-08-30T09:38:06.555Z</time>
      </trkpt>
      <trkpt lat="45.16024" lon="5.90743">
        <ele>2054.33</ele>
        <time>2026-08-30T09:38:08.439Z</time>
      </trkpt>
      <trkpt lat="45.16027" lon="5.90716">
        <ele>2049.67</ele>
        <time>2026-08-30T09:38:10.426Z</time>
      </trkpt>
      <trkpt lat="45.16031" lon="5.90689">
        <ele>2045.31</ele>
        <time>2026-08-30T09:38:12.406Z</time>
      </trkpt>
      <trkpt lat="45.16036" lon="5.90661">
        <ele>2042.15</ele>
        <time>2026-08-30T09:38:14.439Z</time>
      </trkpt>
      <trkpt lat="45.16041" lon="5.90634">
        <ele>2036.84</ele>
        <time>2026-08-30T09:38:16.443Z</time>
      </trkpt>
      <trkpt lat="45.16046" lon="5.90607">
        <ele>2033.33</ele>
        <time>2026-08-30T09:38:18.459Z</time>
      </trkpt>
      <trkpt lat="45.1605" lon="5.9058">
        <ele>2029.18</ele>
        <time>2026-08-30T09:38:20.420Z</time>
      </trkpt>
      <trkpt lat="45.16055" lon="5.90549">
        <ele>2025.76</ele>
        <time>2026-08-30T09:38:22.590Z</time>
      </trkpt>
      <trkpt lat="45.16057" lon="5.90522">
        <ele>2021.39</ele>
        <time>2026-08-30T09:38:24.436Z</time>
      </trkpt>
      <trkpt lat="45.16061" lon="5.90494">
        <ele>2017.08</ele>
        <time>2026-08-30T09:38:26.434Z</time>
      </trkpt>
      <trkpt lat="45.16066" lon="5.90463">
        <ele>2013.58</ele>
        <time>2026-08-30T09:38:28.525Z</time>
      </trkpt>
      <trkpt lat="45.1607" lon="5.90434">
        <ele>2010.17</ele>
        <time>2026-08-30T09:38:30.458Z</time>
      </trkpt>
      <trkpt lat="45.16074" lon="5.90405">
        <ele>2005.78</ele>
        <time>2026-08-30T09:38:32.479Z</time>
      </trkpt>
      <trkpt lat="45.16078" lon="5.90375">
        <ele>2002.38</ele>
        <time>2026-08-30T09:38:34.464Z</time>
      </trkpt>
      <trkpt lat="45.16081" lon="5.90346">
        <ele>1998.45</ele>
        <time>2026-08-30T09:38:36.414Z</time>
      </trkpt>
      <trkpt lat="45.16085" lon="5.90314">
        <ele>1994.77</ele>
        <time>2026-08-30T09:38:38.460Z</time>
      </trkpt>
      <trkpt lat="45.16089" lon="5.90285">
        <ele>1989.2</ele>
        <time>2026-08-30T09:38:40.408Z</time>
      </trkpt>
      <trkpt lat="45.16093" lon="5.90257">
        <ele>1984.03</ele>
        <time>2026-08-30T09:38:42.439Z</time>
      </trkpt>
      <trkpt lat="45.16097" lon="5.90228">
        <ele>1979.23</ele>
        <time>2026-08-30T09:38:44.464Z</time>
      </trkpt>
      <trkpt lat="45.16101" lon="5.90197">
        <ele>1975.13</ele>
        <time>2026-08-30T09:38:46.546Z</time>
      </trkpt>
      <trkpt lat="45.16103" lon="5.90169">
        <ele>1970.78</ele>
        <time>2026-08-30T09:38:48.466Z</time>
      </trkpt>
      <trkpt lat="45.16107" lon="5.90142">
        <ele>1968.2</ele>
        <time>2026-08-30T09:38:50.410Z</time>
      </trkpt>
      <trkpt lat="45.16111" lon="5.90111">
        <ele>1962.85</ele>
        <time>2026-08-30T09:38:52.544Z</time>
      </trkpt>
      <trkpt lat="45.16114" lon="5.90085">
        <ele>1958.36</ele>
        <time>2026-08-30T09:38:54.444Z</time>
      </trkpt>
      <trkpt lat="45.16118" lon="5.90052">
        <ele>1953.7</ele>
        <time>2026-08-30T09:38:56.596Z</time>
      </trkpt>
      <trkpt lat="45.1612" lon="5.90023">
        <ele>1948.29</ele>
        <time>2026-08-30T09:38:58.478Z</time>
      </trkpt>
      <trkpt lat="45.16121" lon="5.89992">
        <ele>1942.85</ele>
        <time>2026-08-30T09:39:00.483Z</time>
      </trkpt>
      <trkpt lat="45.16123" lon="5.89965">
        <ele>1938.43</ele>
        <time>2026-08-30T09:39:02.396Z</time>
      </trkpt>
      <trkpt lat="45.16126" lon="5.89934">
        <ele>1934.17</ele>
        <time>2026-08-30T09:39:04.476Z</time>
      </trkpt>
      <trkpt lat="45.16128" lon="5.89904">
        <ele>1930.17</ele>
        <time>2026-08-30T09:39:06.458Z</time>
      </trkpt>
      <trkpt lat="45.16129" lon="5.89874">
        <ele>1925.7</ele>
        <time>2026-08-30T09:39:08.495Z</time>
      </trkpt>
      <trkpt lat="45.16131" lon="5.89843">
        <ele>1921.59</ele>
        <time>2026-08-30T09:39:10.462Z</time>
      </trkpt>
      <trkpt lat="45.16133" lon="5.89813">
        <ele>1917.31</ele>
        <time>2026-08-30T09:39:12.354Z</time>
      </trkpt>
      <trkpt lat="45.16135" lon="5.89781">
        <ele>1912.83</ele>
        <time>2026-08-30T09:39:14.440Z</time>
      </trkpt>
      <trkpt lat="45.16135" lon="5.8975">
        <ele>1909.16</ele>
        <time>2026-08-30T09:39:16.449Z</time>
      </trkpt>
      <trkpt lat="45.16135" lon="5.89719">
        <ele>1905.64</ele>
        <time>2026-08-30T09:39:18.475Z</time>
      </trkpt>
      <trkpt lat="45.16137" lon="5.89687">
        <ele>1901.4</ele>
        <time>2026-08-30T09:39:20.495Z</time>
      </trkpt>
      <trkpt lat="45.16138" lon="5.89654">
        <ele>1896.77</ele>
        <time>2026-08-30T09:39:22.463Z</time>
      </trkpt>
      <trkpt lat="45.16138" lon="5.89621">
        <ele>1892.17</ele>
        <time>2026-08-30T09:39:24.527Z</time>
      </trkpt>
      <trkpt lat="45.16139" lon="5.8959">
        <ele>1888.24</ele>
        <time>2026-08-30T09:39:26.451Z</time>
      </trkpt>
      <trkpt lat="45.16141" lon="5.89558">
        <ele>1883.15</ele>
        <time>2026-08-30T09:39:28.468Z</time>
      </trkpt>
      <trkpt lat="45.16144" lon="5.89526">
        <ele>1878.65</ele>
        <time>2026-08-30T09:39:30.505Z</time>
      </trkpt>
      <trkpt lat="45.16148" lon="5.89497">
        <ele>1874.57</ele>
        <time>2026-08-30T09:39:32.397Z</time>
      </trkpt>
      <trkpt lat="45.16152" lon="5.89465">
        <ele>1870.2</ele>
        <time>2026-08-30T09:39:34.473Z</time>
      </trkpt>
      <trkpt lat="45.16156" lon="5.89437">
        <ele>1866.23</ele>
        <time>2026-08-30T09:39:36.454Z</time>
      </trkpt>
      <trkpt lat="45.16159" lon="5.89408">
        <ele>1862.24</ele>
        <time>2026-08-30T09:39:38.418Z</time>
      </trkpt>
      <trkpt lat="45.16162" lon="5.89376">
        <ele>1858.37</ele>
        <time>2026-08-30T09:39:40.495Z</time>
      </trkpt>
      <trkpt lat="45.16165" lon="5.89348">
        <ele>1854.13</ele>
        <time>2026-08-30T09:39:42.392Z</time>
      </trkpt>
      <trkpt lat="45.16168" lon="5.89317">
        <ele>1850.32</ele>
        <time>2026-08-30T09:39:44.453Z</time>
      </trkpt>
      <trkpt lat="45.1617" lon="5.89288">
        <ele>1847.21</ele>
        <time>2026-08-30T09:39:46.388Z</time>
      </trkpt>
      <trkpt lat="45.16173" lon="5.89255">
        <ele>1843.43</ele>
        <time>2026-08-30T09:39:48.595Z</time>
      </trkpt>
      <trkpt lat="45.16176" lon="5.89227">
        <ele>1839.68</ele>
        <time>2026-08-30T09:39:50.431Z</time>
      </trkpt>
      <trkpt lat="45.16179" lon="5.89198">
        <ele>1835.45</ele>
        <time>2026-08-30T09:39:52.362Z</time>
      </trkpt>
      <trkpt lat="45.1618" lon="5.89167">
        <ele>1831.48</ele>
        <time>2026-08-30T09:39:54.403Z</time>
      </trkpt>
      <trkpt lat="45.16181" lon="5.89134">
        <ele>1826.49</ele>
        <time>2026-08-30T09:39:56.502Z</time>
      </trkpt>
      <trkpt lat="45.16182" lon="5.89104">
        <ele>1822.38</ele>
        <time>2026-08-30T09:39:58.444Z</time>
      </trkpt>
      <trkpt lat="45.16182" lon="5.89074">
        <ele>1817.61</ele>
        <time>2026-08-30T09:40:00.436Z</time>
      </trkpt>
      <trkpt lat="45.16183" lon="5.89043">
        <ele>1813.64</ele>
        <time>2026-08-30T09:40:02.385Z</time>
      </trkpt>
      <trkpt lat="45.16185" lon="5.89016">
        <ele>1809.6</ele>
        <time>2026-08-30T09:40:04.176Z</time>
      </trkpt>
      <trkpt lat="45.16189" lon="5.88979">
        <ele>1805.02</ele>
        <time>2026-08-30T09:40:06.489Z</time>
      </trkpt>
      <trkpt lat="45.16193" lon="5.8895">
        <ele>1800.55</ele>
        <time>2026-08-30T09:40:08.433Z</time>
      </trkpt>
      <trkpt lat="45.16197" lon="5.88918">
        <ele>1795.52</ele>
        <time>2026-08-30T09:40:10.517Z</time>
      </trkpt>
      <trkpt lat="45.16201" lon="5.88889">
        <ele>1792.85</ele>
        <time>2026-08-30T09:40:12.474Z</time>
      </trkpt>
      <trkpt lat="45.16206" lon="5.88861">
        <ele>1789.96</ele>
        <time>2026-08-30T09:40:14.394Z</time>
      </trkpt>
      <trkpt lat="45.16209" lon="5.8883">
        <ele>1785.5</ele>
        <time>2026-08-30T09:40:16.432Z</time>
      </trkpt>
      <trkpt lat="45.16212" lon="5.888">
        <ele>1779.21</ele>
        <time>2026-08-30T09:40:18.425Z</time>
      </trkpt>
      <trkpt lat="45.16215" lon="5.8877">
        <ele>1773.89</ele>
        <time>2026-08-30T09:40:20.405Z</time>
      </trkpt>
      <trkpt lat="45.16217" lon="5.88739">
        <ele>1769.9</ele>
        <time>2026-08-30T09:40:22.407Z</time>
      </trkpt>
      <trkpt lat="45.1622" lon="5.88709">
        <ele>1766.24</ele>
        <time>2026-08-30T09:40:24.405Z</time>
      </trkpt>
      <trkpt lat="45.16221" lon="5.88679">
        <ele>1762.22</ele>
        <time>2026-08-30T09:40:26.447Z</time>
      </trkpt>
      <trkpt lat="45.16222" lon="5.88651">
        <ele>1758.51</ele>
        <time>2026-08-30T09:40:28.435Z</time>
      </trkpt>
      <trkpt lat="45.16228" lon="5.88623">
        <ele>1755.76</ele>
        <time>2026-08-30T09:40:30.490Z</time>
      </trkpt>
      <trkpt lat="45.16232" lon="5.88596">
        <ele>1752.91</ele>
        <time>2026-08-30T09:40:32.387Z</time>
      </trkpt>
      <trkpt lat="45.16237" lon="5.8857">
        <ele>1749.62</ele>
        <time>2026-08-30T09:40:34.391Z</time>
      </trkpt>
      <trkpt lat="45.16242" lon="5.88542">
        <ele>1746.3</ele>
        <time>2026-08-30T09:40:36.419Z</time>
      </trkpt>
      <trkpt lat="45.16247" lon="5.88514">
        <ele>1742.57</ele>
        <time>2026-08-30T09:40:38.477Z</time>
      </trkpt>
      <trkpt lat="45.16252" lon="5.88486">
        <ele>1739.64</ele>
        <time>2026-08-30T09:40:40.446Z</time>
      </trkpt>
      <trkpt lat="45.16256" lon="5.88457">
        <ele>1736.37</ele>
        <time>2026-08-30T09:40:42.411Z</time>
      </trkpt>
      <trkpt lat="45.16258" lon="5.88426">
        <ele>1732.27</ele>
        <time>2026-08-30T09:40:44.399Z</time>
      </trkpt>
      <trkpt lat="45.16259" lon="5.88397">
        <ele>1728.19</ele>
        <time>2026-08-30T09:40:46.378Z</time>
      </trkpt>
      <trkpt lat="45.16259" lon="5.88368">
        <ele>1724.98</ele>
        <time>2026-08-30T09:40:48.392Z</time>
      </trkpt>
      <trkpt lat="45.1626" lon="5.88335">
        <ele>1722.02</ele>
        <time>2026-08-30T09:40:50.441Z</time>
      </trkpt>
      <trkpt lat="45.1626" lon="5.88303">
        <ele>1718.49</ele>
        <time>2026-08-30T09:40:52.434Z</time>
      </trkpt>
      <trkpt lat="45.16259" lon="5.8827">
        <ele>1713.38</ele>
        <time>2026-08-30T09:40:54.553Z</time>
      </trkpt>
      <trkpt lat="45.16257" lon="5.88241">
        <ele>1709.91</ele>
        <time>2026-08-30T09:40:56.448Z</time>
      </trkpt>
      <trkpt lat="45.16255" lon="5.88209">
        <ele>1706.7</ele>
        <time>2026-08-30T09:40:58.441Z</time>
      </trkpt>
      <trkpt lat="45.16254" lon="5.88178">
        <ele>1701.6</ele>
        <time>2026-08-30T09:41:00.449Z</time>
      </trkpt>
      <trkpt lat="45.16254" lon="5.88147">
        <ele>1697.75</ele>
        <time>2026-08-30T09:41:02.399Z</time>
      </trkpt>
      <trkpt lat="45.16255" lon="5.88116">
        <ele>1694.63</ele>
        <time>2026-08-30T09:41:04.478Z</time>
      </trkpt>
      <trkpt lat="45.16257" lon="5.88085">
        <ele>1692.32</ele>
        <time>2026-08-30T09:41:06.402Z</time>
      </trkpt>
      <trkpt lat="45.16259" lon="5.88055">
        <ele>1689.89</ele>
        <time>2026-08-30T09:41:08.469Z</time>
      </trkpt>
      <trkpt lat="45.1626" lon="5.88027">
        <ele>1684.92</ele>
        <time>2026-08-30T09:41:10.450Z</time>
      </trkpt>
      <trkpt lat="45.16261" lon="5.87997">
        <ele>1683.65</ele>
        <time>2026-08-30T09:41:12.376Z</time>
      </trkpt>
      <trkpt lat="45.16263" lon="5.87967">
        <ele>1677.65</ele>
        <time>2026-08-30T09:41:14.332Z</time>
      </trkpt>
      <trkpt lat="45.16265" lon="5.87934">
        <ele>1671.8</ele>
        <time>2026-08-30T09:41:16.436Z</time>
      </trkpt>
      <trkpt lat="45.16266" lon="5.87906">
        <ele>1667.36</ele>
        <time>2026-08-30T09:41:18.426Z</time>
      </trkpt>
      <trkpt lat="45.16268" lon="5.87878">
        <ele>1664.43</ele>
        <time>2026-08-30T09:41:20.335Z</time>
      </trkpt>
      <trkpt lat="45.16269" lon="5.87848">
        <ele>1661.73</ele>
        <time>2026-08-30T09:41:22.423Z</time>
      </trkpt>
      <trkpt lat="45.1627" lon="5.87817">
        <ele>1657.87</ele>
        <time>2026-08-30T09:41:24.450Z</time>
      </trkpt>
      <trkpt lat="45.16269" lon="5.87786">
        <ele>1652.88</ele>
        <time>2026-08-30T09:41:26.464Z</time>
      </trkpt>
      <trkpt lat="45.16267" lon="5.87758">
        <ele>1649.22</ele>
        <time>2026-08-30T09:41:28.406Z</time>
      </trkpt>
      <trkpt lat="45.16264" lon="5.87729">
        <ele>1644.22</ele>
        <time>2026-08-30T09:41:30.391Z</time>
      </trkpt>
      <trkpt lat="45.16263" lon="5.877">
        <ele>1640.23</ele>
        <time>2026-08-30T09:41:32.422Z</time>
      </trkpt>
      <trkpt lat="45.16261" lon="5.87671">
        <ele>1636.51</ele>
        <time>2026-08-30T09:41:34.394Z</time>
      </trkpt>
      <trkpt lat="45.1626" lon="5.87641">
        <ele>1633.76</ele>
        <time>2026-08-30T09:41:36.416Z</time>
      </trkpt>
      <trkpt lat="45.16259" lon="5.8761">
        <ele>1628.42</ele>
        <time>2026-08-30T09:41:38.500Z</time>
      </trkpt>
      <trkpt lat="45.16259" lon="5.8758">
        <ele>1624.58</ele>
        <time>2026-08-30T09:41:40.427Z</time>
      </trkpt>
      <trkpt lat="45.16258" lon="5.87549">
        <ele>1621.25</ele>
        <time>2026-08-30T09:41:42.447Z</time>
      </trkpt>
      <trkpt lat="45.16257" lon="5.87517">
        <ele>1617.97</ele>
        <time>2026-08-30T09:41:44.480Z</time>
      </trkpt>
      <trkpt lat="45.16256" lon="5.87486">
        <ele>1614.22</ele>
        <time>2026-08-30T09:41:46.518Z</time>
      </trkpt>
      <trkpt lat="45.16253" lon="5.87457">
        <ele>1611.04</ele>
        <time>2026-08-30T09:41:48.456Z</time>
      </trkpt>
      <trkpt lat="45.16253" lon="5.87427">
        <ele>1608.91</ele>
        <time>2026-08-30T09:41:50.443Z</time>
      </trkpt>
      <trkpt lat="45.16273" lon="5.87407">
        <ele>1603.28</ele>
        <time>2026-08-30T09:41:53.478Z</time>
      </trkpt>
      <trkpt lat="45.16282" lon="5.87379">
        <ele>1596.62</ele>
        <time>2026-08-30T09:41:56.427Z</time>
      </trkpt>
      <trkpt lat="45.1627" lon="5.8736">
        <ele>1592.98</ele>
        <time>2026-08-30T09:41:57.443Z</time>
      </trkpt>
      <trkpt lat="45.16257" lon="5.87325">
        <ele>1581.9</ele>
        <time>2026-08-30T09:41:59.447Z</time>
      </trkpt>
      <trkpt lat="45.16276" lon="5.87307">
        <ele>1569.23</ele>
        <time>2026-08-30T09:42:02.276Z</time>
      </trkpt>
      <trkpt lat="45.16295" lon="5.87303">
        <ele>1553.29</ele>
        <time>2026-08-30T09:42:04.243Z</time>
      </trkpt>
      <trkpt lat="45.16282" lon="5.87282">
        <ele>1545.42</ele>
        <time>2026-08-30T09:42:06.329Z</time>
      </trkpt>
      <trkpt lat="45.16284" lon="5.87256">
        <ele>1527.31</ele>
        <time>2026-08-30T09:42:08.370Z</time>
      </trkpt>
      <trkpt lat="45.16306" lon="5.87238">
        <ele>1522.98</ele>
        <time>2026-08-30T09:42:10.264Z</time>
      </trkpt>
      <trkpt lat="45.16284" lon="5.87204">
        <ele>1495.76</ele>
        <time>2026-08-30T09:42:14.289Z</time>
      </trkpt>
      <trkpt lat="45.1626" lon="5.87193">
        <ele>1491.85</ele>
        <time>2026-08-30T09:42:15.371Z</time>
      </trkpt>
      <trkpt lat="45.16242" lon="5.87182">
        <ele>1490</ele>
        <time>2026-08-30T09:42:16.338Z</time>
      </trkpt>
      <trkpt lat="45.16226" lon="5.87169">
        <ele>1488.2</ele>
        <time>2026-08-30T09:42:17.290Z</time>
      </trkpt>
      <trkpt lat="45.16211" lon="5.87151">
        <ele>1486.57</ele>
        <time>2026-08-30T09:42:18.398Z</time>
      </trkpt>
      <trkpt lat="45.16187" lon="5.87122">
        <ele>1482.46</ele>
        <time>2026-08-30T09:42:20.408Z</time>
      </trkpt>
      <trkpt lat="45.16169" lon="5.871">
        <ele>1477.29</ele>
        <time>2026-08-30T09:42:22.405Z</time>
      </trkpt>
      <trkpt lat="45.16149" lon="5.87072">
        <ele>1475.94</ele>
        <time>2026-08-30T09:42:24.420Z</time>
      </trkpt>
      <trkpt lat="45.16131" lon="5.87042">
        <ele>1474.64</ele>
        <time>2026-08-30T09:42:26.446Z</time>
      </trkpt>
      <trkpt lat="45.16116" lon="5.87015">
        <ele>1470.94</ele>
        <time>2026-08-30T09:42:28.397Z</time>
      </trkpt>
      <trkpt lat="45.16102" lon="5.86989">
        <ele>1466.82</ele>
        <time>2026-08-30T09:42:30.217Z</time>
      </trkpt>
      <trkpt lat="45.16085" lon="5.86955">
        <ele>1464.76</ele>
        <time>2026-08-30T09:42:32.431Z</time>
      </trkpt>
      <trkpt lat="45.16069" lon="5.86924">
        <ele>1461.87</ele>
        <time>2026-08-30T09:42:34.489Z</time>
      </trkpt>
      <trkpt lat="45.16055" lon="5.86895">
        <ele>1459.3</ele>
        <time>2026-08-30T09:42:36.411Z</time>
      </trkpt>
      <trkpt lat="45.16041" lon="5.86863">
        <ele>1456.25</ele>
        <time>2026-08-30T09:42:38.437Z</time>
      </trkpt>
      <trkpt lat="45.16033" lon="5.86832">
        <ele>1454.19</ele>
        <time>2026-08-30T09:42:40.412Z</time>
      </trkpt>
      <trkpt lat="45.16036" lon="5.86798">
        <ele>1450.51</ele>
        <time>2026-08-30T09:42:42.535Z</time>
      </trkpt>
      <trkpt lat="45.16043" lon="5.86769">
        <ele>1448.3</ele>
        <time>2026-08-30T09:42:44.430Z</time>
      </trkpt>
      <trkpt lat="45.16026" lon="5.86736">
        <ele>1444.43</ele>
        <time>2026-08-30T09:42:46.414Z</time>
      </trkpt>
      <trkpt lat="45.16013" lon="5.86706">
        <ele>1440.94</ele>
        <time>2026-08-30T09:42:48.369Z</time>
      </trkpt>
      <trkpt lat="45.16027" lon="5.86689">
        <ele>1432.59</ele>
        <time>2026-08-30T09:42:50.349Z</time>
      </trkpt>
      <trkpt lat="45.16046" lon="5.86666">
        <ele>1425.11</ele>
        <time>2026-08-30T09:42:52.398Z</time>
      </trkpt>
      <trkpt lat="45.16036" lon="5.86623">
        <ele>1413.38</ele>
        <time>2026-08-30T09:42:55.306Z</time>
      </trkpt>
      <trkpt lat="45.16032" lon="5.86592">
        <ele>1399.28</ele>
        <time>2026-08-30T09:42:57.310Z</time>
      </trkpt>
      <trkpt lat="45.16038" lon="5.86563">
        <ele>1393.56</ele>
        <time>2026-08-30T09:42:59.284Z</time>
      </trkpt>
      <trkpt lat="45.16008" lon="5.86545">
        <ele>1378.2</ele>
        <time>2026-08-30T09:43:02.246Z</time>
      </trkpt>
      <trkpt lat="45.15987" lon="5.86546">
        <ele>1368.9</ele>
        <time>2026-08-30T09:43:03.241Z</time>
      </trkpt>
      <trkpt lat="45.15956" lon="5.86542">
        <ele>1359.04</ele>
        <time>2026-08-30T09:43:05.309Z</time>
      </trkpt>
      <trkpt lat="45.15925" lon="5.8653">
        <ele>1355.73</ele>
        <time>2026-08-30T09:43:07.568Z</time>
      </trkpt>
      <trkpt lat="45.15912" lon="5.86499">
        <ele>1353.08</ele>
        <time>2026-08-30T09:43:09.378Z</time>
      </trkpt>
      <trkpt lat="45.15907" lon="5.86458">
        <ele>1347.46</ele>
        <time>2026-08-30T09:43:11.404Z</time>
      </trkpt>
      <trkpt lat="45.15897" lon="5.8642">
        <ele>1341.83</ele>
        <time>2026-08-30T09:43:13.505Z</time>
      </trkpt>
      <trkpt lat="45.15891" lon="5.86385">
        <ele>1336.89</ele>
        <time>2026-08-30T09:43:15.344Z</time>
      </trkpt>
      <trkpt lat="45.15888" lon="5.86346">
        <ele>1331.23</ele>
        <time>2026-08-30T09:43:17.480Z</time>
      </trkpt>
      <trkpt lat="45.15887" lon="5.8631">
        <ele>1325.86</ele>
        <time>2026-08-30T09:43:19.414Z</time>
      </trkpt>
      <trkpt lat="45.15886" lon="5.86272">
        <ele>1321.59</ele>
        <time>2026-08-30T09:43:21.457Z</time>
      </trkpt>
      <trkpt lat="45.15892" lon="5.8624">
        <ele>1317.84</ele>
        <time>2026-08-30T09:43:23.454Z</time>
      </trkpt>
      <trkpt lat="45.1591" lon="5.86221">
        <ele>1312.68</ele>
        <time>2026-08-30T09:43:25.581Z</time>
      </trkpt>
      <trkpt lat="45.15925" lon="5.86201">
        <ele>1307.48</ele>
        <time>2026-08-30T09:43:27.437Z</time>
      </trkpt>
      <trkpt lat="45.15939" lon="5.86175">
        <ele>1301.55</ele>
        <time>2026-08-30T09:43:29.560Z</time>
      </trkpt>
      <trkpt lat="45.15963" lon="5.86174">
        <ele>1294.51</ele>
        <time>2026-08-30T09:43:32.477Z</time>
      </trkpt>
      <trkpt lat="45.15983" lon="5.86166">
        <ele>1290.69</ele>
        <time>2026-08-30T09:43:34.499Z</time>
      </trkpt>
      <trkpt lat="45.16" lon="5.86152">
        <ele>1287.16</ele>
        <time>2026-08-30T09:43:36.436Z</time>
      </trkpt>
      <trkpt lat="45.16015" lon="5.86134">
        <ele>1282.54</ele>
        <time>2026-08-30T09:43:38.391Z</time>
      </trkpt>
      <trkpt lat="45.16029" lon="5.86113">
        <ele>1278.85</ele>
        <time>2026-08-30T09:43:40.399Z</time>
      </trkpt>
      <trkpt lat="45.16044" lon="5.8609">
        <ele>1275.87</ele>
        <time>2026-08-30T09:43:42.443Z</time>
      </trkpt>
      <trkpt lat="45.16058" lon="5.86067">
        <ele>1272.19</ele>
        <time>2026-08-30T09:43:44.450Z</time>
      </trkpt>
      <trkpt lat="45.16072" lon="5.86048">
        <ele>1268.01</ele>
        <time>2026-08-30T09:43:46.516Z</time>
      </trkpt>
      <trkpt lat="45.16085" lon="5.86027">
        <ele>1264.13</ele>
        <time>2026-08-30T09:43:48.436Z</time>
      </trkpt>
      <trkpt lat="45.16104" lon="5.86009">
        <ele>1261.68</ele>
        <time>2026-08-30T09:43:50.497Z</time>
      </trkpt>
      <trkpt lat="45.16123" lon="5.8601">
        <ele>1257.66</ele>
        <time>2026-08-30T09:43:52.522Z</time>
      </trkpt>
      <trkpt lat="45.16137" lon="5.86039">
        <ele>1249.82</ele>
        <time>2026-08-30T09:43:55.414Z</time>
      </trkpt>
      <trkpt lat="45.1614" lon="5.86071">
        <ele>1247.62</ele>
        <time>2026-08-30T09:43:57.449Z</time>
      </trkpt>
      <trkpt lat="45.16168" lon="5.86071">
        <ele>1238.33</ele>
        <time>2026-08-30T09:44:00.631Z</time>
      </trkpt>
      <trkpt lat="45.16178" lon="5.86037">
        <ele>1234.31</ele>
        <time>2026-08-30T09:44:02.442Z</time>
      </trkpt>
      <trkpt lat="45.16167" lon="5.86001">
        <ele>1229.74</ele>
        <time>2026-08-30T09:44:04.408Z</time>
      </trkpt>
      <trkpt lat="45.16145" lon="5.86004">
        <ele>1222.61</ele>
        <time>2026-08-30T09:44:06.224Z</time>
      </trkpt>
      <trkpt lat="45.1614" lon="5.86047">
        <ele>1212.37</ele>
        <time>2026-08-30T09:44:08.450Z</time>
      </trkpt>
      <trkpt lat="45.16169" lon="5.86071">
        <ele>1203.06</ele>
        <time>2026-08-30T09:44:10.427Z</time>
      </trkpt>
      <trkpt lat="45.16196" lon="5.86084">
        <ele>1196.84</ele>
        <time>2026-08-30T09:44:12.479Z</time>
      </trkpt>
      <trkpt lat="45.1622" lon="5.86084">
        <ele>1195.29</ele>
        <time>2026-08-30T09:44:14.438Z</time>
      </trkpt>
      <trkpt lat="45.16239" lon="5.86074">
        <ele>1191.78</ele>
        <time>2026-08-30T09:44:16.386Z</time>
      </trkpt>
      <trkpt lat="45.16254" lon="5.86054">
        <ele>1185.2</ele>
        <time>2026-08-30T09:44:18.383Z</time>
      </trkpt>
      <trkpt lat="45.16266" lon="5.86031">
        <ele>1180.95</ele>
        <time>2026-08-30T09:44:20.395Z</time>
      </trkpt>
      <trkpt lat="45.16276" lon="5.86006">
        <ele>1177</ele>
        <time>2026-08-30T09:44:22.429Z</time>
      </trkpt>
      <trkpt lat="45.16282" lon="5.85978">
        <ele>1172.38</ele>
        <time>2026-08-30T09:44:24.387Z</time>
      </trkpt>
      <trkpt lat="45.16291" lon="5.85955">
        <ele>1165.6</ele>
        <time>2026-08-30T09:44:26.431Z</time>
      </trkpt>
      <trkpt lat="45.16309" lon="5.85933">
        <ele>1161.47</ele>
        <time>2026-08-30T09:44:28.416Z</time>
      </trkpt>
      <trkpt lat="45.16335" lon="5.85912">
        <ele>1153.95</ele>
        <time>2026-08-30T09:44:31.421Z</time>
      </trkpt>
      <trkpt lat="45.16354" lon="5.85918">
        <ele>1149.42</ele>
        <time>2026-08-30T09:44:33.417Z</time>
      </trkpt>
      <trkpt lat="45.16378" lon="5.85931">
        <ele>1147.49</ele>
        <time>2026-08-30T09:44:35.508Z</time>
      </trkpt>
      <trkpt lat="45.16402" lon="5.85936">
        <ele>1143.25</ele>
        <time>2026-08-30T09:44:37.484Z</time>
      </trkpt>
      <trkpt lat="45.16424" lon="5.85942">
        <ele>1137.65</ele>
        <time>2026-08-30T09:44:39.475Z</time>
      </trkpt>
      <trkpt lat="45.16443" lon="5.85949">
        <ele>1135.38</ele>
        <time>2026-08-30T09:44:41.425Z</time>
      </trkpt>
      <trkpt lat="45.16461" lon="5.85958">
        <ele>1130.51</ele>
        <time>2026-08-30T09:44:43.559Z</time>
      </trkpt>
      <trkpt lat="45.16474" lon="5.85977">
        <ele>1128.26</ele>
        <time>2026-08-30T09:44:45.489Z</time>
      </trkpt>
      <trkpt lat="45.1647" lon="5.86006">
        <ele>1124.86</ele>
        <time>2026-08-30T09:44:47.530Z</time>
      </trkpt>
      <trkpt lat="45.16447" lon="5.8602">
        <ele>1120.45</ele>
        <time>2026-08-30T09:44:49.367Z</time>
      </trkpt>
      <trkpt lat="45.16426" lon="5.86029">
        <ele>1114.06</ele>
        <time>2026-08-30T09:44:51.374Z</time>
      </trkpt>
      <trkpt lat="45.16408" lon="5.86045">
        <ele>1108.91</ele>
        <time>2026-08-30T09:44:53.474Z</time>
      </trkpt>
      <trkpt lat="45.16389" lon="5.86052">
        <ele>1103.86</ele>
        <time>2026-08-30T09:44:55.453Z</time>
      </trkpt>
      <trkpt lat="45.1637" lon="5.86061">
        <ele>1099.94</ele>
        <time>2026-08-30T09:44:57.466Z</time>
      </trkpt>
      <trkpt lat="45.16353" lon="5.86068">
        <ele>1095.94</ele>
        <time>2026-08-30T09:44:59.468Z</time>
      </trkpt>
      <trkpt lat="45.16327" lon="5.86079">
        <ele>1091.48</ele>
        <time>2026-08-30T09:45:02.494Z</time>
      </trkpt>
      <trkpt lat="45.16309" lon="5.86084">
        <ele>1089.8</ele>
        <time>2026-08-30T09:45:04.513Z</time>
      </trkpt>
      <trkpt lat="45.16291" lon="5.86092">
        <ele>1087.07</ele>
        <time>2026-08-30T09:45:06.452Z</time>
      </trkpt>
      <trkpt lat="45.16276" lon="5.86109">
        <ele>1082.25</ele>
        <time>2026-08-30T09:45:08.537Z</time>
      </trkpt>
      <trkpt lat="45.16274" lon="5.86137">
        <ele>1077.72</ele>
        <time>2026-08-30T09:45:10.424Z</time>
      </trkpt>
      <trkpt lat="45.16288" lon="5.86166">
        <ele>1075.01</ele>
        <time>2026-08-30T09:45:12.421Z</time>
      </trkpt>
      <trkpt lat="45.16319" lon="5.86176">
        <ele>1070.71</ele>
        <time>2026-08-30T09:45:14.455Z</time>
      </trkpt>
      <trkpt lat="45.16341" lon="5.86183">
        <ele>1065.82</ele>
        <time>2026-08-30T09:45:16.486Z</time>
      </trkpt>
      <trkpt lat="45.16362" lon="5.86185">
        <ele>1063.47</ele>
        <time>2026-08-30T09:45:18.463Z</time>
      </trkpt>
      <trkpt lat="45.16385" lon="5.86181">
        <ele>1061.94</ele>
        <time>2026-08-30T09:45:20.513Z</time>
      </trkpt>
      <trkpt lat="45.16405" lon="5.86176">
        <ele>1060.63</ele>
        <time>2026-08-30T09:45:22.435Z</time>
      </trkpt>
      <trkpt lat="45.16424" lon="5.86168">
        <ele>1059</ele>
        <time>2026-08-30T09:45:24.376Z</time>
      </trkpt>
      <trkpt lat="45.16441" lon="5.86152">
        <ele>1057.6</ele>
        <time>2026-08-30T09:45:26.525Z</time>
      </trkpt>
      <trkpt lat="45.16452" lon="5.86131">
        <ele>1055.09</ele>
        <time>2026-08-30T09:45:28.418Z</time>
      </trkpt>
      <trkpt lat="45.16459" lon="5.86095">
        <ele>1052.14</ele>
        <time>2026-08-30T09:45:31.437Z</time>
      </trkpt>
      <trkpt lat="45.16455" lon="5.86069">
        <ele>1048.26</ele>
        <time>2026-08-30T09:45:33.512Z</time>
      </trkpt>
      <trkpt lat="45.16441" lon="5.86038">
        <ele>1041.07</ele>
        <time>2026-08-30T09:45:36.456Z</time>
      </trkpt>
      <trkpt lat="45.16422" lon="5.86014">
        <ele>1032.92</ele>
        <time>2026-08-30T09:45:39.503Z</time>
      </trkpt>
      <trkpt lat="45.164" lon="5.85998">
        <ele>1027.08</ele>
        <time>2026-08-30T09:45:42.427Z</time>
      </trkpt>
      <trkpt lat="45.16377" lon="5.85986">
        <ele>1019.58</ele>
        <time>2026-08-30T09:45:45.394Z</time>
      </trkpt>
      <trkpt lat="45.16351" lon="5.85977">
        <ele>1010.23</ele>
        <time>2026-08-30T09:45:48.511Z</time>
      </trkpt>
      <trkpt lat="45.16327" lon="5.85968">
        <ele>1003.26</ele>
        <time>2026-08-30T09:45:51.451Z</time>
      </trkpt>
      <trkpt lat="45.16302" lon="5.85965">
        <ele>995.85</ele>
        <time>2026-08-30T09:45:54.529Z</time>
      </trkpt>
      <trkpt lat="45.16277" lon="5.85965">
        <ele>989.22</ele>
        <time>2026-08-30T09:45:57.451Z</time>
      </trkpt>
      <trkpt lat="45.16258" lon="5.85969">
        <ele>984.38</ele>
        <time>2026-08-30T09:45:59.469Z</time>
      </trkpt>
      <trkpt lat="45.16238" lon="5.85978">
        <ele>978.62</ele>
        <time>2026-08-30T09:46:01.564Z</time>
      </trkpt>
      <trkpt lat="45.16215" lon="5.85995">
        <ele>972.9</ele>
        <time>2026-08-30T09:46:04.435Z</time>
      </trkpt>
      <trkpt lat="45.16204" lon="5.86022">
        <ele>969.59</ele>
        <time>2026-08-30T09:46:06.479Z</time>
      </trkpt>
      <trkpt lat="45.16204" lon="5.86055">
        <ele>966.47</ele>
        <time>2026-08-30T09:46:08.415Z</time>
      </trkpt>
      <trkpt lat="45.16231" lon="5.86078">
        <ele>960.04</ele>
        <time>2026-08-30T09:46:10.482Z</time>
      </trkpt>
      <trkpt lat="45.16258" lon="5.86084">
        <ele>956.33</ele>
        <time>2026-08-30T09:46:12.427Z</time>
      </trkpt>
      <trkpt lat="45.16281" lon="5.86088">
        <ele>949.98</ele>
        <time>2026-08-30T09:46:14.497Z</time>
      </trkpt>
      <trkpt lat="45.16303" lon="5.86088">
        <ele>945.37</ele>
        <time>2026-08-30T09:46:16.385Z</time>
      </trkpt>
      <trkpt lat="45.16327" lon="5.86087">
        <ele>941.16</ele>
        <time>2026-08-30T09:46:18.544Z</time>
      </trkpt>
      <trkpt lat="45.16347" lon="5.86086">
        <ele>935.21</ele>
        <time>2026-08-30T09:46:20.504Z</time>
      </trkpt>
      <trkpt lat="45.16369" lon="5.86089">
        <ele>929.41</ele>
        <time>2026-08-30T09:46:22.388Z</time>
      </trkpt>
      <trkpt lat="45.16393" lon="5.86093">
        <ele>924.14</ele>
        <time>2026-08-30T09:46:24.530Z</time>
      </trkpt>
      <trkpt lat="45.16409" lon="5.86107">
        <ele>917.66</ele>
        <time>2026-08-30T09:46:26.382Z</time>
      </trkpt>
      <trkpt lat="45.16421" lon="5.86134">
        <ele>911.44</ele>
        <time>2026-08-30T09:46:28.480Z</time>
      </trkpt>
      <trkpt lat="45.16422" lon="5.86165">
        <ele>908.72</ele>
        <time>2026-08-30T09:46:30.417Z</time>
      </trkpt>
      <trkpt lat="45.16408" lon="5.86196">
        <ele>904.25</ele>
        <time>2026-08-30T09:46:32.370Z</time>
      </trkpt>
      <trkpt lat="45.16384" lon="5.86208">
        <ele>897.55</ele>
        <time>2026-08-30T09:46:34.391Z</time>
      </trkpt>
      <trkpt lat="45.1636" lon="5.86206">
        <ele>891.98</ele>
        <time>2026-08-30T09:46:36.404Z</time>
      </trkpt>
      <trkpt lat="45.16337" lon="5.86202">
        <ele>886.57</ele>
        <time>2026-08-30T09:46:38.476Z</time>
      </trkpt>
      <trkpt lat="45.16321" lon="5.86191">
        <ele>881.12</ele>
        <time>2026-08-30T09:46:41.402Z</time>
      </trkpt>
      <trkpt lat="45.16305" lon="5.86178">
        <ele>896.88</ele>
        <time>2026-08-30T09:51:40.436Z</time>
      </trkpt>
      <trkpt lat="45.16291" lon="5.86161">
        <ele>900.01</ele>
        <time>2026-08-30T09:55:49.163Z</time>
      </trkpt>
      <trkpt lat="45.16275" lon="5.86148">
        <ele>900.58</ele>
        <time>2026-08-30T09:56:02.842Z</time>
      </trkpt>
      <trkpt lat="45.16259" lon="5.86137">
        <ele>901.48</ele>
        <time>2026-08-30T09:56:40.278Z</time>
      </trkpt>
      <trkpt lat="45.16241" lon="5.86131">
        <ele>903.22</ele>
        <time>2026-08-30T09:57:23.563Z</time>
      </trkpt>
      <trkpt lat="45.16223" lon="5.86124">
        <ele>904.14</ele>
        <time>2026-08-30T09:57:39.255Z</time>
      </trkpt>
      <trkpt lat="45.16206" lon="5.86118">
        <ele>903.46</ele>
        <time>2026-08-30T09:57:52.903Z</time>
      </trkpt>
      <trkpt lat="45.16187" lon="5.8611">
        <ele>903.05</ele>
        <time>2026-08-30T09:58:06.156Z</time>
      </trkpt>
      <trkpt lat="45.1617" lon="5.86107">
        <ele>900.84</ele>
        <time>2026-08-30T09:58:20.597Z</time>
      </trkpt>
      <trkpt lat="45.16158" lon="5.86086">
        <ele>901.08</ele>
        <time>2026-08-30T09:58:34.503Z</time>
      </trkpt>
      <trkpt lat="45.1614" lon="5.86089">
        <ele>900.4</ele>
        <time>2026-08-30T09:58:47.156Z</time>
      </trkpt>
      <trkpt lat="45.16121" lon="5.86091">
        <ele>899.25</ele>
        <time>2026-08-30T09:59:01.079Z</time>
      </trkpt>
      <trkpt lat="45.16103" lon="5.86091">
        <ele>899.53</ele>
        <time>2026-08-30T09:59:17.294Z</time>
      </trkpt>
      <trkpt lat="45.16085" lon="5.86098">
        <ele>900.48</ele>
        <time>2026-08-30T09:59:29.292Z</time>
      </trkpt>
      <trkpt lat="45.16068" lon="5.86108">
        <ele>900.89</ele>
        <time>2026-08-30T09:59:44.236Z</time>
      </trkpt>
      <trkpt lat="45.16051" lon="5.86122">
        <ele>903.07</ele>
        <time>2026-08-30T09:59:57.272Z</time>
      </trkpt>
      <trkpt lat="45.16034" lon="5.86135">
        <ele>903.98</ele>
        <time>2026-08-30T10:00:10.275Z</time>
      </trkpt>
      <trkpt lat="45.16018" lon="5.8615">
        <ele>903.09</ele>
        <time>2026-08-30T10:02:05.713Z</time>
      </trkpt>
      <trkpt lat="45.16005" lon="5.86167">
        <ele>905.94</ele>
        <time>2026-08-30T10:02:16.873Z</time>
      </trkpt>
      <trkpt lat="45.15992" lon="5.86185">
        <ele>907.63</ele>
        <time>2026-08-30T10:02:32.248Z</time>
      </trkpt>
      <trkpt lat="45.1598" lon="5.86205">
        <ele>909.58</ele>
        <time>2026-08-30T10:02:47.192Z</time>
      </trkpt>
      <trkpt lat="45.15968" lon="5.86224">
        <ele>912.14</ele>
        <time>2026-08-30T10:03:02.236Z</time>
      </trkpt>
      <trkpt lat="45.15953" lon="5.86239">
        <ele>915.49</ele>
        <time>2026-08-30T10:03:17.390Z</time>
      </trkpt>
      <trkpt lat="45.15937" lon="5.86251">
        <ele>919.16</ele>
        <time>2026-08-30T10:03:32.915Z</time>
      </trkpt>
      <trkpt lat="45.15925" lon="5.86271">
        <ele>920.49</ele>
        <time>2026-08-30T10:03:49.441Z</time>
      </trkpt>
      <trkpt lat="45.15909" lon="5.86279">
        <ele>924.09</ele>
        <time>2026-08-30T10:04:04.545Z</time>
      </trkpt>
      <trkpt lat="45.15895" lon="5.86297">
        <ele>926.04</ele>
        <time>2026-08-30T10:04:21.048Z</time>
      </trkpt>
      <trkpt lat="45.15883" lon="5.86317">
        <ele>929.51</ele>
        <time>2026-08-30T10:04:36.907Z</time>
      </trkpt>
      <trkpt lat="45.15876" lon="5.86342">
        <ele>933.76</ele>
        <time>2026-08-30T10:04:54.123Z</time>
      </trkpt>
      <trkpt lat="45.15864" lon="5.86361">
        <ele>937.3</ele>
        <time>2026-08-30T10:05:10.326Z</time>
      </trkpt>
      <trkpt lat="45.1585" lon="5.86379">
        <ele>941.23</ele>
        <time>2026-08-30T10:05:27.143Z</time>
      </trkpt>
      <trkpt lat="45.15836" lon="5.86396">
        <ele>945.7</ele>
        <time>2026-08-30T10:05:47.401Z</time>
      </trkpt>
      <trkpt lat="45.15823" lon="5.86415">
        <ele>949.4</ele>
        <time>2026-08-30T10:06:06.800Z</time>
      </trkpt>
      <trkpt lat="45.15812" lon="5.86436">
        <ele>955.44</ele>
        <time>2026-08-30T10:06:30.763Z</time>
      </trkpt>
      <trkpt lat="45.158" lon="5.86455">
        <ele>957.54</ele>
        <time>2026-08-30T10:06:57.887Z</time>
      </trkpt>
      <trkpt lat="45.15786" lon="5.86471">
        <ele>960.53</ele>
        <time>2026-08-30T10:07:12.943Z</time>
      </trkpt>
      <trkpt lat="45.1577" lon="5.86483">
        <ele>963.12</ele>
        <time>2026-08-30T10:07:29.350Z</time>
      </trkpt>
      <trkpt lat="45.15756" lon="5.86499">
        <ele>965.47</ele>
        <time>2026-08-30T10:07:44.822Z</time>
      </trkpt>
      <trkpt lat="45.15742" lon="5.86517">
        <ele>968.18</ele>
        <time>2026-08-30T10:08:00.027Z</time>
      </trkpt>
      <trkpt lat="45.15727" lon="5.86533">
        <ele>971.57</ele>
        <time>2026-08-30T10:08:16.304Z</time>
      </trkpt>
      <trkpt lat="45.15713" lon="5.86548">
        <ele>973.25</ele>
        <time>2026-08-30T10:08:30.966Z</time>
      </trkpt>
      <trkpt lat="45.157" lon="5.86566">
        <ele>976.18</ele>
        <time>2026-08-30T10:08:44.830Z</time>
      </trkpt>
      <trkpt lat="45.15685" lon="5.8658">
        <ele>979.02</ele>
        <time>2026-08-30T10:08:59.743Z</time>
      </trkpt>
      <trkpt lat="45.15666" lon="5.86582">
        <ele>981.61</ele>
        <time>2026-08-30T10:09:15.287Z</time>
      </trkpt>
      <trkpt lat="45.15648" lon="5.8658">
        <ele>985.68</ele>
        <time>2026-08-30T10:09:32.845Z</time>
      </trkpt>
      <trkpt lat="45.15636" lon="5.86599">
        <ele>988.97</ele>
        <time>2026-08-30T10:09:50.301Z</time>
      </trkpt>
      <trkpt lat="45.15625" lon="5.86621">
        <ele>991.87</ele>
        <time>2026-08-30T10:10:06.342Z</time>
      </trkpt>
      <trkpt lat="45.15607" lon="5.86629">
        <ele>994.86</ele>
        <time>2026-08-30T10:10:21.961Z</time>
      </trkpt>
      <trkpt lat="45.15589" lon="5.86633">
        <ele>998.29</ele>
        <time>2026-08-30T10:10:37.347Z</time>
      </trkpt>
      <trkpt lat="45.15572" lon="5.86641">
        <ele>1001.21</ele>
        <time>2026-08-30T10:10:52.801Z</time>
      </trkpt>
      <trkpt lat="45.15553" lon="5.86647">
        <ele>1004.08</ele>
        <time>2026-08-30T10:11:08.375Z</time>
      </trkpt>
      <trkpt lat="45.15536" lon="5.86654">
        <ele>1006.47</ele>
        <time>2026-08-30T10:11:21.628Z</time>
      </trkpt>
      <trkpt lat="45.15518" lon="5.86661">
        <ele>1009.06</ele>
        <time>2026-08-30T10:11:37.262Z</time>
      </trkpt>
      <trkpt lat="45.15501" lon="5.86671">
        <ele>1012.62</ele>
        <time>2026-08-30T10:11:52.406Z</time>
      </trkpt>
      <trkpt lat="45.15483" lon="5.86678">
        <ele>1016.12</ele>
        <time>2026-08-30T10:12:08.803Z</time>
      </trkpt>
      <trkpt lat="45.15466" lon="5.86686">
        <ele>1018.55</ele>
        <time>2026-08-30T10:12:24.067Z</time>
      </trkpt>
      <trkpt lat="45.15456" lon="5.86709">
        <ele>1020.58</ele>
        <time>2026-08-30T10:12:37.820Z</time>
      </trkpt>
      <trkpt lat="45.15451" lon="5.86734">
        <ele>1021.47</ele>
        <time>2026-08-30T10:12:51.498Z</time>
      </trkpt>
      <trkpt lat="45.15435" lon="5.8675">
        <ele>1024.22</ele>
        <time>2026-08-30T10:13:06.527Z</time>
      </trkpt>
      <trkpt lat="45.15427" lon="5.86773">
        <ele>1026.9</ele>
        <time>2026-08-30T10:14:02.110Z</time>
      </trkpt>
      <trkpt lat="45.15425" lon="5.86799">
        <ele>1029.45</ele>
        <time>2026-08-30T10:14:18.386Z</time>
      </trkpt>
      <trkpt lat="45.15438" lon="5.86817">
        <ele>1033.75</ele>
        <time>2026-08-30T10:14:32.018Z</time>
      </trkpt>
      <trkpt lat="45.15449" lon="5.86839">
        <ele>1035.04</ele>
        <time>2026-08-30T10:14:47.263Z</time>
      </trkpt>
      <trkpt lat="45.15459" lon="5.86861">
        <ele>1038.64</ele>
        <time>2026-08-30T10:15:07.963Z</time>
      </trkpt>
      <trkpt lat="45.15467" lon="5.86884">
        <ele>1040.94</ele>
        <time>2026-08-30T10:15:20.985Z</time>
      </trkpt>
      <trkpt lat="45.15478" lon="5.86905">
        <ele>1043.74</ele>
        <time>2026-08-30T10:15:33.856Z</time>
      </trkpt>
      <trkpt lat="45.15484" lon="5.8693">
        <ele>1047.63</ele>
        <time>2026-08-30T10:15:52.885Z</time>
      </trkpt>
      <trkpt lat="45.15483" lon="5.86955">
        <ele>1050.41</ele>
        <time>2026-08-30T10:16:08.659Z</time>
      </trkpt>
      <trkpt lat="45.15479" lon="5.8698">
        <ele>1053.56</ele>
        <time>2026-08-30T10:16:24.283Z</time>
      </trkpt>
      <trkpt lat="45.15479" lon="5.87007">
        <ele>1055.75</ele>
        <time>2026-08-30T10:16:40.297Z</time>
      </trkpt>
      <trkpt lat="45.15483" lon="5.87032">
        <ele>1058.87</ele>
        <time>2026-08-30T10:16:55.701Z</time>
      </trkpt>
      <trkpt lat="45.15482" lon="5.87058">
        <ele>1062.04</ele>
        <time>2026-08-30T10:17:11.344Z</time>
      </trkpt>
      <trkpt lat="45.15474" lon="5.87081">
        <ele>1062.93</ele>
        <time>2026-08-30T10:17:25.257Z</time>
      </trkpt>
      <trkpt lat="45.15457" lon="5.87091">
        <ele>1064.22</ele>
        <time>2026-08-30T10:17:36.056Z</time>
      </trkpt>
      <trkpt lat="45.15439" lon="5.87093">
        <ele>1065.48</ele>
        <time>2026-08-30T10:17:50.839Z</time>
      </trkpt>
      <trkpt lat="45.15421" lon="5.87084">
        <ele>1067.63</ele>
        <time>2026-08-30T10:18:05.143Z</time>
      </trkpt>
      <trkpt lat="45.15405" lon="5.87097">
        <ele>1069.06</ele>
        <time>2026-08-30T10:18:18.345Z</time>
      </trkpt>
      <trkpt lat="45.15393" lon="5.87117">
        <ele>1070.64</ele>
        <time>2026-08-30T10:18:33.078Z</time>
      </trkpt>
      <trkpt lat="45.15384" lon="5.8714">
        <ele>1072.79</ele>
        <time>2026-08-30T10:18:47.941Z</time>
      </trkpt>
      <trkpt lat="45.15373" lon="5.8716">
        <ele>1075.09</ele>
        <time>2026-08-30T10:19:02.324Z</time>
      </trkpt>
      <trkpt lat="45.15361" lon="5.87179">
        <ele>1077.74</ele>
        <time>2026-08-30T10:19:16.837Z</time>
      </trkpt>
      <trkpt lat="45.15348" lon="5.87197">
        <ele>1080.06</ele>
        <time>2026-08-30T10:19:28.998Z</time>
      </trkpt>
      <trkpt lat="45.15336" lon="5.87216">
        <ele>1081.55</ele>
        <time>2026-08-30T10:19:43.279Z</time>
      </trkpt>
      <trkpt lat="45.15326" lon="5.87238">
        <ele>1082.87</ele>
        <time>2026-08-30T10:19:57.401Z</time>
      </trkpt>
      <trkpt lat="45.15316" lon="5.8726">
        <ele>1084.5</ele>
        <time>2026-08-30T10:20:11.665Z</time>
      </trkpt>
      <trkpt lat="45.15308" lon="5.87284">
        <ele>1087.16</ele>
        <time>2026-08-30T10:20:26.177Z</time>
      </trkpt>
      <trkpt lat="45.15301" lon="5.87307">
        <ele>1089.7</ele>
        <time>2026-08-30T10:20:40.880Z</time>
      </trkpt>
      <trkpt lat="45.15301" lon="5.87333">
        <ele>1091.16</ele>
        <time>2026-08-30T10:20:53.822Z</time>
      </trkpt>
      <trkpt lat="45.153" lon="5.8736">
        <ele>1092.45</ele>
        <time>2026-08-30T10:21:07.242Z</time>
      </trkpt>
      <trkpt lat="45.15301" lon="5.87386">
        <ele>1092.99</ele>
        <time>2026-08-30T10:21:22.055Z</time>
      </trkpt>
      <trkpt lat="45.15303" lon="5.87412">
        <ele>1097.23</ele>
        <time>2026-08-30T10:21:38.239Z</time>
      </trkpt>
      <trkpt lat="45.15302" lon="5.87438">
        <ele>1100.12</ele>
        <time>2026-08-30T10:21:53.562Z</time>
      </trkpt>
      <trkpt lat="45.153" lon="5.87464">
        <ele>1103.74</ele>
        <time>2026-08-30T10:22:19.124Z</time>
      </trkpt>
      <trkpt lat="45.15301" lon="5.87491">
        <ele>1106.63</ele>
        <time>2026-08-30T10:22:35.239Z</time>
      </trkpt>
      <trkpt lat="45.15297" lon="5.87517">
        <ele>1109.38</ele>
        <time>2026-08-30T10:22:51.082Z</time>
      </trkpt>
      <trkpt lat="45.15294" lon="5.87543">
        <ele>1112.34</ele>
        <time>2026-08-30T10:23:07.136Z</time>
      </trkpt>
      <trkpt lat="45.15296" lon="5.87568">
        <ele>1114.97</ele>
        <time>2026-08-30T10:23:23.079Z</time>
      </trkpt>
      <trkpt lat="45.15295" lon="5.87594">
        <ele>1118.13</ele>
        <time>2026-08-30T10:23:38.742Z</time>
      </trkpt>
      <trkpt lat="45.15289" lon="5.8762">
        <ele>1121.59</ele>
        <time>2026-08-30T10:23:55.838Z</time>
      </trkpt>
      <trkpt lat="45.15284" lon="5.87644">
        <ele>1124.15</ele>
        <time>2026-08-30T10:24:12.682Z</time>
      </trkpt>
      <trkpt lat="45.15277" lon="5.87668">
        <ele>1127.2</ele>
        <time>2026-08-30T10:24:29.226Z</time>
      </trkpt>
      <trkpt lat="45.15269" lon="5.87692">
        <ele>1129.88</ele>
        <time>2026-08-30T10:24:45.239Z</time>
      </trkpt>
      <trkpt lat="45.15262" lon="5.87717">
        <ele>1133.7</ele>
        <time>2026-08-30T10:25:02.082Z</time>
      </trkpt>
      <trkpt lat="45.15256" lon="5.87741">
        <ele>1136.39</ele>
        <time>2026-08-30T10:25:18.017Z</time>
      </trkpt>
      <trkpt lat="45.15252" lon="5.87766">
        <ele>1139.61</ele>
        <time>2026-08-30T10:25:34.000Z</time>
      </trkpt>
      <trkpt lat="45.15244" lon="5.87789">
        <ele>1142.34</ele>
        <time>2026-08-30T10:25:49.623Z</time>
      </trkpt>
      <trkpt lat="45.15233" lon="5.8781">
        <ele>1144.31</ele>
        <time>2026-08-30T10:26:05.195Z</time>
      </trkpt>
      <trkpt lat="45.15225" lon="5.87834">
        <ele>1147.88</ele>
        <time>2026-08-30T10:26:20.879Z</time>
      </trkpt>
      <trkpt lat="45.15216" lon="5.87856">
        <ele>1151.58</ele>
        <time>2026-08-30T10:26:38.365Z</time>
      </trkpt>
      <trkpt lat="45.152" lon="5.87869">
        <ele>1156</ele>
        <time>2026-08-30T10:27:33.348Z</time>
      </trkpt>
      <trkpt lat="45.15188" lon="5.87888">
        <ele>1160.4</ele>
        <time>2026-08-30T10:28:03.743Z</time>
      </trkpt>
      <trkpt lat="45.15179" lon="5.87911">
        <ele>1163.54</ele>
        <time>2026-08-30T10:28:24.078Z</time>
      </trkpt>
      <trkpt lat="45.15171" lon="5.87934">
        <ele>1165.5</ele>
        <time>2026-08-30T10:28:40.945Z</time>
      </trkpt>
      <trkpt lat="45.1516" lon="5.87954">
        <ele>1167.09</ele>
        <time>2026-08-30T10:28:58.778Z</time>
      </trkpt>
      <trkpt lat="45.15154" lon="5.87979">
        <ele>1168.29</ele>
        <time>2026-08-30T10:29:12.319Z</time>
      </trkpt>
      <trkpt lat="45.15147" lon="5.88003">
        <ele>1170.8</ele>
        <time>2026-08-30T10:29:28.583Z</time>
      </trkpt>
      <trkpt lat="45.15141" lon="5.88027">
        <ele>1174.42</ele>
        <time>2026-08-30T10:29:44.696Z</time>
      </trkpt>
      <trkpt lat="45.15132" lon="5.8805">
        <ele>1175.68</ele>
        <time>2026-08-30T10:30:01.259Z</time>
      </trkpt>
      <trkpt lat="45.15127" lon="5.88075">
        <ele>1180.03</ele>
        <time>2026-08-30T10:30:17.523Z</time>
      </trkpt>
      <trkpt lat="45.15123" lon="5.881">
        <ele>1183.42</ele>
        <time>2026-08-30T10:30:36.217Z</time>
      </trkpt>
      <trkpt lat="45.15118" lon="5.88126">
        <ele>1185.98</ele>
        <time>2026-08-30T10:30:53.982Z</time>
      </trkpt>
      <trkpt lat="45.15111" lon="5.8815">
        <ele>1189.18</ele>
        <time>2026-08-30T10:31:10.366Z</time>
      </trkpt>
      <trkpt lat="45.15106" lon="5.88175">
        <ele>1193.18</ele>
        <time>2026-08-30T10:31:28.940Z</time>
      </trkpt>
      <trkpt lat="45.15096" lon="5.88198">
        <ele>1196.7</ele>
        <time>2026-08-30T10:31:46.424Z</time>
      </trkpt>
      <trkpt lat="45.15084" lon="5.88218">
        <ele>1199.48</ele>
        <time>2026-08-30T10:32:01.617Z</time>
      </trkpt>
      <trkpt lat="45.15073" lon="5.88238">
        <ele>1202.05</ele>
        <time>2026-08-30T10:32:18.859Z</time>
      </trkpt>
      <trkpt lat="45.15064" lon="5.88262">
        <ele>1204.53</ele>
        <time>2026-08-30T10:32:35.353Z</time>
      </trkpt>
      <trkpt lat="45.15053" lon="5.88282">
        <ele>1207.45</ele>
        <time>2026-08-30T10:32:52.237Z</time>
      </trkpt>
      <trkpt lat="45.15043" lon="5.88304">
        <ele>1211.52</ele>
        <time>2026-08-30T10:33:09.501Z</time>
      </trkpt>
      <trkpt lat="45.15035" lon="5.88327">
        <ele>1215.17</ele>
        <time>2026-08-30T10:33:26.324Z</time>
      </trkpt>
      <trkpt lat="45.15025" lon="5.88349">
        <ele>1217.92</ele>
        <time>2026-08-30T10:33:43.218Z</time>
      </trkpt>
      <trkpt lat="45.15017" lon="5.88372">
        <ele>1221.1</ele>
        <time>2026-08-30T10:34:00.140Z</time>
      </trkpt>
      <trkpt lat="45.15006" lon="5.88392">
        <ele>1224.13</ele>
        <time>2026-08-30T10:34:17.925Z</time>
      </trkpt>
      <trkpt lat="45.14995" lon="5.88414">
        <ele>1227.72</ele>
        <time>2026-08-30T10:34:33.978Z</time>
      </trkpt>
      <trkpt lat="45.14983" lon="5.88433">
        <ele>1230.41</ele>
        <time>2026-08-30T10:34:51.342Z</time>
      </trkpt>
      <trkpt lat="45.14972" lon="5.88454">
        <ele>1234.59</ele>
        <time>2026-08-30T10:35:10.536Z</time>
      </trkpt>
      <trkpt lat="45.1496" lon="5.88473">
        <ele>1237.47</ele>
        <time>2026-08-30T10:35:27.040Z</time>
      </trkpt>
      <trkpt lat="45.14949" lon="5.88494">
        <ele>1240.87</ele>
        <time>2026-08-30T10:35:44.924Z</time>
      </trkpt>
      <trkpt lat="45.14936" lon="5.88513">
        <ele>1244.44</ele>
        <time>2026-08-30T10:36:01.937Z</time>
      </trkpt>
      <trkpt lat="45.14925" lon="5.88533">
        <ele>1247.52</ele>
        <time>2026-08-30T10:36:18.779Z</time>
      </trkpt>
      <trkpt lat="45.1491" lon="5.88547">
        <ele>1250.59</ele>
        <time>2026-08-30T10:36:34.292Z</time>
      </trkpt>
      <trkpt lat="45.14892" lon="5.88557">
        <ele>1252.57</ele>
        <time>2026-08-30T10:36:48.704Z</time>
      </trkpt>
      <trkpt lat="45.14877" lon="5.88569">
        <ele>1256.53</ele>
        <time>2026-08-30T10:37:05.117Z</time>
      </trkpt>
      <trkpt lat="45.14859" lon="5.88576">
        <ele>1259.94</ele>
        <time>2026-08-30T10:37:21.119Z</time>
      </trkpt>
      <trkpt lat="45.14842" lon="5.88585">
        <ele>1262.07</ele>
        <time>2026-08-30T10:37:43.717Z</time>
      </trkpt>
      <trkpt lat="45.14824" lon="5.8859">
        <ele>1265.51</ele>
        <time>2026-08-30T10:38:00.679Z</time>
      </trkpt>
      <trkpt lat="45.14811" lon="5.88572">
        <ele>1268.91</ele>
        <time>2026-08-30T10:40:54.354Z</time>
      </trkpt>
      <trkpt lat="45.14797" lon="5.88587">
        <ele>1272.14</ele>
        <time>2026-08-30T10:43:11.450Z</time>
      </trkpt>
      <trkpt lat="45.14779" lon="5.88594">
        <ele>1271.49</ele>
        <time>2026-08-30T10:43:25.010Z</time>
      </trkpt>
      <trkpt lat="45.14762" lon="5.88599">
        <ele>1274.11</ele>
        <time>2026-08-30T10:43:40.024Z</time>
      </trkpt>
      <trkpt lat="45.14744" lon="5.88606">
        <ele>1277.52</ele>
        <time>2026-08-30T10:43:57.948Z</time>
      </trkpt>
      <trkpt lat="45.14727" lon="5.88618">
        <ele>1280.64</ele>
        <time>2026-08-30T10:44:16.924Z</time>
      </trkpt>
      <trkpt lat="45.1471" lon="5.88624">
        <ele>1284.18</ele>
        <time>2026-08-30T10:44:33.528Z</time>
      </trkpt>
      <trkpt lat="45.14693" lon="5.88636">
        <ele>1287.13</ele>
        <time>2026-08-30T10:44:48.131Z</time>
      </trkpt>
      <trkpt lat="45.14676" lon="5.88646">
        <ele>1290.42</ele>
        <time>2026-08-30T10:45:05.926Z</time>
      </trkpt>
      <trkpt lat="45.14659" lon="5.88656">
        <ele>1293.53</ele>
        <time>2026-08-30T10:45:25.372Z</time>
      </trkpt>
      <trkpt lat="45.14642" lon="5.88665">
        <ele>1297.45</ele>
        <time>2026-08-30T10:45:41.304Z</time>
      </trkpt>
      <trkpt lat="45.14625" lon="5.88673">
        <ele>1301.58</ele>
        <time>2026-08-30T10:45:56.607Z</time>
      </trkpt>
      <trkpt lat="45.14607" lon="5.88683">
        <ele>1304.28</ele>
        <time>2026-08-30T10:46:22.029Z</time>
      </trkpt>
      <trkpt lat="45.14595" lon="5.88702">
        <ele>1307.36</ele>
        <time>2026-08-30T10:46:35.510Z</time>
      </trkpt>
      <trkpt lat="45.14587" lon="5.88726">
        <ele>1309.5</ele>
        <time>2026-08-30T10:46:50.661Z</time>
      </trkpt>
      <trkpt lat="45.14575" lon="5.88745">
        <ele>1309.31</ele>
        <time>2026-08-30T10:47:02.271Z</time>
      </trkpt>
      <trkpt lat="45.14563" lon="5.88764">
        <ele>1310.43</ele>
        <time>2026-08-30T10:47:14.691Z</time>
      </trkpt>
      <trkpt lat="45.14547" lon="5.88777">
        <ele>1312.39</ele>
        <time>2026-08-30T10:47:28.322Z</time>
      </trkpt>
      <trkpt lat="45.14529" lon="5.88785">
        <ele>1314.94</ele>
        <time>2026-08-30T10:47:43.566Z</time>
      </trkpt>
      <trkpt lat="45.14511" lon="5.88789">
        <ele>1312.65</ele>
        <time>2026-08-30T10:47:52.984Z</time>
      </trkpt>
      <trkpt lat="45.14494" lon="5.888">
        <ele>1312.82</ele>
        <time>2026-08-30T10:48:07.284Z</time>
      </trkpt>
      <trkpt lat="45.14477" lon="5.88807">
        <ele>1315.73</ele>
        <time>2026-08-30T10:48:20.987Z</time>
      </trkpt>
      <trkpt lat="45.14459" lon="5.88816">
        <ele>1318.36</ele>
        <time>2026-08-30T10:48:38.022Z</time>
      </trkpt>
      <trkpt lat="45.14441" lon="5.8882">
        <ele>1319.57</ele>
        <time>2026-08-30T10:48:49.346Z</time>
      </trkpt>
      <trkpt lat="45.14423" lon="5.88816">
        <ele>1321.16</ele>
        <time>2026-08-30T10:49:00.832Z</time>
      </trkpt>
      <trkpt lat="45.14405" lon="5.88816">
        <ele>1322.92</ele>
        <time>2026-08-30T10:49:18.266Z</time>
      </trkpt>
      <trkpt lat="45.14386" lon="5.88812">
        <ele>1326.08</ele>
        <time>2026-08-30T10:49:31.867Z</time>
      </trkpt>
      <trkpt lat="45.14368" lon="5.88814">
        <ele>1327.64</ele>
        <time>2026-08-30T10:49:46.550Z</time>
      </trkpt>
      <trkpt lat="45.1435" lon="5.8881">
        <ele>1330.61</ele>
        <time>2026-08-30T10:50:03.063Z</time>
      </trkpt>
      <trkpt lat="45.14332" lon="5.88812">
        <ele>1333.31</ele>
        <time>2026-08-30T10:50:22.669Z</time>
      </trkpt>
      <trkpt lat="45.14316" lon="5.888">
        <ele>1337.67</ele>
        <time>2026-08-30T10:50:40.704Z</time>
      </trkpt>
      <trkpt lat="45.14298" lon="5.88806">
        <ele>1345.46</ele>
        <time>2026-08-30T10:51:08.307Z</time>
      </trkpt>
      <trkpt lat="45.1428" lon="5.88799">
        <ele>1349.83</ele>
        <time>2026-08-30T10:51:25.246Z</time>
      </trkpt>
      <trkpt lat="45.14262" lon="5.88794">
        <ele>1354.02</ele>
        <time>2026-08-30T10:51:47.210Z</time>
      </trkpt>
      <trkpt lat="45.14244" lon="5.88795">
        <ele>1358.28</ele>
        <time>2026-08-30T10:52:06.189Z</time>
      </trkpt>
      <trkpt lat="45.14226" lon="5.88791">
        <ele>1361.31</ele>
        <time>2026-08-30T10:52:25.051Z</time>
      </trkpt>
      <trkpt lat="45.14207" lon="5.8879">
        <ele>1368.36</ele>
        <time>2026-08-30T10:52:51.291Z</time>
      </trkpt>
      <trkpt lat="45.14193" lon="5.88807">
        <ele>1371.69</ele>
        <time>2026-08-30T10:53:03.212Z</time>
      </trkpt>
      <trkpt lat="45.14181" lon="5.88827">
        <ele>1373.33</ele>
        <time>2026-08-30T10:53:12.710Z</time>
      </trkpt>
      <trkpt lat="45.14164" lon="5.88839">
        <ele>1376.07</ele>
        <time>2026-08-30T10:53:26.230Z</time>
      </trkpt>
      <trkpt lat="45.14147" lon="5.8885">
        <ele>1379.77</ele>
        <time>2026-08-30T10:53:45.046Z</time>
      </trkpt>
      <trkpt lat="45.14129" lon="5.88857">
        <ele>1381.25</ele>
        <time>2026-08-30T10:53:59.807Z</time>
      </trkpt>
      <trkpt lat="45.14111" lon="5.88857">
        <ele>1383.12</ele>
        <time>2026-08-30T10:54:13.588Z</time>
      </trkpt>
      <trkpt lat="45.14093" lon="5.88855">
        <ele>1384.83</ele>
        <time>2026-08-30T10:54:48.448Z</time>
      </trkpt>
      <trkpt lat="45.14075" lon="5.88858">
        <ele>1388.62</ele>
        <time>2026-08-30T10:55:05.348Z</time>
      </trkpt>
      <trkpt lat="45.14057" lon="5.88866">
        <ele>1391.32</ele>
        <time>2026-08-30T10:55:21.824Z</time>
      </trkpt>
      <trkpt lat="45.14041" lon="5.88876">
        <ele>1395.51</ele>
        <time>2026-08-30T10:55:39.850Z</time>
      </trkpt>
      <trkpt lat="45.14025" lon="5.88889">
        <ele>1397.13</ele>
        <time>2026-08-30T10:55:52.849Z</time>
      </trkpt>
      <trkpt lat="45.1401" lon="5.88904">
        <ele>1399.91</ele>
        <time>2026-08-30T10:56:07.001Z</time>
      </trkpt>
      <trkpt lat="45.13997" lon="5.88923">
        <ele>1402.68</ele>
        <time>2026-08-30T10:56:23.744Z</time>
      </trkpt>
      <trkpt lat="45.13981" lon="5.88936">
        <ele>1406.39</ele>
        <time>2026-08-30T10:56:40.228Z</time>
      </trkpt>
      <trkpt lat="45.13964" lon="5.88928">
        <ele>1406.52</ele>
        <time>2026-08-30T10:56:55.271Z</time>
      </trkpt>
      <trkpt lat="45.13946" lon="5.8892">
        <ele>1409.68</ele>
        <time>2026-08-30T10:57:12.445Z</time>
      </trkpt>
      <trkpt lat="45.13933" lon="5.88903">
        <ele>1415.05</ele>
        <time>2026-08-30T10:57:35.062Z</time>
      </trkpt>
      <trkpt lat="45.13926" lon="5.88879">
        <ele>1419.5</ele>
        <time>2026-08-30T10:57:56.271Z</time>
      </trkpt>
      <trkpt lat="45.13907" lon="5.88871">
        <ele>1426.63</ele>
        <time>2026-08-30T10:58:29.647Z</time>
      </trkpt>
      <trkpt lat="45.1389" lon="5.88863">
        <ele>1432.71</ele>
        <time>2026-08-30T10:58:59.881Z</time>
      </trkpt>
      <trkpt lat="45.13883" lon="5.88839">
        <ele>1438.31</ele>
        <time>2026-08-30T10:59:30.987Z</time>
      </trkpt>
      <trkpt lat="45.13871" lon="5.88819">
        <ele>1443.41</ele>
        <time>2026-08-30T10:59:54.433Z</time>
      </trkpt>
      <trkpt lat="45.13863" lon="5.88796">
        <ele>1447.02</ele>
        <time>2026-08-30T11:00:16.304Z</time>
      </trkpt>
      <trkpt lat="45.13845" lon="5.88789">
        <ele>1452.66</ele>
        <time>2026-08-30T11:00:40.745Z</time>
      </trkpt>
      <trkpt lat="45.13827" lon="5.88791">
        <ele>1455.72</ele>
        <time>2026-08-30T11:01:26.163Z</time>
      </trkpt>
      <trkpt lat="45.13809" lon="5.88793">
        <ele>1460.82</ele>
        <time>2026-08-30T11:01:46.422Z</time>
      </trkpt>
      <trkpt lat="45.1379" lon="5.88795">
        <ele>1466.03</ele>
        <time>2026-08-30T11:02:12.302Z</time>
      </trkpt>
      <trkpt lat="45.13772" lon="5.88794">
        <ele>1473.51</ele>
        <time>2026-08-30T11:02:40.356Z</time>
      </trkpt>
      <trkpt lat="45.13753" lon="5.88797">
        <ele>1480.99</ele>
        <time>2026-08-30T11:03:11.984Z</time>
      </trkpt>
      <trkpt lat="45.13735" lon="5.88798">
        <ele>1488.7</ele>
        <time>2026-08-30T11:03:43.110Z</time>
      </trkpt>
      <trkpt lat="45.13717" lon="5.88798">
        <ele>1494.72</ele>
        <time>2026-08-30T11:04:10.723Z</time>
      </trkpt>
      <trkpt lat="45.13697" lon="5.88798">
        <ele>1500.09</ele>
        <time>2026-08-30T11:05:55.378Z</time>
      </trkpt>
      <trkpt lat="45.13679" lon="5.88795">
        <ele>1505.54</ele>
        <time>2026-08-30T11:06:12.284Z</time>
      </trkpt>
      <trkpt lat="45.13661" lon="5.88798">
        <ele>1511.63</ele>
        <time>2026-08-30T11:06:45.166Z</time>
      </trkpt>
      <trkpt lat="45.13643" lon="5.88796">
        <ele>1514.6</ele>
        <time>2026-08-30T11:07:05.025Z</time>
      </trkpt>
      <trkpt lat="45.13625" lon="5.88794">
        <ele>1519.84</ele>
        <time>2026-08-30T11:07:26.324Z</time>
      </trkpt>
      <trkpt lat="45.13606" lon="5.88796">
        <ele>1524.68</ele>
        <time>2026-08-30T11:07:47.903Z</time>
      </trkpt>
      <trkpt lat="45.13588" lon="5.88799">
        <ele>1530.29</ele>
        <time>2026-08-30T11:08:09.200Z</time>
      </trkpt>
      <trkpt lat="45.13569" lon="5.888">
        <ele>1535.21</ele>
        <time>2026-08-30T11:08:33.485Z</time>
      </trkpt>
      <trkpt lat="45.13552" lon="5.8879">
        <ele>1541.67</ele>
        <time>2026-08-30T11:08:57.327Z</time>
      </trkpt>
      <trkpt lat="45.13534" lon="5.88784">
        <ele>1547.8</ele>
        <time>2026-08-30T11:09:22.339Z</time>
      </trkpt>
      <trkpt lat="45.13515" lon="5.88784">
        <ele>1553.44</ele>
        <time>2026-08-30T11:09:45.431Z</time>
      </trkpt>
      <trkpt lat="45.13497" lon="5.88781">
        <ele>1558.51</ele>
        <time>2026-08-30T11:10:05.399Z</time>
      </trkpt>
      <trkpt lat="45.13479" lon="5.88778">
        <ele>1564.22</ele>
        <time>2026-08-30T11:10:27.268Z</time>
      </trkpt>
      <trkpt lat="45.13461" lon="5.88775">
        <ele>1569.16</ele>
        <time>2026-08-30T11:10:47.357Z</time>
      </trkpt>
      <trkpt lat="45.13444" lon="5.88766">
        <ele>1574.85</ele>
        <time>2026-08-30T11:11:14.761Z</time>
      </trkpt>
      <trkpt lat="45.13426" lon="5.88761">
        <ele>1585.16</ele>
        <time>2026-08-30T11:12:01.423Z</time>
      </trkpt>
      <trkpt lat="45.13408" lon="5.88763">
        <ele>1591.87</ele>
        <time>2026-08-30T11:12:40.349Z</time>
      </trkpt>
      <trkpt lat="45.1339" lon="5.88764">
        <ele>1600.03</ele>
        <time>2026-08-30T11:13:12.166Z</time>
      </trkpt>
      <trkpt lat="45.13372" lon="5.88766">
        <ele>1607.35</ele>
        <time>2026-08-30T11:13:44.206Z</time>
      </trkpt>
      <trkpt lat="45.13354" lon="5.88769">
        <ele>1614.03</ele>
        <time>2026-08-30T11:14:15.703Z</time>
      </trkpt>
      <trkpt lat="45.13336" lon="5.88765">
        <ele>1622.12</ele>
        <time>2026-08-30T11:14:49.426Z</time>
      </trkpt>
      <trkpt lat="45.13319" lon="5.88759">
        <ele>1628.56</ele>
        <time>2026-08-30T11:15:22.443Z</time>
      </trkpt>
      <trkpt lat="45.13301" lon="5.88753">
        <ele>1636.56</ele>
        <time>2026-08-30T11:15:57.665Z</time>
      </trkpt>
      <trkpt lat="45.13283" lon="5.88746">
        <ele>1640.68</ele>
        <time>2026-08-30T11:16:52.123Z</time>
      </trkpt>
      <trkpt lat="45.13266" lon="5.88736">
        <ele>1647.04</ele>
        <time>2026-08-30T11:17:21.069Z</time>
      </trkpt>
      <trkpt lat="45.13257" lon="5.88714">
        <ele>1653.51</ele>
        <time>2026-08-30T11:17:49.204Z</time>
      </trkpt>
      <trkpt lat="45.13239" lon="5.88706">
        <ele>1661.23</ele>
        <time>2026-08-30T11:18:21.024Z</time>
      </trkpt>
      <trkpt lat="45.13222" lon="5.88698">
        <ele>1667.14</ele>
        <time>2026-08-30T11:18:53.282Z</time>
      </trkpt>
      <trkpt lat="45.13211" lon="5.88678">
        <ele>1675.04</ele>
        <time>2026-08-30T11:19:32.349Z</time>
      </trkpt>
      <trkpt lat="45.13195" lon="5.88665">
        <ele>1683.41</ele>
        <time>2026-08-30T11:20:08.771Z</time>
      </trkpt>
      <trkpt lat="45.13177" lon="5.88665">
        <ele>1691.72</ele>
        <time>2026-08-30T11:20:56.383Z</time>
      </trkpt>
      <trkpt lat="45.13168" lon="5.88642">
        <ele>1699.1</ele>
        <time>2026-08-30T11:21:28.170Z</time>
      </trkpt>
      <trkpt lat="45.13152" lon="5.88627">
        <ele>1709.13</ele>
        <time>2026-08-30T11:22:13.424Z</time>
      </trkpt>
      <trkpt lat="45.13137" lon="5.88613">
        <ele>1717.82</ele>
        <time>2026-08-30T11:22:58.230Z</time>
      </trkpt>
      <trkpt lat="45.13128" lon="5.88592">
        <ele>1729.18</ele>
        <time>2026-08-30T11:23:44.453Z</time>
      </trkpt>
      <trkpt lat="45.13119" lon="5.88569">
        <ele>1738.54</ele>
        <time>2026-08-30T11:25:02.096Z</time>
      </trkpt>
      <trkpt lat="45.13102" lon="5.88562">
        <ele>1746.63</ele>
        <time>2026-08-30T11:25:36.357Z</time>
      </trkpt>
      <trkpt lat="45.13084" lon="5.88558">
        <ele>1754.03</ele>
        <time>2026-08-30T11:26:03.891Z</time>
      </trkpt>
      <trkpt lat="45.13067" lon="5.88548">
        <ele>1758.92</ele>
        <time>2026-08-30T11:26:29.714Z</time>
      </trkpt>
      <trkpt lat="45.13053" lon="5.88531">
        <ele>1764.93</ele>
        <time>2026-08-30T11:26:56.008Z</time>
      </trkpt>
      <trkpt lat="45.13035" lon="5.88524">
        <ele>1770.55</ele>
        <time>2026-08-30T11:27:23.273Z</time>
      </trkpt>
      <trkpt lat="45.13018" lon="5.8853">
        <ele>1777.39</ele>
        <time>2026-08-30T11:27:53.329Z</time>
      </trkpt>
      <trkpt lat="45.12999" lon="5.88529">
        <ele>1784.72</ele>
        <time>2026-08-30T11:28:24.414Z</time>
      </trkpt>
      <trkpt lat="45.12982" lon="5.88519">
        <ele>1791.58</ele>
        <time>2026-08-30T11:29:12.289Z</time>
      </trkpt>
      <trkpt lat="45.12964" lon="5.88518">
        <ele>1801.36</ele>
        <time>2026-08-30T11:29:53.356Z</time>
      </trkpt>
      <trkpt lat="45.12955" lon="5.88495">
        <ele>1806.5</ele>
        <time>2026-08-30T11:30:16.345Z</time>
      </trkpt>
      <trkpt lat="45.12952" lon="5.8847">
        <ele>1812.12</ele>
        <time>2026-08-30T11:30:44.532Z</time>
      </trkpt>
      <trkpt lat="45.12959" lon="5.88446">
        <ele>1815.44</ele>
        <time>2026-08-30T11:31:02.869Z</time>
      </trkpt>
      <trkpt lat="45.12961" lon="5.8842">
        <ele>1819.58</ele>
        <time>2026-08-30T11:31:23.948Z</time>
      </trkpt>
      <trkpt lat="45.12973" lon="5.88399">
        <ele>1825.38</ele>
        <time>2026-08-30T11:31:59.250Z</time>
      </trkpt>
      <trkpt lat="45.12983" lon="5.88378">
        <ele>1832.59</ele>
        <time>2026-08-30T11:32:24.434Z</time>
      </trkpt>
      <trkpt lat="45.12991" lon="5.88355">
        <ele>1838.42</ele>
        <time>2026-08-30T11:32:50.128Z</time>
      </trkpt>
      <trkpt lat="45.13009" lon="5.88354">
        <ele>1837.9</ele>
        <time>2026-08-30T11:33:11.989Z</time>
      </trkpt>
      <trkpt lat="45.1302" lon="5.88332">
        <ele>1835.43</ele>
        <time>2026-08-30T11:51:37.625Z</time>
      </trkpt>
      <trkpt lat="45.13035" lon="5.88309">
        <ele>1832.89</ele>
        <time>2026-08-30T11:51:40.563Z</time>
      </trkpt>
      <trkpt lat="45.13046" lon="5.88288">
        <ele>1829.25</ele>
        <time>2026-08-30T11:51:42.481Z</time>
      </trkpt>
      <trkpt lat="45.13065" lon="5.88266">
        <ele>1824.27</ele>
        <time>2026-08-30T11:51:45.537Z</time>
      </trkpt>
      <trkpt lat="45.13082" lon="5.88238">
        <ele>1821.37</ele>
        <time>2026-08-30T11:51:48.534Z</time>
      </trkpt>
      <trkpt lat="45.13098" lon="5.88221">
        <ele>1819.21</ele>
        <time>2026-08-30T11:51:50.597Z</time>
      </trkpt>
      <trkpt lat="45.13121" lon="5.88207">
        <ele>1812.53</ele>
        <time>2026-08-30T11:51:53.557Z</time>
      </trkpt>
      <trkpt lat="45.13143" lon="5.88195">
        <ele>1808.56</ele>
        <time>2026-08-30T11:51:56.565Z</time>
      </trkpt>
      <trkpt lat="45.1317" lon="5.88185">
        <ele>1804.41</ele>
        <time>2026-08-30T11:51:59.566Z</time>
      </trkpt>
      <trkpt lat="45.13195" lon="5.88181">
        <ele>1797.05</ele>
        <time>2026-08-30T11:52:02.583Z</time>
      </trkpt>
      <trkpt lat="45.13214" lon="5.88181">
        <ele>1794.55</ele>
        <time>2026-08-30T11:52:04.577Z</time>
      </trkpt>
      <trkpt lat="45.13233" lon="5.88187">
        <ele>1791.49</ele>
        <time>2026-08-30T11:52:06.601Z</time>
      </trkpt>
      <trkpt lat="45.13251" lon="5.88195">
        <ele>1787.52</ele>
        <time>2026-08-30T11:52:08.517Z</time>
      </trkpt>
      <trkpt lat="45.13269" lon="5.882">
        <ele>1782.71</ele>
        <time>2026-08-30T11:52:10.519Z</time>
      </trkpt>
      <trkpt lat="45.13288" lon="5.88206">
        <ele>1777.35</ele>
        <time>2026-08-30T11:52:12.597Z</time>
      </trkpt>
      <trkpt lat="45.1331" lon="5.88216">
        <ele>1773.76</ele>
        <time>2026-08-30T11:52:15.600Z</time>
      </trkpt>
      <trkpt lat="45.13333" lon="5.88228">
        <ele>1772.66</ele>
        <time>2026-08-30T11:52:18.592Z</time>
      </trkpt>
      <trkpt lat="45.13355" lon="5.88243">
        <ele>1772.27</ele>
        <time>2026-08-30T11:52:21.487Z</time>
      </trkpt>
      <trkpt lat="45.13377" lon="5.88255">
        <ele>1771.15</ele>
        <time>2026-08-30T11:52:23.574Z</time>
      </trkpt>
      <trkpt lat="45.13397" lon="5.88264">
        <ele>1766.38</ele>
        <time>2026-08-30T11:52:26.611Z</time>
      </trkpt>
      <trkpt lat="45.13422" lon="5.88282">
        <ele>1763.83</ele>
        <time>2026-08-30T11:52:29.615Z</time>
      </trkpt>
      <trkpt lat="45.13446" lon="5.88299">
        <ele>1761.48</ele>
        <time>2026-08-30T11:52:32.559Z</time>
      </trkpt>
      <trkpt lat="45.13463" lon="5.88308">
        <ele>1759.58</ele>
        <time>2026-08-30T11:52:34.575Z</time>
      </trkpt>
      <trkpt lat="45.13481" lon="5.88318">
        <ele>1758.66</ele>
        <time>2026-08-30T11:52:36.560Z</time>
      </trkpt>
      <trkpt lat="45.13505" lon="5.88326">
        <ele>1756.65</ele>
        <time>2026-08-30T11:52:39.492Z</time>
      </trkpt>
      <trkpt lat="45.13528" lon="5.88332">
        <ele>1755.95</ele>
        <time>2026-08-30T11:52:41.525Z</time>
      </trkpt>
      <trkpt lat="45.13547" lon="5.88338">
        <ele>1754.2</ele>
        <time>2026-08-30T11:52:43.566Z</time>
      </trkpt>
      <trkpt lat="45.13574" lon="5.88345">
        <ele>1750.18</ele>
        <time>2026-08-30T11:52:46.525Z</time>
      </trkpt>
      <trkpt lat="45.13595" lon="5.88351">
        <ele>1748.44</ele>
        <time>2026-08-30T11:52:48.534Z</time>
      </trkpt>
      <trkpt lat="45.13616" lon="5.88356">
        <ele>1745.65</ele>
        <time>2026-08-30T11:52:50.627Z</time>
      </trkpt>
      <trkpt lat="45.13635" lon="5.88359">
        <ele>1739.65</ele>
        <time>2026-08-30T11:52:52.527Z</time>
      </trkpt>
      <trkpt lat="45.13657" lon="5.88365">
        <ele>1736.67</ele>
        <time>2026-08-30T11:52:54.647Z</time>
      </trkpt>
      <trkpt lat="45.13678" lon="5.88373">
        <ele>1733.28</ele>
        <time>2026-08-30T11:52:56.585Z</time>
      </trkpt>
      <trkpt lat="45.13698" lon="5.88379">
        <ele>1731.39</ele>
        <time>2026-08-30T11:52:58.518Z</time>
      </trkpt>
      <trkpt lat="45.13719" lon="5.88384">
        <ele>1728.67</ele>
        <time>2026-08-30T11:53:00.552Z</time>
      </trkpt>
      <trkpt lat="45.13743" lon="5.88395">
        <ele>1728.02</ele>
        <time>2026-08-30T11:53:03.518Z</time>
      </trkpt>
      <trkpt lat="45.13762" lon="5.88401">
        <ele>1728.16</ele>
        <time>2026-08-30T11:53:05.523Z</time>
      </trkpt>
      <trkpt lat="45.13781" lon="5.88409">
        <ele>1728.79</ele>
        <time>2026-08-30T11:53:07.531Z</time>
      </trkpt>
      <trkpt lat="45.13813" lon="5.88408">
        <ele>1729.39</ele>
        <time>2026-08-30T11:53:10.635Z</time>
      </trkpt>
      <trkpt lat="45.13821" lon="5.88385">
        <ele>1730.52</ele>
        <time>2026-08-30T11:53:13.599Z</time>
      </trkpt>
      <trkpt lat="45.13811" lon="5.88361">
        <ele>1733.99</ele>
        <time>2026-08-30T11:53:15.571Z</time>
      </trkpt>
      <trkpt lat="45.13791" lon="5.88348">
        <ele>1734.62</ele>
        <time>2026-08-30T11:53:17.569Z</time>
      </trkpt>
      <trkpt lat="45.13764" lon="5.88358">
        <ele>1734.85</ele>
        <time>2026-08-30T11:53:19.533Z</time>
      </trkpt>
      <trkpt lat="45.13749" lon="5.88381">
        <ele>1735.82</ele>
        <time>2026-08-30T11:53:21.530Z</time>
      </trkpt>
      <trkpt lat="45.13745" lon="5.88409">
        <ele>1735.56</ele>
        <time>2026-08-30T11:53:23.562Z</time>
      </trkpt>
      <trkpt lat="45.13748" lon="5.8844">
        <ele>1735.14</ele>
        <time>2026-08-30T11:53:25.510Z</time>
      </trkpt>
      <trkpt lat="45.13761" lon="5.8846">
        <ele>1735.29</ele>
        <time>2026-08-30T11:53:27.473Z</time>
      </trkpt>
      <trkpt lat="45.13781" lon="5.88465">
        <ele>1735.98</ele>
        <time>2026-08-30T11:53:29.665Z</time>
      </trkpt>
      <trkpt lat="45.13803" lon="5.88455">
        <ele>1736.55</ele>
        <time>2026-08-30T11:53:32.611Z</time>
      </trkpt>
      <trkpt lat="45.13814" lon="5.88425">
        <ele>1738.73</ele>
        <time>2026-08-30T11:53:35.581Z</time>
      </trkpt>
      <trkpt lat="45.13811" lon="5.88395">
        <ele>1739.63</ele>
        <time>2026-08-30T11:53:37.521Z</time>
      </trkpt>
      <trkpt lat="45.13798" lon="5.8837">
        <ele>1740.26</ele>
        <time>2026-08-30T11:53:39.602Z</time>
      </trkpt>
      <trkpt lat="45.13773" lon="5.88369">
        <ele>1740.36</ele>
        <time>2026-08-30T11:53:41.546Z</time>
      </trkpt>
      <trkpt lat="45.13748" lon="5.88391">
        <ele>1740.14</ele>
        <time>2026-08-30T11:53:43.572Z</time>
      </trkpt>
      <trkpt lat="45.13737" lon="5.88422">
        <ele>1739.55</ele>
        <time>2026-08-30T11:53:45.707Z</time>
      </trkpt>
      <trkpt lat="45.13747" lon="5.88456">
        <ele>1739.48</ele>
        <time>2026-08-30T11:53:48.585Z</time>
      </trkpt>
      <trkpt lat="45.13774" lon="5.88462">
        <ele>1740.56</ele>
        <time>2026-08-30T11:53:51.560Z</time>
      </trkpt>
      <trkpt lat="45.13792" lon="5.88449">
        <ele>1741.37</ele>
        <time>2026-08-30T11:53:53.577Z</time>
      </trkpt>
      <trkpt lat="45.13811" lon="5.88441">
        <ele>1741.8</ele>
        <time>2026-08-30T11:53:55.535Z</time>
      </trkpt>
      <trkpt lat="45.1383" lon="5.8843">
        <ele>1742.85</ele>
        <time>2026-08-30T11:53:57.525Z</time>
      </trkpt>
      <trkpt lat="45.1385" lon="5.88414">
        <ele>1745.21</ele>
        <time>2026-08-30T11:54:00.597Z</time>
      </trkpt>
      <trkpt lat="45.13873" lon="5.88408">
        <ele>1747.52</ele>
        <time>2026-08-30T11:54:03.576Z</time>
      </trkpt>
      <trkpt lat="45.13898" lon="5.88396">
        <ele>1747.61</ele>
        <time>2026-08-30T11:54:06.555Z</time>
      </trkpt>
      <trkpt lat="45.13922" lon="5.88384">
        <ele>1741.62</ele>
        <time>2026-08-30T11:54:09.577Z</time>
      </trkpt>
      <trkpt lat="45.13942" lon="5.88375">
        <ele>1737.77</ele>
        <time>2026-08-30T11:54:11.529Z</time>
      </trkpt>
      <trkpt lat="45.13961" lon="5.88358">
        <ele>1732.03</ele>
        <time>2026-08-30T11:54:13.584Z</time>
      </trkpt>
      <trkpt lat="45.13987" lon="5.88347">
        <ele>1726.83</ele>
        <time>2026-08-30T11:54:16.638Z</time>
      </trkpt>
      <trkpt lat="45.14006" lon="5.88332">
        <ele>1725.97</ele>
        <time>2026-08-30T11:54:18.641Z</time>
      </trkpt>
      <trkpt lat="45.14023" lon="5.88321">
        <ele>1725.64</ele>
        <time>2026-08-30T11:54:20.389Z</time>
      </trkpt>
      <trkpt lat="45.14043" lon="5.88305">
        <ele>1725.51</ele>
        <time>2026-08-30T11:54:22.505Z</time>
      </trkpt>
      <trkpt lat="45.14058" lon="5.8829">
        <ele>1725.06</ele>
        <time>2026-08-30T11:54:24.495Z</time>
      </trkpt>
      <trkpt lat="45.14075" lon="5.88284">
        <ele>1724.53</ele>
        <time>2026-08-30T11:54:26.571Z</time>
      </trkpt>
      <trkpt lat="45.14097" lon="5.88277">
        <ele>1723.86</ele>
        <time>2026-08-30T11:54:28.575Z</time>
      </trkpt>
      <trkpt lat="45.14119" lon="5.88269">
        <ele>1722.88</ele>
        <time>2026-08-30T11:54:30.565Z</time>
      </trkpt>
      <trkpt lat="45.14142" lon="5.88261">
        <ele>1723.67</ele>
        <time>2026-08-30T11:54:32.566Z</time>
      </trkpt>
      <trkpt lat="45.14163" lon="5.88256">
        <ele>1723.88</ele>
        <time>2026-08-30T11:54:34.586Z</time>
      </trkpt>
      <trkpt lat="45.1418" lon="5.88243">
        <ele>1724.26</ele>
        <time>2026-08-30T11:54:36.553Z</time>
      </trkpt>
      <trkpt lat="45.142" lon="5.8823">
        <ele>1725.77</ele>
        <time>2026-08-30T11:54:38.546Z</time>
      </trkpt>
      <trkpt lat="45.14221" lon="5.88221">
        <ele>1726.46</ele>
        <time>2026-08-30T11:54:40.573Z</time>
      </trkpt>
      <trkpt lat="45.14239" lon="5.88214">
        <ele>1727.14</ele>
        <time>2026-08-30T11:54:42.606Z</time>
      </trkpt>
      <trkpt lat="45.1426" lon="5.88205">
        <ele>1726.88</ele>
        <time>2026-08-30T11:54:44.553Z</time>
      </trkpt>
      <trkpt lat="45.14282" lon="5.88194">
        <ele>1726.57</ele>
        <time>2026-08-30T11:54:46.576Z</time>
      </trkpt>
      <trkpt lat="45.14299" lon="5.88182">
        <ele>1721.21</ele>
        <time>2026-08-30T11:54:48.521Z</time>
      </trkpt>
      <trkpt lat="45.14317" lon="5.88169">
        <ele>1713.51</ele>
        <time>2026-08-30T11:54:50.541Z</time>
      </trkpt>
      <trkpt lat="45.14335" lon="5.88151">
        <ele>1711.42</ele>
        <time>2026-08-30T11:54:52.557Z</time>
      </trkpt>
      <trkpt lat="45.1435" lon="5.88136">
        <ele>1709.41</ele>
        <time>2026-08-30T11:54:54.628Z</time>
      </trkpt>
      <trkpt lat="45.14371" lon="5.88112">
        <ele>1707.81</ele>
        <time>2026-08-30T11:54:57.588Z</time>
      </trkpt>
      <trkpt lat="45.14386" lon="5.88094">
        <ele>1706.75</ele>
        <time>2026-08-30T11:54:59.550Z</time>
      </trkpt>
      <trkpt lat="45.144" lon="5.88074">
        <ele>1703.32</ele>
        <time>2026-08-30T11:55:01.582Z</time>
      </trkpt>
      <trkpt lat="45.14413" lon="5.88054">
        <ele>1698.75</ele>
        <time>2026-08-30T11:55:03.549Z</time>
      </trkpt>
      <trkpt lat="45.14427" lon="5.88034">
        <ele>1695.67</ele>
        <time>2026-08-30T11:55:05.564Z</time>
      </trkpt>
      <trkpt lat="45.14439" lon="5.88015">
        <ele>1690.16</ele>
        <time>2026-08-30T11:55:07.551Z</time>
      </trkpt>
      <trkpt lat="45.14452" lon="5.87996">
        <ele>1686.27</ele>
        <time>2026-08-30T11:55:09.522Z</time>
      </trkpt>
      <trkpt lat="45.14465" lon="5.87976">
        <ele>1683</ele>
        <time>2026-08-30T11:55:11.568Z</time>
      </trkpt>
      <trkpt lat="45.14478" lon="5.87958">
        <ele>1679.62</ele>
        <time>2026-08-30T11:55:13.541Z</time>
      </trkpt>
      <trkpt lat="45.14493" lon="5.87938">
        <ele>1676.45</ele>
        <time>2026-08-30T11:55:15.596Z</time>
      </trkpt>
      <trkpt lat="45.14507" lon="5.87919">
        <ele>1673</ele>
        <time>2026-08-30T11:55:17.537Z</time>
      </trkpt>
      <trkpt lat="45.14521" lon="5.879">
        <ele>1669.63</ele>
        <time>2026-08-30T11:55:19.554Z</time>
      </trkpt>
      <trkpt lat="45.14536" lon="5.87885">
        <ele>1665.38</ele>
        <time>2026-08-30T11:55:21.633Z</time>
      </trkpt>
      <trkpt lat="45.1455" lon="5.87867">
        <ele>1663.03</ele>
        <time>2026-08-30T11:55:23.598Z</time>
      </trkpt>
      <trkpt lat="45.14566" lon="5.87849">
        <ele>1660.79</ele>
        <time>2026-08-30T11:55:25.594Z</time>
      </trkpt>
      <trkpt lat="45.1458" lon="5.87832">
        <ele>1657.88</ele>
        <time>2026-08-30T11:55:27.519Z</time>
      </trkpt>
      <trkpt lat="45.14602" lon="5.87806">
        <ele>1655.29</ele>
        <time>2026-08-30T11:55:30.556Z</time>
      </trkpt>
      <trkpt lat="45.14615" lon="5.87789">
        <ele>1654.17</ele>
        <time>2026-08-30T11:55:32.555Z</time>
      </trkpt>
      <trkpt lat="45.14631" lon="5.87772">
        <ele>1651.91</ele>
        <time>2026-08-30T11:55:34.585Z</time>
      </trkpt>
      <trkpt lat="45.14647" lon="5.87753">
        <ele>1649.04</ele>
        <time>2026-08-30T11:55:36.577Z</time>
      </trkpt>
      <trkpt lat="45.14661" lon="5.87736">
        <ele>1645.35</ele>
        <time>2026-08-30T11:55:38.507Z</time>
      </trkpt>
      <trkpt lat="45.14682" lon="5.87708">
        <ele>1640.25</ele>
        <time>2026-08-30T11:55:41.584Z</time>
      </trkpt>
      <trkpt lat="45.14697" lon="5.8769">
        <ele>1637.71</ele>
        <time>2026-08-30T11:55:43.487Z</time>
      </trkpt>
      <trkpt lat="45.14712" lon="5.87669">
        <ele>1633.09</ele>
        <time>2026-08-30T11:55:45.503Z</time>
      </trkpt>
      <trkpt lat="45.14726" lon="5.87649">
        <ele>1627.77</ele>
        <time>2026-08-30T11:55:47.637Z</time>
      </trkpt>
      <trkpt lat="45.14741" lon="5.87629">
        <ele>1622.48</ele>
        <time>2026-08-30T11:55:49.667Z</time>
      </trkpt>
      <trkpt lat="45.14755" lon="5.87611">
        <ele>1618.34</ele>
        <time>2026-08-30T11:55:51.544Z</time>
      </trkpt>
      <trkpt lat="45.14771" lon="5.87598">
        <ele>1613.41</ele>
        <time>2026-08-30T11:55:53.560Z</time>
      </trkpt>
      <trkpt lat="45.14788" lon="5.87583">
        <ele>1608.76</ele>
        <time>2026-08-30T11:55:55.576Z</time>
      </trkpt>
      <trkpt lat="45.14806" lon="5.87566">
        <ele>1604.81</ele>
        <time>2026-08-30T11:55:57.572Z</time>
      </trkpt>
      <trkpt lat="45.1482" lon="5.8755">
        <ele>1600.35</ele>
        <time>2026-08-30T11:55:59.547Z</time>
      </trkpt>
      <trkpt lat="45.14836" lon="5.8753">
        <ele>1596.16</ele>
        <time>2026-08-30T11:56:01.667Z</time>
      </trkpt>
      <trkpt lat="45.14851" lon="5.87512">
        <ele>1593.05</ele>
        <time>2026-08-30T11:56:03.621Z</time>
      </trkpt>
      <trkpt lat="45.14865" lon="5.87495">
        <ele>1588.97</ele>
        <time>2026-08-30T11:56:05.563Z</time>
      </trkpt>
      <trkpt lat="45.1488" lon="5.87477">
        <ele>1585.58</ele>
        <time>2026-08-30T11:56:07.535Z</time>
      </trkpt>
      <trkpt lat="45.14896" lon="5.87455">
        <ele>1582.02</ele>
        <time>2026-08-30T11:56:09.698Z</time>
      </trkpt>
      <trkpt lat="45.14909" lon="5.87438">
        <ele>1578.51</ele>
        <time>2026-08-30T11:56:11.552Z</time>
      </trkpt>
      <trkpt lat="45.14923" lon="5.87418">
        <ele>1574.35</ele>
        <time>2026-08-30T11:56:13.559Z</time>
      </trkpt>
      <trkpt lat="45.14937" lon="5.87399">
        <ele>1571.3</ele>
        <time>2026-08-30T11:56:15.492Z</time>
      </trkpt>
      <trkpt lat="45.1496" lon="5.87369">
        <ele>1566.54</ele>
        <time>2026-08-30T11:56:18.621Z</time>
      </trkpt>
      <trkpt lat="45.14975" lon="5.8735">
        <ele>1564.1</ele>
        <time>2026-08-30T11:56:20.625Z</time>
      </trkpt>
      <trkpt lat="45.14989" lon="5.87333">
        <ele>1561.48</ele>
        <time>2026-08-30T11:56:22.505Z</time>
      </trkpt>
      <trkpt lat="45.15005" lon="5.87315">
        <ele>1558.44</ele>
        <time>2026-08-30T11:56:24.561Z</time>
      </trkpt>
      <trkpt lat="45.15019" lon="5.87296">
        <ele>1556.24</ele>
        <time>2026-08-30T11:56:26.494Z</time>
      </trkpt>
      <trkpt lat="45.15036" lon="5.87275">
        <ele>1553.64</ele>
        <time>2026-08-30T11:56:28.597Z</time>
      </trkpt>
      <trkpt lat="45.15059" lon="5.87247">
        <ele>1548.95</ele>
        <time>2026-08-30T11:56:31.561Z</time>
      </trkpt>
      <trkpt lat="45.15073" lon="5.87225">
        <ele>1546.11</ele>
        <time>2026-08-30T11:56:33.494Z</time>
      </trkpt>
      <trkpt lat="45.15088" lon="5.87201">
        <ele>1543.72</ele>
        <time>2026-08-30T11:56:35.527Z</time>
      </trkpt>
      <trkpt lat="45.15104" lon="5.87179">
        <ele>1540.98</ele>
        <time>2026-08-30T11:56:37.578Z</time>
      </trkpt>
      <trkpt lat="45.15118" lon="5.87157">
        <ele>1538.57</ele>
        <time>2026-08-30T11:56:39.513Z</time>
      </trkpt>
      <trkpt lat="45.15134" lon="5.87133">
        <ele>1533.44</ele>
        <time>2026-08-30T11:56:41.573Z</time>
      </trkpt>
      <trkpt lat="45.15147" lon="5.87108">
        <ele>1529.92</ele>
        <time>2026-08-30T11:56:43.590Z</time>
      </trkpt>
      <trkpt lat="45.1516" lon="5.87083">
        <ele>1525.66</ele>
        <time>2026-08-30T11:56:45.612Z</time>
      </trkpt>
      <trkpt lat="45.15172" lon="5.87058">
        <ele>1521.41</ele>
        <time>2026-08-30T11:56:47.552Z</time>
      </trkpt>
      <trkpt lat="45.15186" lon="5.87034">
        <ele>1517.06</ele>
        <time>2026-08-30T11:56:49.552Z</time>
      </trkpt>
      <trkpt lat="45.15199" lon="5.8701">
        <ele>1514.15</ele>
        <time>2026-08-30T11:56:51.536Z</time>
      </trkpt>
      <trkpt lat="45.15211" lon="5.86986">
        <ele>1510.21</ele>
        <time>2026-08-30T11:56:53.574Z</time>
      </trkpt>
      <trkpt lat="45.15223" lon="5.86962">
        <ele>1507.72</ele>
        <time>2026-08-30T11:56:55.472Z</time>
      </trkpt>
      <trkpt lat="45.15236" lon="5.86938">
        <ele>1503.85</ele>
        <time>2026-08-30T11:56:57.567Z</time>
      </trkpt>
      <trkpt lat="45.15249" lon="5.86915">
        <ele>1499.43</ele>
        <time>2026-08-30T11:56:59.553Z</time>
      </trkpt>
      <trkpt lat="45.1526" lon="5.86891">
        <ele>1496.15</ele>
        <time>2026-08-30T11:57:01.554Z</time>
      </trkpt>
      <trkpt lat="45.15271" lon="5.86865">
        <ele>1493.54</ele>
        <time>2026-08-30T11:57:03.521Z</time>
      </trkpt>
      <trkpt lat="45.15284" lon="5.8684">
        <ele>1488.86</ele>
        <time>2026-08-30T11:57:05.591Z</time>
      </trkpt>
      <trkpt lat="45.15297" lon="5.86816">
        <ele>1483.12</ele>
        <time>2026-08-30T11:57:07.510Z</time>
      </trkpt>
      <trkpt lat="45.1531" lon="5.86789">
        <ele>1477.68</ele>
        <time>2026-08-30T11:57:09.543Z</time>
      </trkpt>
      <trkpt lat="45.15324" lon="5.86763">
        <ele>1472.96</ele>
        <time>2026-08-30T11:57:11.688Z</time>
      </trkpt>
      <trkpt lat="45.15336" lon="5.86737">
        <ele>1466.95</ele>
        <time>2026-08-30T11:57:13.612Z</time>
      </trkpt>
      <trkpt lat="45.1535" lon="5.86713">
        <ele>1461.06</ele>
        <time>2026-08-30T11:57:15.547Z</time>
      </trkpt>
      <trkpt lat="45.15365" lon="5.8669">
        <ele>1455.67</ele>
        <time>2026-08-30T11:57:17.508Z</time>
      </trkpt>
      <trkpt lat="45.15379" lon="5.86666">
        <ele>1450.71</ele>
        <time>2026-08-30T11:57:19.482Z</time>
      </trkpt>
      <trkpt lat="45.15392" lon="5.86643">
        <ele>1446.93</ele>
        <time>2026-08-30T11:57:21.513Z</time>
      </trkpt>
      <trkpt lat="45.15407" lon="5.8662">
        <ele>1443.22</ele>
        <time>2026-08-30T11:57:23.516Z</time>
      </trkpt>
      <trkpt lat="45.15422" lon="5.866">
        <ele>1438.87</ele>
        <time>2026-08-30T11:57:25.621Z</time>
      </trkpt>
      <trkpt lat="45.15433" lon="5.8658">
        <ele>1434.72</ele>
        <time>2026-08-30T11:57:27.475Z</time>
      </trkpt>
      <trkpt lat="45.15451" lon="5.86555">
        <ele>1431.56</ele>
        <time>2026-08-30T11:57:29.628Z</time>
      </trkpt>
      <trkpt lat="45.15465" lon="5.86533">
        <ele>1426.36</ele>
        <time>2026-08-30T11:57:31.528Z</time>
      </trkpt>
      <trkpt lat="45.15478" lon="5.86511">
        <ele>1418.72</ele>
        <time>2026-08-30T11:57:33.493Z</time>
      </trkpt>
      <trkpt lat="45.15493" lon="5.86487">
        <ele>1414.15</ele>
        <time>2026-08-30T11:57:35.482Z</time>
      </trkpt>
      <trkpt lat="45.15508" lon="5.86463">
        <ele>1408.13</ele>
        <time>2026-08-30T11:57:37.523Z</time>
      </trkpt>
      <trkpt lat="45.15521" lon="5.86441">
        <ele>1401.57</ele>
        <time>2026-08-30T11:57:39.521Z</time>
      </trkpt>
      <trkpt lat="45.15533" lon="5.86419">
        <ele>1397.79</ele>
        <time>2026-08-30T11:57:41.456Z</time>
      </trkpt>
      <trkpt lat="45.15547" lon="5.86397">
        <ele>1393.93</ele>
        <time>2026-08-30T11:57:43.489Z</time>
      </trkpt>
      <trkpt lat="45.1556" lon="5.86371">
        <ele>1389.79</ele>
        <time>2026-08-30T11:57:45.541Z</time>
      </trkpt>
      <trkpt lat="45.15574" lon="5.86346">
        <ele>1385.23</ele>
        <time>2026-08-30T11:57:47.543Z</time>
      </trkpt>
      <trkpt lat="45.15589" lon="5.86322">
        <ele>1381.8</ele>
        <time>2026-08-30T11:57:49.484Z</time>
      </trkpt>
      <trkpt lat="45.15603" lon="5.86296">
        <ele>1377.1</ele>
        <time>2026-08-30T11:57:51.631Z</time>
      </trkpt>
      <trkpt lat="45.15615" lon="5.86275">
        <ele>1372.91</ele>
        <time>2026-08-30T11:57:53.519Z</time>
      </trkpt>
      <trkpt lat="45.15629" lon="5.86253">
        <ele>1369.38</ele>
        <time>2026-08-30T11:57:55.551Z</time>
      </trkpt>
      <trkpt lat="45.15642" lon="5.86231">
        <ele>1366.36</ele>
        <time>2026-08-30T11:57:57.562Z</time>
      </trkpt>
      <trkpt lat="45.15654" lon="5.8621">
        <ele>1362.92</ele>
        <time>2026-08-30T11:57:59.454Z</time>
      </trkpt>
      <trkpt lat="45.15669" lon="5.86191">
        <ele>1359.6</ele>
        <time>2026-08-30T11:58:01.497Z</time>
      </trkpt>
      <trkpt lat="45.15682" lon="5.86171">
        <ele>1356.19</ele>
        <time>2026-08-30T11:58:03.496Z</time>
      </trkpt>
      <trkpt lat="45.15696" lon="5.86148">
        <ele>1354.16</ele>
        <time>2026-08-30T11:58:05.501Z</time>
      </trkpt>
      <trkpt lat="45.15708" lon="5.86125">
        <ele>1350.63</ele>
        <time>2026-08-30T11:58:07.487Z</time>
      </trkpt>
      <trkpt lat="45.15722" lon="5.86104">
        <ele>1347.04</ele>
        <time>2026-08-30T11:58:09.478Z</time>
      </trkpt>
      <trkpt lat="45.15742" lon="5.86072">
        <ele>1344.32</ele>
        <time>2026-08-30T11:58:12.495Z</time>
      </trkpt>
      <trkpt lat="45.15755" lon="5.8605">
        <ele>1340.96</ele>
        <time>2026-08-30T11:58:14.537Z</time>
      </trkpt>
      <trkpt lat="45.15768" lon="5.86028">
        <ele>1338.04</ele>
        <time>2026-08-30T11:58:16.451Z</time>
      </trkpt>
      <trkpt lat="45.15781" lon="5.86004">
        <ele>1334.3</ele>
        <time>2026-08-30T11:58:18.594Z</time>
      </trkpt>
      <trkpt lat="45.15792" lon="5.85983">
        <ele>1330.52</ele>
        <time>2026-08-30T11:58:20.527Z</time>
      </trkpt>
      <trkpt lat="45.15805" lon="5.8596">
        <ele>1328.13</ele>
        <time>2026-08-30T11:58:22.586Z</time>
      </trkpt>
      <trkpt lat="45.15817" lon="5.85938">
        <ele>1324.37</ele>
        <time>2026-08-30T11:58:24.581Z</time>
      </trkpt>
      <trkpt lat="45.15826" lon="5.85916">
        <ele>1319.65</ele>
        <time>2026-08-30T11:58:26.562Z</time>
      </trkpt>
      <trkpt lat="45.15838" lon="5.85894">
        <ele>1317.24</ele>
        <time>2026-08-30T11:58:28.513Z</time>
      </trkpt>
      <trkpt lat="45.15849" lon="5.8587">
        <ele>1314.13</ele>
        <time>2026-08-30T11:58:30.513Z</time>
      </trkpt>
      <trkpt lat="45.15859" lon="5.85847">
        <ele>1309.82</ele>
        <time>2026-08-30T11:58:32.566Z</time>
      </trkpt>
      <trkpt lat="45.15872" lon="5.85816">
        <ele>1304.61</ele>
        <time>2026-08-30T11:58:35.504Z</time>
      </trkpt>
      <trkpt lat="45.15885" lon="5.85794">
        <ele>1302.75</ele>
        <time>2026-08-30T11:58:37.614Z</time>
      </trkpt>
      <trkpt lat="45.15899" lon="5.85766">
        <ele>1298.36</ele>
        <time>2026-08-30T11:58:40.604Z</time>
      </trkpt>
      <trkpt lat="45.15916" lon="5.85737">
        <ele>1295.85</ele>
        <time>2026-08-30T11:58:43.559Z</time>
      </trkpt>
      <trkpt lat="45.15929" lon="5.85718">
        <ele>1291.87</ele>
        <time>2026-08-30T11:58:45.607Z</time>
      </trkpt>
      <trkpt lat="45.1594" lon="5.85697">
        <ele>1287.22</ele>
        <time>2026-08-30T11:58:47.574Z</time>
      </trkpt>
      <trkpt lat="45.15954" lon="5.85677">
        <ele>1283.53</ele>
        <time>2026-08-30T11:58:49.545Z</time>
      </trkpt>
      <trkpt lat="45.15967" lon="5.85656">
        <ele>1277.87</ele>
        <time>2026-08-30T11:58:51.564Z</time>
      </trkpt>
      <trkpt lat="45.15979" lon="5.85634">
        <ele>1273</ele>
        <time>2026-08-30T11:58:53.531Z</time>
      </trkpt>
      <trkpt lat="45.1599" lon="5.85614">
        <ele>1269.17</ele>
        <time>2026-08-30T11:58:55.523Z</time>
      </trkpt>
      <trkpt lat="45.16002" lon="5.85591">
        <ele>1264.38</ele>
        <time>2026-08-30T11:58:57.563Z</time>
      </trkpt>
      <trkpt lat="45.16014" lon="5.85568">
        <ele>1260.86</ele>
        <time>2026-08-30T11:58:59.504Z</time>
      </trkpt>
      <trkpt lat="45.16024" lon="5.85544">
        <ele>1255.42</ele>
        <time>2026-08-30T11:59:01.578Z</time>
      </trkpt>
      <trkpt lat="45.16037" lon="5.85512">
        <ele>1249.88</ele>
        <time>2026-08-30T11:59:04.524Z</time>
      </trkpt>
      <trkpt lat="45.16048" lon="5.8549">
        <ele>1246.74</ele>
        <time>2026-08-30T11:59:06.568Z</time>
      </trkpt>
      <trkpt lat="45.16063" lon="5.85462">
        <ele>1242.04</ele>
        <time>2026-08-30T11:59:09.510Z</time>
      </trkpt>
      <trkpt lat="45.16075" lon="5.85442">
        <ele>1240.83</ele>
        <time>2026-08-30T11:59:11.692Z</time>
      </trkpt>
      <trkpt lat="45.1609" lon="5.85409">
        <ele>1239.55</ele>
        <time>2026-08-30T11:59:14.609Z</time>
      </trkpt>
      <trkpt lat="45.16101" lon="5.85386">
        <ele>1236.81</ele>
        <time>2026-08-30T11:59:16.628Z</time>
      </trkpt>
      <trkpt lat="45.16115" lon="5.85351">
        <ele>1230.59</ele>
        <time>2026-08-30T11:59:19.513Z</time>
      </trkpt>
      <trkpt lat="45.16124" lon="5.85326">
        <ele>1226.82</ele>
        <time>2026-08-30T11:59:21.544Z</time>
      </trkpt>
      <trkpt lat="45.16132" lon="5.85302">
        <ele>1223.05</ele>
        <time>2026-08-30T11:59:23.553Z</time>
      </trkpt>
      <trkpt lat="45.16139" lon="5.85278">
        <ele>1219.53</ele>
        <time>2026-08-30T11:59:25.588Z</time>
      </trkpt>
      <trkpt lat="45.16148" lon="5.85256">
        <ele>1217.54</ele>
        <time>2026-08-30T11:59:27.589Z</time>
      </trkpt>
      <trkpt lat="45.16164" lon="5.85227">
        <ele>1215.45</ele>
        <time>2026-08-30T11:59:30.584Z</time>
      </trkpt>
      <trkpt lat="45.16178" lon="5.85199">
        <ele>1214.06</ele>
        <time>2026-08-30T11:59:33.594Z</time>
      </trkpt>
      <trkpt lat="45.16189" lon="5.85178">
        <ele>1210.33</ele>
        <time>2026-08-30T11:59:35.624Z</time>
      </trkpt>
      <trkpt lat="45.16203" lon="5.85155">
        <ele>1206.99</ele>
        <time>2026-08-30T11:59:37.618Z</time>
      </trkpt>
      <trkpt lat="45.16216" lon="5.85133">
        <ele>1200.03</ele>
        <time>2026-08-30T11:59:39.573Z</time>
      </trkpt>
      <trkpt lat="45.1623" lon="5.85112">
        <ele>1194.14</ele>
        <time>2026-08-30T11:59:41.607Z</time>
      </trkpt>
      <trkpt lat="45.16243" lon="5.85082">
        <ele>1191.73</ele>
        <time>2026-08-30T11:59:44.524Z</time>
      </trkpt>
      <trkpt lat="45.16253" lon="5.85053">
        <ele>1190.93</ele>
        <time>2026-08-30T11:59:46.593Z</time>
      </trkpt>
      <trkpt lat="45.16258" lon="5.85028">
        <ele>1189.51</ele>
        <time>2026-08-30T11:59:48.579Z</time>
      </trkpt>
      <trkpt lat="45.16267" lon="5.84992">
        <ele>1186.48</ele>
        <time>2026-08-30T11:59:51.545Z</time>
      </trkpt>
      <trkpt lat="45.16277" lon="5.84967">
        <ele>1185.74</ele>
        <time>2026-08-30T11:59:53.663Z</time>
      </trkpt>
      <trkpt lat="45.16288" lon="5.84945">
        <ele>1183.78</ele>
        <time>2026-08-30T11:59:55.552Z</time>
      </trkpt>
      <trkpt lat="45.16298" lon="5.8492">
        <ele>1181.02</ele>
        <time>2026-08-30T11:59:57.552Z</time>
      </trkpt>
      <trkpt lat="45.16309" lon="5.84895">
        <ele>1176.23</ele>
        <time>2026-08-30T11:59:59.569Z</time>
      </trkpt>
      <trkpt lat="45.16321" lon="5.84857">
        <ele>1168.25</ele>
        <time>2026-08-30T12:00:02.634Z</time>
      </trkpt>
      <trkpt lat="45.16332" lon="5.84818">
        <ele>1163.2</ele>
        <time>2026-08-30T12:00:05.523Z</time>
      </trkpt>
      <trkpt lat="45.16338" lon="5.84794">
        <ele>1158.48</ele>
        <time>2026-08-30T12:00:07.487Z</time>
      </trkpt>
      <trkpt lat="45.16343" lon="5.84767">
        <ele>1154.5</ele>
        <time>2026-08-30T12:00:09.465Z</time>
      </trkpt>
      <trkpt lat="45.16352" lon="5.84738">
        <ele>1150.1</ele>
        <time>2026-08-30T12:00:11.570Z</time>
      </trkpt>
      <trkpt lat="45.1636" lon="5.84713">
        <ele>1143.53</ele>
        <time>2026-08-30T12:00:13.562Z</time>
      </trkpt>
      <trkpt lat="45.1637" lon="5.84689">
        <ele>1138.58</ele>
        <time>2026-08-30T12:00:15.539Z</time>
      </trkpt>
      <trkpt lat="45.1638" lon="5.84661">
        <ele>1134.89</ele>
        <time>2026-08-30T12:00:17.637Z</time>
      </trkpt>
      <trkpt lat="45.16387" lon="5.84636">
        <ele>1130.85</ele>
        <time>2026-08-30T12:00:19.631Z</time>
      </trkpt>
      <trkpt lat="45.16398" lon="5.84601">
        <ele>1125.99</ele>
        <time>2026-08-30T12:00:22.517Z</time>
      </trkpt>
      <trkpt lat="45.16409" lon="5.84579">
        <ele>1123.82</ele>
        <time>2026-08-30T12:00:24.642Z</time>
      </trkpt>
      <trkpt lat="45.16423" lon="5.84548">
        <ele>1119.96</ele>
        <time>2026-08-30T12:00:27.555Z</time>
      </trkpt>
      <trkpt lat="45.16439" lon="5.84518">
        <ele>1115.86</ele>
        <time>2026-08-30T12:00:30.575Z</time>
      </trkpt>
      <trkpt lat="45.1645" lon="5.84495">
        <ele>1113.15</ele>
        <time>2026-08-30T12:00:32.548Z</time>
      </trkpt>
      <trkpt lat="45.16459" lon="5.84471">
        <ele>1109.06</ele>
        <time>2026-08-30T12:00:34.546Z</time>
      </trkpt>
      <trkpt lat="45.16469" lon="5.84447">
        <ele>1104.42</ele>
        <time>2026-08-30T12:00:36.541Z</time>
      </trkpt>
      <trkpt lat="45.1648" lon="5.84424">
        <ele>1100.03</ele>
        <time>2026-08-30T12:00:38.503Z</time>
      </trkpt>
      <trkpt lat="45.16489" lon="5.84401">
        <ele>1095.84</ele>
        <time>2026-08-30T12:00:40.541Z</time>
      </trkpt>
      <trkpt lat="45.16498" lon="5.84378">
        <ele>1090.19</ele>
        <time>2026-08-30T12:00:42.542Z</time>
      </trkpt>
      <trkpt lat="45.16505" lon="5.84353">
        <ele>1085.99</ele>
        <time>2026-08-30T12:00:44.506Z</time>
      </trkpt>
      <trkpt lat="45.16511" lon="5.84326">
        <ele>1081.06</ele>
        <time>2026-08-30T12:00:46.618Z</time>
      </trkpt>
      <trkpt lat="45.16516" lon="5.843">
        <ele>1075.67</ele>
        <time>2026-08-30T12:00:48.572Z</time>
      </trkpt>
      <trkpt lat="45.1652" lon="5.84275">
        <ele>1070.69</ele>
        <time>2026-08-30T12:00:50.517Z</time>
      </trkpt>
      <trkpt lat="45.16522" lon="5.84248">
        <ele>1066.01</ele>
        <time>2026-08-30T12:00:52.542Z</time>
      </trkpt>
      <trkpt lat="45.16525" lon="5.84217">
        <ele>1061.42</ele>
        <time>2026-08-30T12:00:54.638Z</time>
      </trkpt>
      <trkpt lat="45.16522" lon="5.8419">
        <ele>1056.88</ele>
        <time>2026-08-30T12:00:56.464Z</time>
      </trkpt>
      <trkpt lat="45.16515" lon="5.84162">
        <ele>1051.68</ele>
        <time>2026-08-30T12:00:58.523Z</time>
      </trkpt>
      <trkpt lat="45.16505" lon="5.84135">
        <ele>1047.42</ele>
        <time>2026-08-30T12:01:00.575Z</time>
      </trkpt>
      <trkpt lat="45.16493" lon="5.84109">
        <ele>1043.87</ele>
        <time>2026-08-30T12:01:02.560Z</time>
      </trkpt>
      <trkpt lat="45.16488" lon="5.84083">
        <ele>1039.08</ele>
        <time>2026-08-30T12:01:04.508Z</time>
      </trkpt>
      <trkpt lat="45.16489" lon="5.84054">
        <ele>1034.3</ele>
        <time>2026-08-30T12:01:06.526Z</time>
      </trkpt>
      <trkpt lat="45.16494" lon="5.84025">
        <ele>1030.86</ele>
        <time>2026-08-30T12:01:08.543Z</time>
      </trkpt>
      <trkpt lat="45.16499" lon="5.83999">
        <ele>1027.48</ele>
        <time>2026-08-30T12:01:10.540Z</time>
      </trkpt>
      <trkpt lat="45.16509" lon="5.83963">
        <ele>1021.62</ele>
        <time>2026-08-30T12:01:13.537Z</time>
      </trkpt>
      <trkpt lat="45.16512" lon="5.83934">
        <ele>1019.02</ele>
        <time>2026-08-30T12:01:15.614Z</time>
      </trkpt>
      <trkpt lat="45.16511" lon="5.83898">
        <ele>1012.73</ele>
        <time>2026-08-30T12:01:18.526Z</time>
      </trkpt>
      <trkpt lat="45.16508" lon="5.8386">
        <ele>1007.36</ele>
        <time>2026-08-30T12:01:21.543Z</time>
      </trkpt>
      <trkpt lat="45.16505" lon="5.83823">
        <ele>1002.39</ele>
        <time>2026-08-30T12:01:24.546Z</time>
      </trkpt>
      <trkpt lat="45.1651" lon="5.83788">
        <ele>997.69</ele>
        <time>2026-08-30T12:01:27.552Z</time>
      </trkpt>
      <trkpt lat="45.16517" lon="5.83764">
        <ele>994.17</ele>
        <time>2026-08-30T12:01:29.555Z</time>
      </trkpt>
      <trkpt lat="45.16525" lon="5.83726">
        <ele>987.52</ele>
        <time>2026-08-30T12:01:32.612Z</time>
      </trkpt>
      <trkpt lat="45.1653" lon="5.83701">
        <ele>984.86</ele>
        <time>2026-08-30T12:01:34.559Z</time>
      </trkpt>
      <trkpt lat="45.16535" lon="5.83663">
        <ele>978.22</ele>
        <time>2026-08-30T12:01:37.602Z</time>
      </trkpt>
      <trkpt lat="45.1654" lon="5.83638">
        <ele>974.73</ele>
        <time>2026-08-30T12:01:39.559Z</time>
      </trkpt>
      <trkpt lat="45.16543" lon="5.83613">
        <ele>971.27</ele>
        <time>2026-08-30T12:01:41.569Z</time>
      </trkpt>
      <trkpt lat="45.16546" lon="5.83576">
        <ele>964.3</ele>
        <time>2026-08-30T12:01:44.461Z</time>
      </trkpt>
      <trkpt lat="45.16545" lon="5.8355">
        <ele>961.11</ele>
        <time>2026-08-30T12:01:46.565Z</time>
      </trkpt>
      <trkpt lat="45.16542" lon="5.83514">
        <ele>954.66</ele>
        <time>2026-08-30T12:01:49.516Z</time>
      </trkpt>
      <trkpt lat="45.16537" lon="5.83489">
        <ele>950.98</ele>
        <time>2026-08-30T12:01:51.522Z</time>
      </trkpt>
      <trkpt lat="45.16532" lon="5.83462">
        <ele>946.85</ele>
        <time>2026-08-30T12:01:53.647Z</time>
      </trkpt>
      <trkpt lat="45.16525" lon="5.83427">
        <ele>940.22</ele>
        <time>2026-08-30T12:01:56.572Z</time>
      </trkpt>
      <trkpt lat="45.16517" lon="5.83393">
        <ele>933.91</ele>
        <time>2026-08-30T12:01:59.572Z</time>
      </trkpt>
      <trkpt lat="45.16504" lon="5.8336">
        <ele>926.39</ele>
        <time>2026-08-30T12:02:02.640Z</time>
      </trkpt>
      <trkpt lat="45.16492" lon="5.83331">
        <ele>919.75</ele>
        <time>2026-08-30T12:02:05.576Z</time>
      </trkpt>
      <trkpt lat="45.16479" lon="5.833">
        <ele>913.5</ele>
        <time>2026-08-30T12:02:08.522Z</time>
      </trkpt>
      <trkpt lat="45.16458" lon="5.83282">
        <ele>906.97</ele>
        <time>2026-08-30T12:02:11.558Z</time>
      </trkpt>
      <trkpt lat="45.1644" lon="5.83275">
        <ele>902.04</ele>
        <time>2026-08-30T12:02:13.605Z</time>
      </trkpt>
      <trkpt lat="45.16418" lon="5.83257">
        <ele>895.09</ele>
        <time>2026-08-30T12:02:16.557Z</time>
      </trkpt>
      <trkpt lat="45.16414" lon="5.8322">
        <ele>887.85</ele>
        <time>2026-08-30T12:02:19.598Z</time>
      </trkpt>
      <trkpt lat="45.16407" lon="5.83196">
        <ele>883.57</ele>
        <time>2026-08-30T12:02:21.562Z</time>
      </trkpt>
      <trkpt lat="45.16391" lon="5.83182">
        <ele>878.77</ele>
        <time>2026-08-30T12:02:23.572Z</time>
      </trkpt>
      <trkpt lat="45.16375" lon="5.83166">
        <ele>872.47</ele>
        <time>2026-08-30T12:02:25.682Z</time>
      </trkpt>
      <trkpt lat="45.16349" lon="5.83157">
        <ele>866.32</ele>
        <time>2026-08-30T12:02:28.589Z</time>
      </trkpt>
      <trkpt lat="45.16322" lon="5.83151">
        <ele>861.11</ele>
        <time>2026-08-30T12:02:31.518Z</time>
      </trkpt>
      <trkpt lat="45.16297" lon="5.83148">
        <ele>854.13</ele>
        <time>2026-08-30T12:02:34.661Z</time>
      </trkpt>
      <trkpt lat="45.16271" lon="5.83142">
        <ele>847.91</ele>
        <time>2026-08-30T12:02:37.572Z</time>
      </trkpt>
      <trkpt lat="45.16256" lon="5.8312">
        <ele>841.5</ele>
        <time>2026-08-30T12:02:40.470Z</time>
      </trkpt>
      <trkpt lat="45.1626" lon="5.83091">
        <ele>837.51</ele>
        <time>2026-08-30T12:02:42.524Z</time>
      </trkpt>
      <trkpt lat="45.16249" lon="5.8306">
        <ele>830.81</ele>
        <time>2026-08-30T12:02:45.523Z</time>
      </trkpt>
      <trkpt lat="45.16229" lon="5.83047">
        <ele>826.85</ele>
        <time>2026-08-30T12:02:47.561Z</time>
      </trkpt>
      <trkpt lat="45.1621" lon="5.83038">
        <ele>822.63</ele>
        <time>2026-08-30T12:02:49.589Z</time>
      </trkpt>
      <trkpt lat="45.1619" lon="5.83041">
        <ele>818.13</ele>
        <time>2026-08-30T12:02:51.535Z</time>
      </trkpt>
      <trkpt lat="45.16168" lon="5.83051">
        <ele>814.13</ele>
        <time>2026-08-30T12:02:53.559Z</time>
      </trkpt>
      <trkpt lat="45.16144" lon="5.83038">
        <ele>806.56</ele>
        <time>2026-08-30T12:02:56.478Z</time>
      </trkpt>
      <trkpt lat="45.16157" lon="5.83004">
        <ele>800.72</ele>
        <time>2026-08-30T12:02:59.625Z</time>
      </trkpt>
      <trkpt lat="45.1618" lon="5.82988">
        <ele>794.86</ele>
        <time>2026-08-30T12:03:01.617Z</time>
      </trkpt>
      <trkpt lat="45.16196" lon="5.82973">
        <ele>789.8</ele>
        <time>2026-08-30T12:03:03.537Z</time>
      </trkpt>
      <trkpt lat="45.16209" lon="5.82951">
        <ele>788.1</ele>
        <time>2026-08-30T12:03:05.512Z</time>
      </trkpt>
      <trkpt lat="45.16221" lon="5.82918">
        <ele>781.57</ele>
        <time>2026-08-30T12:03:08.614Z</time>
      </trkpt>
      <trkpt lat="45.16226" lon="5.82884">
        <ele>775.93</ele>
        <time>2026-08-30T12:03:11.608Z</time>
      </trkpt>
      <trkpt lat="45.16224" lon="5.82858">
        <ele>772.72</ele>
        <time>2026-08-30T12:03:13.566Z</time>
      </trkpt>
      <trkpt lat="45.16208" lon="5.82827">
        <ele>765.58</ele>
        <time>2026-08-30T12:03:16.561Z</time>
      </trkpt>
      <trkpt lat="45.16188" lon="5.8282">
        <ele>761.65</ele>
        <time>2026-08-30T12:03:18.527Z</time>
      </trkpt>
      <trkpt lat="45.16164" lon="5.8283">
        <ele>756.35</ele>
        <time>2026-08-30T12:03:20.582Z</time>
      </trkpt>
      <trkpt lat="45.16143" lon="5.82846">
        <ele>750.27</ele>
        <time>2026-08-30T12:03:22.670Z</time>
      </trkpt>
      <trkpt lat="45.16125" lon="5.82868">
        <ele>743.93</ele>
        <time>2026-08-30T12:03:24.586Z</time>
      </trkpt>
      <trkpt lat="45.16112" lon="5.82897">
        <ele>738.29</ele>
        <time>2026-08-30T12:03:26.577Z</time>
      </trkpt>
      <trkpt lat="45.16104" lon="5.82929">
        <ele>733.05</ele>
        <time>2026-08-30T12:03:28.536Z</time>
      </trkpt>
      <trkpt lat="45.16095" lon="5.82961">
        <ele>728.36</ele>
        <time>2026-08-30T12:03:30.567Z</time>
      </trkpt>
      <trkpt lat="45.16071" lon="5.82994">
        <ele>724.03</ele>
        <time>2026-08-30T12:03:33.606Z</time>
      </trkpt>
      <trkpt lat="45.1604" lon="5.83013">
        <ele>720.03</ele>
        <time>2026-08-30T12:03:36.556Z</time>
      </trkpt>
      <trkpt lat="45.1602" lon="5.83014">
        <ele>716.09</ele>
        <time>2026-08-30T12:03:38.525Z</time>
      </trkpt>
      <trkpt lat="45.16" lon="5.83013">
        <ele>712.72</ele>
        <time>2026-08-30T12:03:40.586Z</time>
      </trkpt>
      <trkpt lat="45.15983" lon="5.83001">
        <ele>709.65</ele>
        <time>2026-08-30T12:03:42.620Z</time>
      </trkpt>
      <trkpt lat="45.15965" lon="5.82982">
        <ele>703.99</ele>
        <time>2026-08-30T12:03:45.602Z</time>
      </trkpt>
      <trkpt lat="45.15957" lon="5.82951">
        <ele>700.46</ele>
        <time>2026-08-30T12:03:48.675Z</time>
      </trkpt>
      <trkpt lat="45.15956" lon="5.82914">
        <ele>697.93</ele>
        <time>2026-08-30T12:03:52.645Z</time>
      </trkpt>
      <trkpt lat="45.15963" lon="5.8288">
        <ele>696.54</ele>
        <time>2026-08-30T12:03:55.616Z</time>
      </trkpt>
      <trkpt lat="45.15972" lon="5.82852">
        <ele>692.3</ele>
        <time>2026-08-30T12:03:58.658Z</time>
      </trkpt>
      <trkpt lat="45.15982" lon="5.82821">
        <ele>687.71</ele>
        <time>2026-08-30T12:04:01.631Z</time>
      </trkpt>
      <trkpt lat="45.15997" lon="5.82798">
        <ele>681.98</ele>
        <time>2026-08-30T12:04:04.507Z</time>
      </trkpt>
      <trkpt lat="45.16014" lon="5.82773">
        <ele>676.42</ele>
        <time>2026-08-30T12:04:07.453Z</time>
      </trkpt>
      <trkpt lat="45.1603" lon="5.82748">
        <ele>670.74</ele>
        <time>2026-08-30T12:04:10.590Z</time>
      </trkpt>
      <trkpt lat="45.16048" lon="5.82735">
        <ele>665.1</ele>
        <time>2026-08-30T12:04:13.374Z</time>
      </trkpt>
      <trkpt lat="45.16071" lon="5.82727">
        <ele>660.68</ele>
        <time>2026-08-30T12:04:16.490Z</time>
      </trkpt>
      <trkpt lat="45.16092" lon="5.82756">
        <ele>655.39</ele>
        <time>2026-08-30T12:04:19.560Z</time>
      </trkpt>
      <trkpt lat="45.16078" lon="5.82789">
        <ele>649.81</ele>
        <time>2026-08-30T12:04:22.531Z</time>
      </trkpt>
      <trkpt lat="45.1606" lon="5.82799">
        <ele>646.99</ele>
        <time>2026-08-30T12:04:23.584Z</time>
      </trkpt>
      <trkpt lat="45.16043" lon="5.82812">
        <ele>644.5</ele>
        <time>2026-08-30T12:04:24.662Z</time>
      </trkpt>
      <trkpt lat="45.1602" lon="5.82834">
        <ele>639.78</ele>
        <time>2026-08-30T12:04:26.516Z</time>
      </trkpt>
      <trkpt lat="45.16002" lon="5.82864">
        <ele>636.94</ele>
        <time>2026-08-30T12:04:28.656Z</time>
      </trkpt>
      <trkpt lat="45.15993" lon="5.829">
        <ele>632.78</ele>
        <time>2026-08-30T12:04:30.644Z</time>
      </trkpt>
      <trkpt lat="45.15995" lon="5.82932">
        <ele>628.13</ele>
        <time>2026-08-30T12:04:32.557Z</time>
      </trkpt>
      <trkpt lat="45.16012" lon="5.82953">
        <ele>623.99</ele>
        <time>2026-08-30T12:04:34.530Z</time>
      </trkpt>
      <trkpt lat="45.16033" lon="5.82962">
        <ele>621.85</ele>
        <time>2026-08-30T12:04:36.569Z</time>
      </trkpt>
      <trkpt lat="45.16053" lon="5.82966">
        <ele>619.38</ele>
        <time>2026-08-30T12:04:38.665Z</time>
      </trkpt>
      <trkpt lat="45.16078" lon="5.8297">
        <ele>616.25</ele>
        <time>2026-08-30T12:04:41.559Z</time>
      </trkpt>
      <trkpt lat="45.16103" lon="5.8296">
        <ele>614.29</ele>
        <time>2026-08-30T12:04:44.611Z</time>
      </trkpt>
      <trkpt lat="45.1609" lon="5.82921">
        <ele>612.29</ele>
        <time>2026-08-30T12:04:47.582Z</time>
      </trkpt>
      <trkpt lat="45.16082" lon="5.82894">
        <ele>609.11</ele>
        <time>2026-08-30T12:04:50.573Z</time>
      </trkpt>
      <trkpt lat="45.16105" lon="5.82893">
        <ele>606.91</ele>
        <time>2026-08-30T12:04:53.638Z</time>
      </trkpt>
      <trkpt lat="45.16127" lon="5.82896">
        <ele>602.73</ele>
        <time>2026-08-30T12:04:55.688Z</time>
      </trkpt>
      <trkpt lat="45.16149" lon="5.82877">
        <ele>597.16</ele>
        <time>2026-08-30T12:04:58.513Z</time>
      </trkpt>
      <trkpt lat="45.16163" lon="5.82855">
        <ele>594.65</ele>
        <time>2026-08-30T12:05:00.555Z</time>
      </trkpt>
      <trkpt lat="45.16177" lon="5.82824">
        <ele>584.5</ele>
        <time>2026-08-30T12:05:03.520Z</time>
      </trkpt>
      <trkpt lat="45.16193" lon="5.82797">
        <ele>581.93</ele>
        <time>2026-08-30T12:05:06.607Z</time>
      </trkpt>
      <trkpt lat="45.16209" lon="5.8278">
        <ele>579.38</ele>
        <time>2026-08-30T12:05:09.500Z</time>
      </trkpt>
      <trkpt lat="45.16226" lon="5.82766">
        <ele>576.69</ele>
        <time>2026-08-30T12:05:17.401Z</time>
      </trkpt>
      <trkpt lat="45.16239" lon="5.82746">
        <ele>578.02</ele>
        <time>2026-08-30T12:06:00.720Z</time>
      </trkpt>
      <trkpt lat="45.16246" lon="5.82723">
        <ele>577.69</ele>
        <time>2026-08-30T12:06:13.479Z</time>
      </trkpt>
      <trkpt lat="45.16257" lon="5.82702">
        <ele>575.68</ele>
        <time>2026-08-30T12:06:27.586Z</time>
      </trkpt>
      <trkpt lat="45.16275" lon="5.82694">
        <ele>573.24</ele>
        <time>2026-08-30T12:06:41.049Z</time>
      </trkpt>
      <trkpt lat="45.16292" lon="5.82703">
        <ele>572.48</ele>
        <time>2026-08-30T12:16:53.374Z</time>
      </trkpt>
      <trkpt lat="45.16311" lon="5.82712">
        <ele>568.54</ele>
        <time>2026-08-30T12:17:16.076Z</time>
      </trkpt>
      <trkpt lat="45.1633" lon="5.82716">
        <ele>568.3</ele>
        <time>2026-08-30T12:17:28.439Z</time>
      </trkpt>
      <trkpt lat="45.16347" lon="5.82728">
        <ele>566.03</ele>
        <time>2026-08-30T12:17:37.929Z</time>
      </trkpt>
      <trkpt lat="45.1636" lon="5.82746">
        <ele>567.25</ele>
        <time>2026-08-30T12:17:45.877Z</time>
      </trkpt>
      <trkpt lat="45.16376" lon="5.82759">
        <ele>566.61</ele>
        <time>2026-08-30T12:17:52.975Z</time>
      </trkpt>
      <trkpt lat="45.16389" lon="5.82778">
        <ele>561.71</ele>
        <time>2026-08-30T12:18:08.409Z</time>
      </trkpt>
      <trkpt lat="45.16405" lon="5.82794">
        <ele>560.25</ele>
        <time>2026-08-30T12:18:20.873Z</time>
      </trkpt>
      <trkpt lat="45.16421" lon="5.82805">
        <ele>559.2</ele>
        <time>2026-08-30T12:18:28.350Z</time>
      </trkpt>
      <trkpt lat="45.1644" lon="5.82813">
        <ele>557.46</ele>
        <time>2026-08-30T12:18:35.397Z</time>
      </trkpt>
      <trkpt lat="45.16458" lon="5.82822">
        <ele>554.96</ele>
        <time>2026-08-30T12:18:42.311Z</time>
      </trkpt>
      <trkpt lat="45.16475" lon="5.8283">
        <ele>553.91</ele>
        <time>2026-08-30T12:18:50.482Z</time>
      </trkpt>
      <trkpt lat="45.16492" lon="5.8284">
        <ele>550.55</ele>
        <time>2026-08-30T12:18:57.438Z</time>
      </trkpt>
      <trkpt lat="45.16509" lon="5.82853">
        <ele>549.75</ele>
        <time>2026-08-30T12:19:04.355Z</time>
      </trkpt>
      <trkpt lat="45.16527" lon="5.82846">
        <ele>548.01</ele>
        <time>2026-08-30T12:19:12.193Z</time>
      </trkpt>
      <trkpt lat="45.16527" lon="5.82819">
        <ele>548.94</ele>
        <time>2026-08-30T12:19:19.831Z</time>
      </trkpt>
      <trkpt lat="45.16527" lon="5.82792">
        <ele>547.87</ele>
        <time>2026-08-30T12:19:27.494Z</time>
      </trkpt>
      <trkpt lat="45.16529" lon="5.82764">
        <ele>548.62</ele>
        <time>2026-08-30T12:19:35.015Z</time>
      </trkpt>
      <trkpt lat="45.16527" lon="5.82739">
        <ele>549.3</ele>
        <time>2026-08-30T12:19:41.714Z</time>
      </trkpt>
      <trkpt lat="45.16526" lon="5.82711">
        <ele>547.81</ele>
        <time>2026-08-30T12:19:49.190Z</time>
      </trkpt>
      <trkpt lat="45.16519" lon="5.82687">
        <ele>548.72</ele>
        <time>2026-08-30T12:19:56.988Z</time>
      </trkpt>
      <trkpt lat="45.16509" lon="5.82666">
        <ele>550.26</ele>
        <time>2026-08-30T12:20:04.409Z</time>
      </trkpt>
      <trkpt lat="45.165" lon="5.82643">
        <ele>552.11</ele>
        <time>2026-08-30T12:20:11.993Z</time>
      </trkpt>
      <trkpt lat="45.16493" lon="5.82617">
        <ele>551.32</ele>
        <time>2026-08-30T12:20:19.931Z</time>
      </trkpt>
      <trkpt lat="45.16485" lon="5.82594">
        <ele>551.21</ele>
        <time>2026-08-30T12:20:27.387Z</time>
      </trkpt>
      <trkpt lat="45.16482" lon="5.82569">
        <ele>552.69</ele>
        <time>2026-08-30T12:20:35.702Z</time>
      </trkpt>
      <trkpt lat="45.1648" lon="5.82542">
        <ele>551.51</ele>
        <time>2026-08-30T12:20:48.506Z</time>
      </trkpt>
      <trkpt lat="45.16477" lon="5.82516">
        <ele>550.23</ele>
        <time>2026-08-30T12:20:56.817Z</time>
      </trkpt>
      <trkpt lat="45.16474" lon="5.8249">
        <ele>551.58</ele>
        <time>2026-08-30T12:21:04.508Z</time>
      </trkpt>
      <trkpt lat="45.16467" lon="5.82464">
        <ele>550.84</ele>
        <time>2026-08-30T12:21:11.792Z</time>
      </trkpt>
      <trkpt lat="45.16462" lon="5.82439">
        <ele>550.75</ele>
        <time>2026-08-30T12:21:19.270Z</time>
      </trkpt>
      <trkpt lat="45.16458" lon="5.82413">
        <ele>551.26</ele>
        <time>2026-08-30T12:21:27.117Z</time>
      </trkpt>
      <trkpt lat="45.16454" lon="5.82387">
        <ele>550.93</ele>
        <time>2026-08-30T12:21:34.487Z</time>
      </trkpt>
      <trkpt lat="45.1645" lon="5.82361">
        <ele>551.02</ele>
        <time>2026-08-30T12:21:42.314Z</time>
      </trkpt>
      <trkpt lat="45.16444" lon="5.82336">
        <ele>552.05</ele>
        <time>2026-08-30T12:21:49.871Z</time>
      </trkpt>
      <trkpt lat="45.16439" lon="5.82309">
        <ele>552.13</ele>
        <time>2026-08-30T12:21:58.117Z</time>
      </trkpt>
      <trkpt lat="45.16435" lon="5.82282">
        <ele>552.91</ele>
        <time>2026-08-30T12:22:06.075Z</time>
      </trkpt>
      <trkpt lat="45.16432" lon="5.82257">
        <ele>553.97</ele>
        <time>2026-08-30T12:22:14.394Z</time>
      </trkpt>
      <trkpt lat="45.16431" lon="5.8223">
        <ele>553.98</ele>
        <time>2026-08-30T12:22:21.932Z</time>
      </trkpt>
      <trkpt lat="45.16428" lon="5.82205">
        <ele>554.67</ele>
        <time>2026-08-30T12:22:29.050Z</time>
      </trkpt>
      <trkpt lat="45.16425" lon="5.82178">
        <ele>554.88</ele>
        <time>2026-08-30T12:22:37.338Z</time>
      </trkpt>
      <trkpt lat="45.16422" lon="5.82152">
        <ele>555.48</ele>
        <time>2026-08-30T12:22:45.235Z</time>
      </trkpt>
      <trkpt lat="45.16423" lon="5.82126">
        <ele>555.24</ele>
        <time>2026-08-30T12:22:52.813Z</time>
      </trkpt>
      <trkpt lat="45.16426" lon="5.82101">
        <ele>555.68</ele>
        <time>2026-08-30T12:23:00.030Z</time>
      </trkpt>
      <trkpt lat="45.16429" lon="5.82075">
        <ele>554.81</ele>
        <time>2026-08-30T12:23:07.898Z</time>
      </trkpt>
      <trkpt lat="45.16431" lon="5.82049">
        <ele>555.5</ele>
        <time>2026-08-30T12:23:15.715Z</time>
      </trkpt>
      <trkpt lat="45.16437" lon="5.82022">
        <ele>554.49</ele>
        <time>2026-08-30T12:23:24.010Z</time>
      </trkpt>
      <trkpt lat="45.16443" lon="5.81996">
        <ele>554.48</ele>
        <time>2026-08-30T12:23:31.410Z</time>
      </trkpt>
      <trkpt lat="45.16449" lon="5.81971">
        <ele>554.42</ele>
        <time>2026-08-30T12:23:38.538Z</time>
      </trkpt>
      <trkpt lat="45.16459" lon="5.81947">
        <ele>554.64</ele>
        <time>2026-08-30T12:23:46.352Z</time>
      </trkpt>
      <trkpt lat="45.16469" lon="5.81925">
        <ele>555.73</ele>
        <time>2026-08-30T12:23:53.913Z</time>
      </trkpt>
      <trkpt lat="45.16478" lon="5.81902">
        <ele>554.34</ele>
        <time>2026-08-30T12:24:02.513Z</time>
      </trkpt>
      <trkpt lat="45.16489" lon="5.81881">
        <ele>555.01</ele>
        <time>2026-08-30T12:24:09.398Z</time>
      </trkpt>
      <trkpt lat="45.165" lon="5.8186">
        <ele>557.13</ele>
        <time>2026-08-30T12:24:17.053Z</time>
      </trkpt>
      <trkpt lat="45.16512" lon="5.8184">
        <ele>556.78</ele>
        <time>2026-08-30T12:24:24.973Z</time>
      </trkpt>
      <trkpt lat="45.16524" lon="5.81819">
        <ele>557.24</ele>
        <time>2026-08-30T12:24:32.426Z</time>
      </trkpt>
      <trkpt lat="45.16537" lon="5.818">
        <ele>557.43</ele>
        <time>2026-08-30T12:24:40.058Z</time>
      </trkpt>
      <trkpt lat="45.16552" lon="5.81787">
        <ele>556.33</ele>
        <time>2026-08-30T12:24:47.513Z</time>
      </trkpt>
      <trkpt lat="45.1657" lon="5.81777">
        <ele>555.53</ele>
        <time>2026-08-30T12:24:54.540Z</time>
      </trkpt>
      <trkpt lat="45.1659" lon="5.81775">
        <ele>556.02</ele>
        <time>2026-08-30T12:25:02.511Z</time>
      </trkpt>
      <trkpt lat="45.16608" lon="5.81778">
        <ele>556.96</ele>
        <time>2026-08-30T12:25:10.457Z</time>
      </trkpt>
      <trkpt lat="45.16626" lon="5.8178">
        <ele>558.47</ele>
        <time>2026-08-30T12:25:17.836Z</time>
      </trkpt>
      <trkpt lat="45.16644" lon="5.81783">
        <ele>557.59</ele>
        <time>2026-08-30T12:25:25.460Z</time>
      </trkpt>
      <trkpt lat="45.16662" lon="5.81785">
        <ele>558.13</ele>
        <time>2026-08-30T12:25:33.550Z</time>
      </trkpt>
      <trkpt lat="45.16681" lon="5.81779">
        <ele>558.72</ele>
        <time>2026-08-30T12:25:41.969Z</time>
      </trkpt>
      <trkpt lat="45.167" lon="5.81785">
        <ele>556.58</ele>
        <time>2026-08-30T12:25:50.296Z</time>
      </trkpt>
      <trkpt lat="45.16711" lon="5.81806">
        <ele>555.13</ele>
        <time>2026-08-30T12:25:57.213Z</time>
      </trkpt>
      <trkpt lat="45.16726" lon="5.81825">
        <ele>554.92</ele>
        <time>2026-08-30T12:26:05.408Z</time>
      </trkpt>
      <trkpt lat="45.16739" lon="5.81843">
        <ele>554.77</ele>
        <time>2026-08-30T12:26:12.949Z</time>
      </trkpt>
      <trkpt lat="45.16756" lon="5.81859">
        <ele>555.77</ele>
        <time>2026-08-30T12:26:21.277Z</time>
      </trkpt>
      <trkpt lat="45.16774" lon="5.81871">
        <ele>554.16</ele>
        <time>2026-08-30T12:26:29.154Z</time>
      </trkpt>
      <trkpt lat="45.16791" lon="5.81886">
        <ele>554.6</ele>
        <time>2026-08-30T12:26:36.712Z</time>
      </trkpt>
      <trkpt lat="45.16809" lon="5.81891">
        <ele>554.18</ele>
        <time>2026-08-30T12:26:47.992Z</time>
      </trkpt>
      <trkpt lat="45.16826" lon="5.81895">
        <ele>556.96</ele>
        <time>2026-08-30T12:26:56.812Z</time>
      </trkpt>
      <trkpt lat="45.16845" lon="5.81896">
        <ele>558.83</ele>
        <time>2026-08-30T12:27:05.410Z</time>
      </trkpt>
      <trkpt lat="45.16852" lon="5.81873">
        <ele>558.82</ele>
        <time>2026-08-30T12:27:24.376Z</time>
      </trkpt>
      <trkpt lat="45.16841" lon="5.81851">
        <ele>559.43</ele>
        <time>2026-08-30T12:27:33.777Z</time>
      </trkpt>
      <trkpt lat="45.16832" lon="5.81829">
        <ele>555.73</ele>
        <time>2026-08-30T12:27:43.717Z</time>
      </trkpt>
      <trkpt lat="45.16826" lon="5.81803">
        <ele>551.44</ele>
        <time>2026-08-30T12:27:53.656Z</time>
      </trkpt>
      <trkpt lat="45.16824" lon="5.81776">
        <ele>548.59</ele>
        <time>2026-08-30T12:28:02.296Z</time>
      </trkpt>
      <trkpt lat="45.16824" lon="5.81749">
        <ele>546.56</ele>
        <time>2026-08-30T12:28:10.395Z</time>
      </trkpt>
      <trkpt lat="45.16824" lon="5.81723">
        <ele>545.34</ele>
        <time>2026-08-30T12:28:17.551Z</time>
      </trkpt>
      <trkpt lat="45.16825" lon="5.81695">
        <ele>545.26</ele>
        <time>2026-08-30T12:28:24.689Z</time>
      </trkpt>
      <trkpt lat="45.16824" lon="5.81668">
        <ele>542.68</ele>
        <time>2026-08-30T12:28:31.876Z</time>
      </trkpt>
      <trkpt lat="45.16826" lon="5.81643">
        <ele>540.35</ele>
        <time>2026-08-30T12:28:39.814Z</time>
      </trkpt>
      <trkpt lat="45.16837" lon="5.81621">
        <ele>539.66</ele>
        <time>2026-08-30T12:28:47.343Z</time>
      </trkpt>
      <trkpt lat="45.16848" lon="5.81597">
        <ele>538.44</ele>
        <time>2026-08-30T12:28:54.518Z</time>
      </trkpt>
      <trkpt lat="45.16867" lon="5.81589">
        <ele>537.46</ele>
        <time>2026-08-30T12:29:02.176Z</time>
      </trkpt>
      <trkpt lat="45.16884" lon="5.81581">
        <ele>534.49</ele>
        <time>2026-08-30T12:29:10.014Z</time>
      </trkpt>
      <trkpt lat="45.1688" lon="5.81556">
        <ele>531.04</ele>
        <time>2026-08-30T12:29:28.284Z</time>
      </trkpt>
      <trkpt lat="45.16862" lon="5.81546">
        <ele>530.54</ele>
        <time>2026-08-30T12:29:35.770Z</time>
      </trkpt>
      <trkpt lat="45.16843" lon="5.81539">
        <ele>529.67</ele>
        <time>2026-08-30T12:29:43.198Z</time>
      </trkpt>
      <trkpt lat="45.16824" lon="5.81532">
        <ele>531.28</ele>
        <time>2026-08-30T12:29:50.853Z</time>
      </trkpt>
      <trkpt lat="45.16807" lon="5.81523">
        <ele>532.62</ele>
        <time>2026-08-30T12:29:58.734Z</time>
      </trkpt>
      <trkpt lat="45.16788" lon="5.81516">
        <ele>532.96</ele>
        <time>2026-08-30T12:30:07.417Z</time>
      </trkpt>
      <trkpt lat="45.16771" lon="5.81505">
        <ele>533.94</ele>
        <time>2026-08-30T12:30:15.831Z</time>
      </trkpt>
      <trkpt lat="45.16754" lon="5.81496">
        <ele>535.09</ele>
        <time>2026-08-30T12:30:23.770Z</time>
      </trkpt>
      <trkpt lat="45.16736" lon="5.81485">
        <ele>536.99</ele>
        <time>2026-08-30T12:30:32.338Z</time>
      </trkpt>
      <trkpt lat="45.16719" lon="5.81472">
        <ele>537.81</ele>
        <time>2026-08-30T12:30:40.576Z</time>
      </trkpt>
      <trkpt lat="45.16702" lon="5.81463">
        <ele>537.03</ele>
        <time>2026-08-30T12:31:37.910Z</time>
      </trkpt>
      <trkpt lat="45.16686" lon="5.81448">
        <ele>539.09</ele>
        <time>2026-08-30T12:31:45.568Z</time>
      </trkpt>
      <trkpt lat="45.16675" lon="5.81428">
        <ele>538.56</ele>
        <time>2026-08-30T12:31:58.301Z</time>
      </trkpt>
      <trkpt lat="45.16663" lon="5.81409">
        <ele>537.63</ele>
        <time>2026-08-30T12:32:11.100Z</time>
      </trkpt>
      <trkpt lat="45.1666" lon="5.81382">
        <ele>538.56</ele>
        <time>2026-08-30T12:32:29.104Z</time>
      </trkpt>
      <trkpt lat="45.1665" lon="5.81361">
        <ele>537.18</ele>
        <time>2026-08-30T12:32:40.698Z</time>
      </trkpt>
      <trkpt lat="45.16649" lon="5.81333">
        <ele>539.65</ele>
        <time>2026-08-30T12:32:48.457Z</time>
      </trkpt>
      <trkpt lat="45.16647" lon="5.81307">
        <ele>539.21</ele>
        <time>2026-08-30T12:32:53.823Z</time>
      </trkpt>
      <trkpt lat="45.16653" lon="5.81279">
        <ele>539.07</ele>
        <time>2026-08-30T12:33:01.399Z</time>
      </trkpt>
      <trkpt lat="45.16656" lon="5.81254">
        <ele>537.24</ele>
        <time>2026-08-30T12:33:08.700Z</time>
      </trkpt>
      <trkpt lat="45.16659" lon="5.81228">
        <ele>537.59</ele>
        <time>2026-08-30T12:33:15.658Z</time>
      </trkpt>
      <trkpt lat="45.16668" lon="5.81206">
        <ele>538.07</ele>
        <time>2026-08-30T12:33:22.004Z</time>
      </trkpt>
      <trkpt lat="45.16684" lon="5.81193">
        <ele>540.01</ele>
        <time>2026-08-30T12:33:30.866Z</time>
      </trkpt>
      <trkpt lat="45.16699" lon="5.81177">
        <ele>542.11</ele>
        <time>2026-08-30T12:33:46.342Z</time>
      </trkpt>
      <trkpt lat="45.16714" lon="5.8116">
        <ele>544.37</ele>
        <time>2026-08-30T12:34:00.477Z</time>
      </trkpt>
      <trkpt lat="45.16721" lon="5.81135">
        <ele>545.07</ele>
        <time>2026-08-30T12:34:07.525Z</time>
      </trkpt>
      <trkpt lat="45.16733" lon="5.81116">
        <ele>544.57</ele>
        <time>2026-08-30T12:34:15.519Z</time>
      </trkpt>
      <trkpt lat="45.16745" lon="5.81097">
        <ele>544.61</ele>
        <time>2026-08-30T12:34:23.982Z</time>
      </trkpt>
      <trkpt lat="45.16757" lon="5.81077">
        <ele>542.03</ele>
        <time>2026-08-30T12:34:31.899Z</time>
      </trkpt>
      <trkpt lat="45.1676" lon="5.81052">
        <ele>543.58</ele>
        <time>2026-08-30T12:34:41.385Z</time>
      </trkpt>
      <trkpt lat="45.16752" lon="5.81028">
        <ele>545.36</ele>
        <time>2026-08-30T12:34:48.548Z</time>
      </trkpt>
      <trkpt lat="45.16742" lon="5.81006">
        <ele>545.02</ele>
        <time>2026-08-30T12:34:55.785Z</time>
      </trkpt>
      <trkpt lat="45.16731" lon="5.80984">
        <ele>545.61</ele>
        <time>2026-08-30T12:35:03.942Z</time>
      </trkpt>
      <trkpt lat="45.16722" lon="5.8096">
        <ele>547.14</ele>
        <time>2026-08-30T12:35:12.059Z</time>
      </trkpt>
      <trkpt lat="45.16717" lon="5.80935">
        <ele>546.67</ele>
        <time>2026-08-30T12:35:18.838Z</time>
      </trkpt>
      <trkpt lat="45.16713" lon="5.80909">
        <ele>546.11</ele>
        <time>2026-08-30T12:35:26.225Z</time>
      </trkpt>
      <trkpt lat="45.1671" lon="5.80881">
        <ele>545.56</ele>
        <time>2026-08-30T12:35:33.301Z</time>
      </trkpt>
      <trkpt lat="45.16711" lon="5.80854">
        <ele>546.05</ele>
        <time>2026-08-30T12:35:40.038Z</time>
      </trkpt>
      <trkpt lat="45.16716" lon="5.80828">
        <ele>545.99</ele>
        <time>2026-08-30T12:35:46.626Z</time>
      </trkpt>
      <trkpt lat="45.16722" lon="5.80803">
        <ele>544.06</ele>
        <time>2026-08-30T12:35:53.683Z</time>
      </trkpt>
      <trkpt lat="45.16726" lon="5.80777">
        <ele>542.92</ele>
        <time>2026-08-30T12:36:01.120Z</time>
      </trkpt>
      <trkpt lat="45.16729" lon="5.8075">
        <ele>542.94</ele>
        <time>2026-08-30T12:36:08.196Z</time>
      </trkpt>
      <trkpt lat="45.16736" lon="5.80724">
        <ele>541.74</ele>
        <time>2026-08-30T12:36:15.784Z</time>
      </trkpt>
      <trkpt lat="45.16749" lon="5.80704">
        <ele>540.07</ele>
        <time>2026-08-30T12:36:23.591Z</time>
      </trkpt>
      <trkpt lat="45.16768" lon="5.80695">
        <ele>538.16</ele>
        <time>2026-08-30T12:36:31.475Z</time>
      </trkpt>
      <trkpt lat="45.16786" lon="5.80697">
        <ele>535.38</ele>
        <time>2026-08-30T12:36:38.858Z</time>
      </trkpt>
      <trkpt lat="45.16805" lon="5.80701">
        <ele>534.07</ele>
        <time>2026-08-30T12:36:46.064Z</time>
      </trkpt>
      <trkpt lat="45.16824" lon="5.80692">
        <ele>532.24</ele>
        <time>2026-08-30T12:36:53.463Z</time>
      </trkpt>
      <trkpt lat="45.16839" lon="5.80679">
        <ele>531.77</ele>
        <time>2026-08-30T12:36:59.885Z</time>
      </trkpt>
      <trkpt lat="45.16856" lon="5.80668">
        <ele>531.57</ele>
        <time>2026-08-30T12:37:07.397Z</time>
      </trkpt>
      <trkpt lat="45.16873" lon="5.80659">
        <ele>531.78</ele>
        <time>2026-08-30T12:37:14.542Z</time>
      </trkpt>
      <trkpt lat="45.16893" lon="5.80658">
        <ele>531.32</ele>
        <time>2026-08-30T12:37:22.101Z</time>
      </trkpt>
      <trkpt lat="45.16911" lon="5.80656">
        <ele>528.67</ele>
        <time>2026-08-30T12:37:28.897Z</time>
      </trkpt>
      <trkpt lat="45.1693" lon="5.80653">
        <ele>528.76</ele>
        <time>2026-08-30T12:37:35.364Z</time>
      </trkpt>
      <trkpt lat="45.16949" lon="5.80648">
        <ele>527.28</ele>
        <time>2026-08-30T12:37:41.581Z</time>
      </trkpt>
      <trkpt lat="45.16967" lon="5.80642">
        <ele>527.07</ele>
        <time>2026-08-30T12:37:48.508Z</time>
      </trkpt>
      <trkpt lat="45.16983" lon="5.80629">
        <ele>526.27</ele>
        <time>2026-08-30T12:37:55.264Z</time>
      </trkpt>
      <trkpt lat="45.16998" lon="5.80615">
        <ele>522.13</ele>
        <time>2026-08-30T12:38:05.304Z</time>
      </trkpt>
      <trkpt lat="45.17016" lon="5.80603">
        <ele>520.14</ele>
        <time>2026-08-30T12:38:15.101Z</time>
      </trkpt>
      <trkpt lat="45.17034" lon="5.80596">
        <ele>521.4</ele>
        <time>2026-08-30T12:38:22.079Z</time>
      </trkpt>
      <trkpt lat="45.17051" lon="5.80608">
        <ele>520.49</ele>
        <time>2026-08-30T12:38:29.217Z</time>
      </trkpt>
      <trkpt lat="45.17068" lon="5.80617">
        <ele>520.41</ele>
        <time>2026-08-30T12:38:35.863Z</time>
      </trkpt>
      <trkpt lat="45.17079" lon="5.80595">
        <ele>521.92</ele>
        <time>2026-08-30T12:38:43.607Z</time>
      </trkpt>
      <trkpt lat="45.1708" lon="5.80568">
        <ele>522.8</ele>
        <time>2026-08-30T12:38:51.058Z</time>
      </trkpt>
      <trkpt lat="45.17082" lon="5.80541">
        <ele>523.98</ele>
        <time>2026-08-30T12:38:59.478Z</time>
      </trkpt>
      <trkpt lat="45.17093" lon="5.80521">
        <ele>524.09</ele>
        <time>2026-08-30T12:39:05.943Z</time>
      </trkpt>
      <trkpt lat="45.17109" lon="5.80507">
        <ele>523.79</ele>
        <time>2026-08-30T12:39:13.422Z</time>
      </trkpt>
      <trkpt lat="45.17126" lon="5.80495">
        <ele>524.19</ele>
        <time>2026-08-30T12:39:20.858Z</time>
      </trkpt>
      <trkpt lat="45.17143" lon="5.80486">
        <ele>525.64</ele>
        <time>2026-08-30T12:39:27.924Z</time>
      </trkpt>
      <trkpt lat="45.17161" lon="5.80478">
        <ele>525.22</ele>
        <time>2026-08-30T12:39:35.484Z</time>
      </trkpt>
      <trkpt lat="45.17176" lon="5.80462">
        <ele>524.37</ele>
        <time>2026-08-30T12:39:47.635Z</time>
      </trkpt>
      <trkpt lat="45.17182" lon="5.80437">
        <ele>525.86</ele>
        <time>2026-08-30T12:40:39.738Z</time>
      </trkpt>
      <trkpt lat="45.17186" lon="5.80411">
        <ele>524.79</ele>
        <time>2026-08-30T12:40:47.649Z</time>
      </trkpt>
      <trkpt lat="45.17175" lon="5.80388">
        <ele>523.95</ele>
        <time>2026-08-30T12:40:55.964Z</time>
      </trkpt>
      <trkpt lat="45.1717" lon="5.80361">
        <ele>523.19</ele>
        <time>2026-08-30T12:41:03.980Z</time>
      </trkpt>
      <trkpt lat="45.17174" lon="5.80336">
        <ele>518.93</ele>
        <time>2026-08-30T12:41:16.675Z</time>
      </trkpt>
      <trkpt lat="45.1718" lon="5.8031">
        <ele>516.39</ele>
        <time>2026-08-30T12:41:30.177Z</time>
      </trkpt>
      <trkpt lat="45.17184" lon="5.80284">
        <ele>515.86</ele>
        <time>2026-08-30T12:41:40.156Z</time>
      </trkpt>
      <trkpt lat="45.17192" lon="5.80259">
        <ele>512.63</ele>
        <time>2026-08-30T12:41:49.298Z</time>
      </trkpt>
      <trkpt lat="45.17209" lon="5.80251">
        <ele>508.77</ele>
        <time>2026-08-30T12:41:56.916Z</time>
      </trkpt>
      <trkpt lat="45.17226" lon="5.8024">
        <ele>505.39</ele>
        <time>2026-08-30T12:42:04.183Z</time>
      </trkpt>
      <trkpt lat="45.17245" lon="5.80232">
        <ele>502.99</ele>
        <time>2026-08-30T12:42:12.181Z</time>
      </trkpt>
      <trkpt lat="45.17263" lon="5.8023">
        <ele>501</ele>
        <time>2026-08-30T12:42:19.055Z</time>
      </trkpt>
      <trkpt lat="45.17281" lon="5.80228">
        <ele>497.63</ele>
        <time>2026-08-30T12:42:25.647Z</time>
      </trkpt>
      <trkpt lat="45.17299" lon="5.80224">
        <ele>495.96</ele>
        <time>2026-08-30T12:42:33.042Z</time>
      </trkpt>
      <trkpt lat="45.17316" lon="5.80213">
        <ele>491.74</ele>
        <time>2026-08-30T12:42:41.591Z</time>
      </trkpt>
      <trkpt lat="45.17304" lon="5.80193">
        <ele>491.88</ele>
        <time>2026-08-30T12:42:47.755Z</time>
      </trkpt>
      <trkpt lat="45.17297" lon="5.80169">
        <ele>489.65</ele>
        <time>2026-08-30T12:42:53.604Z</time>
      </trkpt>
      <trkpt lat="45.17288" lon="5.80146">
        <ele>488.74</ele>
        <time>2026-08-30T12:43:00.259Z</time>
      </trkpt>
      <trkpt lat="45.17277" lon="5.80124">
        <ele>484.95</ele>
        <time>2026-08-30T12:43:07.356Z</time>
      </trkpt>
      <trkpt lat="45.17265" lon="5.80103">
        <ele>482.51</ele>
        <time>2026-08-30T12:43:14.585Z</time>
      </trkpt>
      <trkpt lat="45.17254" lon="5.8008">
        <ele>478.61</ele>
        <time>2026-08-30T12:43:22.477Z</time>
      </trkpt>
      <trkpt lat="45.17246" lon="5.80057">
        <ele>476.82</ele>
        <time>2026-08-30T12:43:28.997Z</time>
      </trkpt>
      <trkpt lat="45.17238" lon="5.80032">
        <ele>475.39</ele>
        <time>2026-08-30T12:43:36.156Z</time>
      </trkpt>
      <trkpt lat="45.17235" lon="5.80005">
        <ele>470.31</ele>
        <time>2026-08-30T12:43:43.622Z</time>
      </trkpt>
      <trkpt lat="45.17238" lon="5.79979">
        <ele>468.18</ele>
        <time>2026-08-30T12:43:51.319Z</time>
      </trkpt>
      <trkpt lat="45.17242" lon="5.79954">
        <ele>466.46</ele>
        <time>2026-08-30T12:43:58.938Z</time>
      </trkpt>
      <trkpt lat="45.17241" lon="5.79927">
        <ele>462.17</ele>
        <time>2026-08-30T12:44:07.177Z</time>
      </trkpt>
      <trkpt lat="45.17245" lon="5.799">
        <ele>460.33</ele>
        <time>2026-08-30T12:44:15.526Z</time>
      </trkpt>
      <trkpt lat="45.17245" lon="5.79873">
        <ele>454.91</ele>
        <time>2026-08-30T12:44:28.898Z</time>
      </trkpt>
      <trkpt lat="45.17249" lon="5.79847">
        <ele>452.83</ele>
        <time>2026-08-30T12:44:37.996Z</time>
      </trkpt>
      <trkpt lat="45.17267" lon="5.79835">
        <ele>451.96</ele>
        <time>2026-08-30T12:44:45.075Z</time>
      </trkpt>
      <trkpt lat="45.17285" lon="5.79827">
        <ele>450.15</ele>
        <time>2026-08-30T12:44:53.383Z</time>
      </trkpt>
      <trkpt lat="45.17293" lon="5.79804">
        <ele>446.43</ele>
        <time>2026-08-30T12:45:02.002Z</time>
      </trkpt>
      <trkpt lat="45.17313" lon="5.79808">
        <ele>443.5</ele>
        <time>2026-08-30T12:45:11.380Z</time>
      </trkpt>
      <trkpt lat="45.17331" lon="5.79806">
        <ele>437.88</ele>
        <time>2026-08-30T12:45:19.502Z</time>
      </trkpt>
      <trkpt lat="45.17349" lon="5.798">
        <ele>434.24</ele>
        <time>2026-08-30T12:45:29.120Z</time>
      </trkpt>
      <trkpt lat="45.17368" lon="5.79794">
        <ele>430.52</ele>
        <time>2026-08-30T12:45:37.645Z</time>
      </trkpt>
      <trkpt lat="45.17385" lon="5.79788">
        <ele>426.58</ele>
        <time>2026-08-30T12:45:45.937Z</time>
      </trkpt>
      <trkpt lat="45.174" lon="5.79772">
        <ele>423.33</ele>
        <time>2026-08-30T12:45:53.915Z</time>
      </trkpt>
      <trkpt lat="45.17419" lon="5.79768">
        <ele>421.59</ele>
        <time>2026-08-30T12:46:01.100Z</time>
      </trkpt>
      <trkpt lat="45.17437" lon="5.7977">
        <ele>421.06</ele>
        <time>2026-08-30T12:46:08.138Z</time>
      </trkpt>
      <trkpt lat="45.17453" lon="5.79781">
        <ele>416.52</ele>
        <time>2026-08-30T12:46:18.479Z</time>
      </trkpt>
      <trkpt lat="45.17467" lon="5.79765">
        <ele>418.71</ele>
        <time>2026-08-30T12:46:25.509Z</time>
      </trkpt>
      <trkpt lat="45.17468" lon="5.79738">
        <ele>416.86</ele>
        <time>2026-08-30T12:46:32.384Z</time>
      </trkpt>
      <trkpt lat="45.17465" lon="5.79712">
        <ele>418.09</ele>
        <time>2026-08-30T12:46:38.539Z</time>
      </trkpt>
      <trkpt lat="45.17467" lon="5.79685">
        <ele>416.2</ele>
        <time>2026-08-30T12:46:47.299Z</time>
      </trkpt>
      <trkpt lat="45.17473" lon="5.79662">
        <ele>413.54</ele>
        <time>2026-08-30T12:46:55.778Z</time>
      </trkpt>
      <trkpt lat="45.1749" lon="5.79649">
        <ele>410.18</ele>
        <time>2026-08-30T12:47:05.217Z</time>
      </trkpt>
      <trkpt lat="45.17488" lon="5.79622">
        <ele>401.65</ele>
        <time>2026-08-30T12:47:19.842Z</time>
      </trkpt>
      <trkpt lat="45.17479" lon="5.796">
        <ele>399.58</ele>
        <time>2026-08-30T12:47:26.980Z</time>
      </trkpt>
      <trkpt lat="45.17485" lon="5.79576">
        <ele>396.92</ele>
        <time>2026-08-30T12:47:34.125Z</time>
      </trkpt>
      <trkpt lat="45.17497" lon="5.79556">
        <ele>394.79</ele>
        <time>2026-08-30T12:47:40.524Z</time>
      </trkpt>
      <trkpt lat="45.17507" lon="5.79535">
        <ele>392.63</ele>
        <time>2026-08-30T12:47:48.001Z</time>
      </trkpt>
      <trkpt lat="45.17518" lon="5.79512">
        <ele>390.37</ele>
        <time>2026-08-30T12:47:55.859Z</time>
      </trkpt>
      <trkpt lat="45.17527" lon="5.79488">
        <ele>388.52</ele>
        <time>2026-08-30T12:48:02.441Z</time>
      </trkpt>
      <trkpt lat="45.1754" lon="5.79468">
        <ele>385.99</ele>
        <time>2026-08-30T12:48:10.363Z</time>
      </trkpt>
      <trkpt lat="45.17555" lon="5.79449">
        <ele>383.96</ele>
        <time>2026-08-30T12:48:17.761Z</time>
      </trkpt>
      <trkpt lat="45.17563" lon="5.79426">
        <ele>382.14</ele>
        <time>2026-08-30T12:48:27.080Z</time>
      </trkpt>
      <trkpt lat="45.17568" lon="5.794">
        <ele>378.96</ele>
        <time>2026-08-30T12:48:37.561Z</time>
      </trkpt>
      <trkpt lat="45.17572" lon="5.79373">
        <ele>372.14</ele>
        <time>2026-08-30T12:48:49.382Z</time>
      </trkpt>
      <trkpt lat="45.17582" lon="5.79351">
        <ele>366.44</ele>
        <time>2026-08-30T12:49:01.235Z</time>
      </trkpt>
      <trkpt lat="45.17596" lon="5.79333">
        <ele>361.42</ele>
        <time>2026-08-30T12:49:10.874Z</time>
      </trkpt>
      <trkpt lat="45.17607" lon="5.79311">
        <ele>355.58</ele>
        <time>2026-08-30T12:49:22.177Z</time>
      </trkpt>
      <trkpt lat="45.17619" lon="5.79291">
        <ele>351.46</ele>
        <time>2026-08-30T12:49:31.255Z</time>
      </trkpt>
      <trkpt lat="45.17635" lon="5.79276">
        <ele>346.34</ele>
        <time>2026-08-30T12:50:10.795Z</time>
      </trkpt>
      <trkpt lat="45.17648" lon="5.79258">
        <ele>343.12</ele>
        <time>2026-08-30T12:50:21.295Z</time>
      </trkpt>
      <trkpt lat="45.17662" lon="5.7924">
        <ele>338.15</ele>
        <time>2026-08-30T12:50:37.902Z</time>
      </trkpt>
      <trkpt lat="45.17675" lon="5.79223">
        <ele>338.37</ele>
        <time>2026-08-30T12:50:45.881Z</time>
      </trkpt>
      <trkpt lat="45.17691" lon="5.79209">
        <ele>336.17</ele>
        <time>2026-08-30T12:50:53.078Z</time>
      </trkpt>
      <trkpt lat="45.17709" lon="5.792">
        <ele>332.45</ele>
        <time>2026-08-30T12:51:01.777Z</time>
      </trkpt>
      <trkpt lat="45.17727" lon="5.79196">
        <ele>328.78</ele>
        <time>2026-08-30T12:51:10.915Z</time>
      </trkpt>
      <trkpt lat="45.17745" lon="5.79195">
        <ele>326.13</ele>
        <time>2026-08-30T12:51:18.824Z</time>
      </trkpt>
      <trkpt lat="45.17765" lon="5.79199">
        <ele>321.98</ele>
        <time>2026-08-30T12:51:26.373Z</time>
      </trkpt>
      <trkpt lat="45.17782" lon="5.7921">
        <ele>319.28</ele>
        <time>2026-08-30T12:51:34.500Z</time>
      </trkpt>
      <trkpt lat="45.17798" lon="5.79222">
        <ele>316.33</ele>
        <time>2026-08-30T12:51:41.528Z</time>
      </trkpt>
      <trkpt lat="45.17813" lon="5.79238">
        <ele>313.32</ele>
        <time>2026-08-30T12:51:49.460Z</time>
      </trkpt>
      <trkpt lat="45.1783" lon="5.79249">
        <ele>310.12</ele>
        <time>2026-08-30T12:51:58.224Z</time>
      </trkpt>
      <trkpt lat="45.17848" lon="5.7926">
        <ele>306.94</ele>
        <time>2026-08-30T12:52:06.382Z</time>
      </trkpt>
      <trkpt lat="45.17866" lon="5.79273">
        <ele>304.13</ele>
        <time>2026-08-30T12:52:15.160Z</time>
      </trkpt>
      <trkpt lat="45.17881" lon="5.7929">
        <ele>300.58</ele>
        <time>2026-08-30T12:52:23.038Z</time>
      </trkpt>
      <trkpt lat="45.17895" lon="5.79307">
        <ele>297.56</ele>
        <time>2026-08-30T12:52:30.995Z</time>
      </trkpt>
      <trkpt lat="45.17905" lon="5.79331">
        <ele>295.83</ele>
        <time>2026-08-30T12:52:38.464Z</time>
      </trkpt>
      <trkpt lat="45.17922" lon="5.7934">
        <ele>294.22</ele>
        <time>2026-08-30T12:52:45.477Z</time>
      </trkpt>
      <trkpt lat="45.17939" lon="5.79355">
        <ele>291.21</ele>
        <time>2026-08-30T12:52:53.423Z</time>
      </trkpt>
      <trkpt lat="45.17957" lon="5.79369">
        <ele>288.64</ele>
        <time>2026-08-30T12:53:02.237Z</time>
      </trkpt>
      <trkpt lat="45.1797" lon="5.79387">
        <ele>283.85</ele>
        <time>2026-08-30T12:53:10.433Z</time>
      </trkpt>
      <trkpt lat="45.17985" lon="5.79404">
        <ele>280.56</ele>
        <time>2026-08-30T12:53:19.143Z</time>
      </trkpt>
      <trkpt lat="45.17999" lon="5.79422">
        <ele>279.2</ele>
        <time>2026-08-30T12:53:26.371Z</time>
      </trkpt>
      <trkpt lat="45.18008" lon="5.79444">
        <ele>275.51</ele>
        <time>2026-08-30T12:53:34.778Z</time>
      </trkpt>
      <trkpt lat="45.1802" lon="5.79465">
        <ele>274.85</ele>
        <time>2026-08-30T12:53:43.057Z</time>
      </trkpt>
      <trkpt lat="45.18034" lon="5.79485">
        <ele>272.71</ele>
        <time>2026-08-30T12:53:51.024Z</time>
      </trkpt>
      <trkpt lat="45.18043" lon="5.79507">
        <ele>269.62</ele>
        <time>2026-08-30T12:53:58.903Z</time>
      </trkpt>
      <trkpt lat="45.18056" lon="5.79526">
        <ele>265.78</ele>
        <time>2026-08-30T12:54:06.139Z</time>
      </trkpt>
      <trkpt lat="45.18064" lon="5.7955">
        <ele>265.65</ele>
        <time>2026-08-30T12:54:14.878Z</time>
      </trkpt>
      <trkpt lat="45.18078" lon="5.79568">
        <ele>262.19</ele>
        <time>2026-08-30T12:54:22.795Z</time>
      </trkpt>
      <trkpt lat="45.18082" lon="5.79543">
        <ele>259.49</ele>
        <time>2026-08-30T12:54:32.976Z</time>
      </trkpt>
      <trkpt lat="45.18078" lon="5.79516">
        <ele>257</ele>
        <time>2026-08-30T12:54:41.324Z</time>
      </trkpt>
      <trkpt lat="45.18075" lon="5.79491">
        <ele>251.4</ele>
        <time>2026-08-30T12:54:49.401Z</time>
      </trkpt>
      <trkpt lat="45.18073" lon="5.79463">
        <ele>251.03</ele>
        <time>2026-08-30T12:54:57.597Z</time>
      </trkpt>
      <trkpt lat="45.18072" lon="5.79438">
        <ele>247.78</ele>
        <time>2026-08-30T12:55:05.394Z</time>
      </trkpt>
      <trkpt lat="45.18072" lon="5.79411">
        <ele>245.95</ele>
        <time>2026-08-30T12:55:12.724Z</time>
      </trkpt>
      <trkpt lat="45.18081" lon="5.79388">
        <ele>242.06</ele>
        <time>2026-08-30T12:55:20.641Z</time>
      </trkpt>
      <trkpt lat="45.18096" lon="5.79372">
        <ele>241.92</ele>
        <time>2026-08-30T12:55:27.819Z</time>
      </trkpt>
      <trkpt lat="45.18109" lon="5.79353">
        <ele>238.15</ele>
        <time>2026-08-30T12:55:37.276Z</time>
      </trkpt>
      <trkpt lat="45.18122" lon="5.79334">
        <ele>238.27</ele>
        <time>2026-08-30T12:55:44.804Z</time>
      </trkpt>
      <trkpt lat="45.18135" lon="5.79315">
        <ele>239.51</ele>
        <time>2026-08-30T12:55:51.902Z</time>
      </trkpt>
      <trkpt lat="45.18148" lon="5.79298">
        <ele>237.59</ele>
        <time>2026-08-30T12:55:59.719Z</time>
      </trkpt>
      <trkpt lat="45.18162" lon="5.7928">
        <ele>235.58</ele>
        <time>2026-08-30T12:56:07.878Z</time>
      </trkpt>
      <trkpt lat="45.18175" lon="5.79261">
        <ele>235.72</ele>
        <time>2026-08-30T12:56:13.401Z</time>
      </trkpt>
      <trkpt lat="45.18188" lon="5.79242">
        <ele>235.55</ele>
        <time>2026-08-30T12:56:20.960Z</time>
      </trkpt>
      <trkpt lat="45.18203" lon="5.79225">
        <ele>233.14</ele>
        <time>2026-08-30T12:56:28.915Z</time>
      </trkpt>
      <trkpt lat="45.1822" lon="5.79216">
        <ele>233.95</ele>
        <time>2026-08-30T12:56:36.045Z</time>
      </trkpt>
      <trkpt lat="45.18236" lon="5.79203">
        <ele>233.69</ele>
        <time>2026-08-30T12:56:43.481Z</time>
      </trkpt>
      <trkpt lat="45.18253" lon="5.79195">
        <ele>231.87</ele>
        <time>2026-08-30T12:56:50.393Z</time>
      </trkpt>
      <trkpt lat="45.18272" lon="5.79188">
        <ele>230.58</ele>
        <time>2026-08-30T12:56:57.615Z</time>
      </trkpt>
      <trkpt lat="45.18289" lon="5.79178">
        <ele>231.25</ele>
        <time>2026-08-30T12:57:04.408Z</time>
      </trkpt>
      <trkpt lat="45.18306" lon="5.79168">
        <ele>229.85</ele>
        <time>2026-08-30T12:57:11.358Z</time>
      </trkpt>
      <trkpt lat="45.18324" lon="5.79156">
        <ele>228.26</ele>
        <time>2026-08-30T12:57:23.933Z</time>
      </trkpt>
      <trkpt lat="45.18343" lon="5.79139">
        <ele>229.11</ele>
        <time>2026-08-30T12:57:30.496Z</time>
      </trkpt>
      <trkpt lat="45.18356" lon="5.79122">
        <ele>228.14</ele>
        <time>2026-08-30T12:57:36.377Z</time>
      </trkpt>
      <trkpt lat="45.18369" lon="5.791">
        <ele>229.18</ele>
        <time>2026-08-30T12:57:43.436Z</time>
      </trkpt>
      <trkpt lat="45.18382" lon="5.7908">
        <ele>227.65</ele>
        <time>2026-08-30T12:57:51.361Z</time>
      </trkpt>
      <trkpt lat="45.184" lon="5.79072">
        <ele>227.69</ele>
        <time>2026-08-30T12:57:58.456Z</time>
      </trkpt>
      <trkpt lat="45.18419" lon="5.79066">
        <ele>227.9</ele>
        <time>2026-08-30T12:58:05.664Z</time>
      </trkpt>
      <trkpt lat="45.18438" lon="5.79059">
        <ele>228.25</ele>
        <time>2026-08-30T12:58:13.498Z</time>
      </trkpt>
      <trkpt lat="45.18456" lon="5.79055">
        <ele>227.73</ele>
        <time>2026-08-30T12:58:20.400Z</time>
      </trkpt>
      <trkpt lat="45.18475" lon="5.79051">
        <ele>227.88</ele>
        <time>2026-08-30T12:58:27.443Z</time>
      </trkpt>
      <trkpt lat="45.18495" lon="5.79041">
        <ele>227.97</ele>
        <time>2026-08-30T12:58:35.369Z</time>
      </trkpt>
      <trkpt lat="45.18513" lon="5.79031">
        <ele>227.47</ele>
        <time>2026-08-30T12:58:43.314Z</time>
      </trkpt>
      <trkpt lat="45.18531" lon="5.7902">
        <ele>226.35</ele>
        <time>2026-08-30T12:58:51.376Z</time>
      </trkpt>
      <trkpt lat="45.1855" lon="5.79018">
        <ele>226.61</ele>
        <time>2026-08-30T12:58:58.442Z</time>
      </trkpt>
      <trkpt lat="45.18566" lon="5.79006">
        <ele>225.79</ele>
        <time>2026-08-30T12:59:05.517Z</time>
      </trkpt>
      <trkpt lat="45.18583" lon="5.78992">
        <ele>225.49</ele>
        <time>2026-08-30T12:59:13.541Z</time>
      </trkpt>
      <trkpt lat="45.186" lon="5.78982">
        <ele>225.28</ele>
        <time>2026-08-30T12:59:21.537Z</time>
      </trkpt>
      <trkpt lat="45.18599" lon="5.78955">
        <ele>225.91</ele>
        <time>2026-08-30T12:59:28.549Z</time>
      </trkpt>
      <trkpt lat="45.18598" lon="5.78928">
        <ele>226.16</ele>
        <time>2026-08-30T12:59:36.567Z</time>
      </trkpt>
      <trkpt lat="45.18596" lon="5.78901">
        <ele>226.21</ele>
        <time>2026-08-30T12:59:44.613Z</time>
      </trkpt>
      <trkpt lat="45.18592" lon="5.78874">
        <ele>225.36</ele>
        <time>2026-08-30T12:59:52.627Z</time>
      </trkpt>
      <trkpt lat="45.18588" lon="5.78849">
        <ele>224.45</ele>
        <time>2026-08-30T13:00:01.413Z</time>
      </trkpt>
      <trkpt lat="45.18586" lon="5.78824">
        <ele>223.17</ele>
        <time>2026-08-30T13:00:15.533Z</time>
      </trkpt>
      <trkpt lat="45.18588" lon="5.78796">
        <ele>223.49</ele>
        <time>2026-08-30T13:00:24.527Z</time>
      </trkpt>
      <trkpt lat="45.18583" lon="5.78769">
        <ele>226.2</ele>
        <time>2026-08-30T13:00:32.647Z</time>
      </trkpt>
      <trkpt lat="45.18577" lon="5.78741">
        <ele>225.45</ele>
        <time>2026-08-30T13:00:40.491Z</time>
      </trkpt>
      <trkpt lat="45.18573" lon="5.78714">
        <ele>224.34</ele>
        <time>2026-08-30T13:00:48.678Z</time>
      </trkpt>
      <trkpt lat="45.18586" lon="5.78693">
        <ele>224.59</ele>
        <time>2026-08-30T13:00:56.497Z</time>
      </trkpt>
      <trkpt lat="45.18586" lon="5.78662">
        <ele>224.6</ele>
        <time>2026-08-30T13:01:04.725Z</time>
      </trkpt>
      <trkpt lat="45.18585" lon="5.78636">
        <ele>225.44</ele>
        <time>2026-08-30T13:01:11.684Z</time>
      </trkpt>
      <trkpt lat="45.18583" lon="5.78609">
        <ele>224.76</ele>
        <time>2026-08-30T13:01:19.487Z</time>
      </trkpt>
      <trkpt lat="45.18578" lon="5.78581">
        <ele>224.13</ele>
        <time>2026-08-30T13:01:27.537Z</time>
      </trkpt>
      <trkpt lat="45.18577" lon="5.78553">
        <ele>224.17</ele>
        <time>2026-08-30T13:01:36.597Z</time>
      </trkpt>
      <trkpt lat="45.18569" lon="5.78528">
        <ele>224.11</ele>
        <time>2026-08-30T13:01:43.586Z</time>
      </trkpt>
      <trkpt lat="45.18564" lon="5.78502">
        <ele>223.39</ele>
        <time>2026-08-30T13:01:51.479Z</time>
      </trkpt>
      <trkpt lat="45.18577" lon="5.78481">
        <ele>223.09</ele>
        <time>2026-08-30T13:01:58.686Z</time>
      </trkpt>
      <trkpt lat="45.18588" lon="5.78461">
        <ele>223.61</ele>
        <time>2026-08-30T13:02:05.469Z</time>
      </trkpt>
      <trkpt lat="45.18602" lon="5.78443">
        <ele>223.22</ele>
        <time>2026-08-30T13:02:12.499Z</time>
      </trkpt>
      <trkpt lat="45.1862" lon="5.78454">
        <ele>221.44</ele>
        <time>2026-08-30T13:02:28.674Z</time>
      </trkpt>
      <trkpt lat="45.18635" lon="5.7847">
        <ele>221.81</ele>
        <time>2026-08-30T13:02:43.652Z</time>
      </trkpt>
    </trkseg>
  </trk>
</gpx>